| time (UTC) | temp F | wind direction | speed MPH | gust MPH | rain 1hr in | rain 24hr in | rain mn in | humidity % | barometer mb |
| 20260507195635 | 62 | 333 | 9.0 | 16.0 | 0.00 | 0.00 | 0.00 | 63 | 1010.7 |
| 20260507195533 | 62 | 329 | 8.0 | 16.0 | 0.00 | 0.00 | 0.00 | 64 | 1010.7 |
| 20260507195436 | 62 | 329 | 9.0 | 16.0 | 0.00 | 0.00 | 0.00 | 67 | 1010.7 |
| 20260507195335 | 62 | 328 | 2.0 | 9.0 | 0.00 | 0.00 | 0.00 | 67 | 1010.7 |
| 20260507195234 | 62 | 323 | 3.0 | 9.0 | 0.00 | 0.00 | 0.00 | 66 | 1010.7 |
| 20260507195133 | 62 | 335 | 3.0 | 10.0 | 0.00 | 0.00 | 0.00 | 67 | 1010.7 |
| 20260507195032 | 61 | 326 | 5.0 | 12.0 | 0.00 | 0.00 | 0.00 | 67 | 1010.7 |
| 20260507194930 | 61 | 323 | 1.0 | 12.0 | 0.00 | 0.00 | 0.00 | 66 | 1010.7 |
| 20260507194833 | 61 | 330 | 4.0 | 12.0 | 0.00 | 0.00 | 0.00 | 66 | 1010.7 |
| 20260507194731 | 61 | 329 | 2.0 | 14.0 | 0.00 | 0.00 | 0.00 | 66 | 1010.7 |
| 20260507194702 | 61 | 329 | 1.0 | 14.0 | 0.00 | 0.00 | 0.00 | 66 | 1010.7 |
| 20260507194540 | 61 | 147 | 3.0 | 14.0 | 0.00 | 0.00 | 0.00 | 65 | 1010.7 |
| 20260507194439 | 61 | 49 | 5.0 | 14.0 | 0.00 | 0.00 | 0.00 | 64 | 1010.7 |
| 20260507194337 | 61 | 301 | 5.0 | 14.0 | 0.00 | 0.00 | 0.00 | 65 | 1010.6 |
| 20260507194235 | 61 | 326 | 9.0 | 14.0 | 0.00 | 0.00 | 0.00 | 63 | 1010.6 |
| 20260507194139 | 61 | 336 | 7.0 | 14.0 | 0.00 | 0.00 | 0.00 | 65 | 1010.6 |
| 20260507194037 | 61 | 337 | 6.0 | 14.0 | 0.00 | 0.00 | 0.00 | 65 | 1010.6 |
| 20260507193936 | 61 | 328 | 7.0 | 14.0 | 0.00 | 0.00 | 0.00 | 66 | 1010.6 |
| 20260507193835 | 61 | 330 | 0.0 | 12.0 | 0.00 | 0.00 | 0.00 | 65 | 1010.6 |
| 20260507193733 | 61 | 336 | 5.0 | 12.0 | 0.00 | 0.00 | 0.00 | 65 | 1010.6 |
| 20260507193631 | 61 | 340 | 5.0 | 12.0 | 0.00 | 0.00 | 0.00 | 63 | 1010.6 |
| 20260507193530 | 61 | 329 | 6.0 | 12.0 | 0.00 | 0.00 | 0.00 | 64 | 1010.6 |
| 20260507193432 | 61 | 326 | 9.0 | 12.0 | 0.00 | 0.00 | 0.00 | 65 | 1010.6 |
| 20260507193331 | 61 | 350 | 6.0 | 12.0 | 0.00 | 0.00 | 0.00 | 64 | 1010.6 |
| 20260507193249 | 61 | 326 | 8.0 | 12.0 | 0.00 | 0.00 | 0.00 | 66 | 1010.6 |
| 20260507193158 | 61 | 322 | 4.0 | 12.0 | 0.00 | 0.00 | 0.00 | 66 | 1010.6 |
| 20260507193034 | 61 | 344 | 5.0 | 12.0 | 0.00 | 0.00 | 0.00 | 64 | 1010.6 |
| 20260507192933 | 61 | 330 | 3.0 | 12.0 | 0.00 | 0.00 | 0.00 | 63 | 1010.6 |
| 20260507192833 | 61 | 346 | 3.0 | 12.0 | 0.00 | 0.00 | 0.00 | 62 | 1010.5 |
| 20260507192737 | 61 | 347 | 4.0 | 12.0 | 0.00 | 0.00 | 0.00 | 65 | 1010.5 |
| 20260507192655 | 61 | 347 | 7.0 | 12.0 | 0.00 | 0.00 | 0.00 | 63 | 1010.5 |
| 20260507192535 | 61 | 339 | 8.0 | 12.0 | 0.00 | 0.00 | 0.00 | 65 | 1010.5 |
| 20260507192434 | 61 | 322 | 6.0 | 12.0 | 0.00 | 0.00 | 0.00 | 64 | 1010.5 |
| 20260507192332 | 61 | 333 | 5.0 | 12.0 | 0.00 | 0.00 | 0.00 | 65 | 1010.5 |
| 20260507192230 | 61 | 346 | 6.0 | 12.0 | 0.00 | 0.00 | 0.00 | 64 | 1010.5 |
| 20260507192129 | 61 | 346 | 6.0 | 12.0 | 0.00 | 0.00 | 0.00 | 65 | 1010.5 |
| 20260507192032 | 61 | 208 | 7.0 | 12.0 | 0.00 | 0.00 | 0.00 | 65 | 1010.5 |
| 20260507191950 | 61 | 263 | 7.0 | 11.0 | 0.00 | 0.00 | 0.00 | 65 | 1010.5 |
| 20260507191827 | 61 | 330 | 8.0 | 11.0 | 0.00 | 0.00 | 0.00 | 66 | 1010.5 |
| 20260507191737 | 61 | 325 | 3.0 | 11.0 | 0.00 | 0.00 | 0.00 | 67 | 1010.5 |
| 20260507191647 | 61 | 328 | 2.0 | 14.0 | 0.00 | 0.00 | 0.00 | 65 | 1010.5 |
| 20260507191525 | 61 | 328 | 2.0 | 14.0 | 0.00 | 0.00 | 0.00 | 65 | 1010.5 |
| 20260507191424 | 60 | 328 | 3.0 | 14.0 | 0.00 | 0.00 | 0.00 | 66 | 1010.5 |
| 20260507191342 | 60 | 330 | 2.0 | 14.0 | 0.00 | 0.00 | 0.00 | 66 | 1010.5 |
| 20260507191224 | 60 | 326 | 7.0 | 14.0 | 0.00 | 0.00 | 0.00 | 64 | 1010.5 |
| 20260507191142 | 60 | 326 | 3.0 | 14.0 | 0.00 | 0.00 | 0.00 | 64 | 1010.5 |
| 20260507191041 | 60 | 360 | 5.0 | 14.0 | 0.00 | 0.00 | 0.00 | 65 | 1010.5 |
| 20260507190940 | 60 | 349 | 4.0 | 14.0 | 0.00 | 0.00 | 0.00 | 64 | 1010.5 |
| 20260507190838 | 60 | 268 | 6.0 | 14.0 | 0.00 | 0.00 | 0.00 | 65 | 1010.5 |
| 20260507190756 | 60 | 328 | 9.0 | 14.0 | 0.00 | 0.00 | 0.00 | 66 | 1010.5 |
| 20260507190654 | 60 | 319 | 4.0 | 13.0 | 0.00 | 0.00 | 0.00 | 63 | 1010.5 |
| 20260507190531 | 60 | 320 | 8.0 | 13.0 | 0.00 | 0.00 | 0.00 | 64 | 1010.5 |
| 20260507190433 | 60 | 325 | 9.0 | 13.0 | 0.00 | 0.00 | 0.00 | 65 | 1010.5 |
| 20260507190352 | 60 | 322 | 7.0 | 13.0 | 0.00 | 0.00 | 0.00 | 65 | 1010.5 |
| 20260507190229 | 60 | 329 | 7.0 | 12.0 | 0.00 | 0.00 | 0.00 | 67 | 1010.5 |
| 20260507190159 | 60 | 330 | 5.0 | 12.0 | 0.00 | 0.00 | 0.00 | 67 | 1010.5 |
| 20260507190057 | 60 | 339 | 3.0 | 12.0 | 0.00 | 0.00 | 0.00 | 67 | 1010.5 |
| 20260507185955 | 60 | 325 | 1.0 | 12.0 | 0.00 | 0.00 | 0.00 | 66 | 1010.5 |
| 20260507185831 | 60 | 325 | 4.0 | 12.0 | 0.00 | 0.00 | 0.00 | 67 | 1010.6 |
| 20260507185729 | 60 | 332 | 1.0 | 12.0 | 0.00 | 0.00 | 0.00 | 64 | 1010.6 |
| 20260507185633 | 60 | 337 | 3.0 | 12.0 | 0.00 | 0.00 | 0.00 | 64 | 1010.6 |
| 20260507185530 | 60 | 312 | 2.0 | 12.0 | 0.00 | 0.00 | 0.00 | 64 | 1010.6 |
| 20260507185428 | 60 | 329 | 4.0 | 12.0 | 0.00 | 0.00 | 0.00 | 64 | 1010.6 |
| 20260507185327 | 60 | 330 | 9.0 | 12.0 | 0.00 | 0.00 | 0.00 | 67 | 1010.6 |
| 20260507185226 | 60 | 328 | 7.0 | 12.0 | 0.00 | 0.00 | 0.00 | 67 | 1010.6 |
| 20260507185125 | 60 | 328 | 8.0 | 12.0 | 0.00 | 0.00 | 0.00 | 67 | 1010.6 |
| 20260507185043 | 60 | 330 | 7.0 | 12.0 | 0.00 | 0.00 | 0.00 | 65 | 1010.6 |
| 20260507184941 | 60 | 330 | 5.0 | 12.0 | 0.00 | 0.00 | 0.00 | 67 | 1010.6 |
| 20260507184842 | 60 | 330 | 4.0 | 12.0 | 0.00 | 0.00 | 0.00 | 66 | 1010.6 |
| 20260507184741 | 60 | 342 | 7.0 | 12.0 | 0.00 | 0.00 | 0.00 | 66 | 1010.6 |
| 20260507184712 | 60 | 329 | 8.0 | 12.0 | 0.00 | 0.00 | 0.00 | 68 | 1010.6 |
| 20260507184529 | 60 | 335 | 6.0 | 13.0 | 0.00 | 0.00 | 0.00 | 67 | 1010.6 |
| 20260507184426 | 60 | 329 | 6.0 | 13.0 | 0.00 | 0.00 | 0.00 | 67 | 1010.6 |
| 20260507184344 | 60 | 325 | 4.0 | 14.0 | 0.00 | 0.00 | 0.00 | 67 | 1010.6 |
| 20260507184242 | 60 | 325 | 4.0 | 14.0 | 0.00 | 0.00 | 0.00 | 68 | 1010.6 |
| 20260507184139 | 60 | 326 | 6.0 | 14.0 | 0.00 | 0.00 | 0.00 | 66 | 1010.6 |
| 20260507184038 | 60 | 328 | 6.0 | 14.0 | 0.00 | 0.00 | 0.00 | 67 | 1010.6 |
| 20260507183940 | 60 | 179 | 5.0 | 14.0 | 0.00 | 0.00 | 0.00 | 68 | 1010.6 |
| 20260507183838 | 60 | 326 | 5.0 | 14.0 | 0.00 | 0.00 | 0.00 | 68 | 1010.6 |
| 20260507183737 | 60 | 330 | 7.0 | 14.0 | 0.00 | 0.00 | 0.00 | 66 | 1010.6 |
| 20260507183635 | 60 | 329 | 5.0 | 14.0 | 0.00 | 0.00 | 0.00 | 69 | 1010.6 |
| 20260507183532 | 60 | 329 | 9.0 | 14.0 | 0.00 | 0.00 | 0.00 | 67 | 1010.6 |
| 20260507183431 | 60 | 329 | 2.0 | 11.0 | 0.00 | 0.00 | 0.00 | 67 | 1010.6 |
| 20260507183334 | 60 | 342 | 1.0 | 13.0 | 0.00 | 0.00 | 0.00 | 68 | 1010.6 |
| 20260507183232 | 60 | 330 | 1.0 | 13.0 | 0.00 | 0.00 | 0.00 | 69 | 1010.6 |
| 20260507183202 | 60 | 329 | 5.0 | 13.0 | 0.00 | 0.00 | 0.00 | 69 | 1010.6 |
| 20260507183038 | 60 | 349 | 6.0 | 13.0 | 0.00 | 0.00 | 0.00 | 66 | 1010.6 |
| 20260507182937 | 60 | 332 | 4.0 | 13.0 | 0.00 | 0.00 | 0.00 | 66 | 1010.6 |
| 20260507182836 | 60 | 330 | 7.0 | 13.0 | 0.00 | 0.00 | 0.00 | 67 | 1010.9 |
| 20260507182734 | 60 | 227 | 7.0 | 13.0 | 0.00 | 0.00 | 0.00 | 66 | 1010.9 |
| 20260507182631 | 60 | 298 | 8.0 | 13.0 | 0.00 | 0.00 | 0.00 | 67 | 1010.9 |
| 20260507182533 | 60 | 109 | 11.0 | 13.0 | 0.00 | 0.00 | 0.00 | 68 | 1010.9 |
| 20260507182430 | 60 | 14 | 7.0 | 12.0 | 0.00 | 0.00 | 0.00 | 69 | 1010.9 |
| 20260507182333 | 60 | 313 | 2.0 | 12.0 | 0.00 | 0.00 | 0.00 | 69 | 1010.9 |
| 20260507182252 | 60 | 359 | 5.0 | 12.0 | 0.00 | 0.00 | 0.00 | 69 | 1010.9 |
| 20260507182130 | 60 | 47 | 4.0 | 13.0 | 0.00 | 0.00 | 0.00 | 68 | 1010.9 |
| 20260507182029 | 60 | 61 | 4.0 | 13.0 | 0.00 | 0.00 | 0.00 | 70 | 1010.9 |
| 20260507181927 | 60 | 329 | 6.0 | 13.0 | 0.00 | 0.00 | 0.00 | 69 | 1010.9 |
| 20260507181826 | 60 | 330 | 6.0 | 13.0 | 0.00 | 0.00 | 0.00 | 68 | 1010.9 |
| 20260507181749 | 60 | 330 | 4.0 | 13.0 | 0.00 | 0.00 | 0.00 | 68 | 1010.9 |
| 20260507181658 | 60 | 289 | 4.0 | 13.0 | 0.00 | 0.00 | 0.00 | 68 | 1010.9 |
| 20260507181556 | 60 | 167 | 8.0 | 13.0 | 0.00 | 0.00 | 0.00 | 66 | 1010.9 |
| 20260507181433 | 60 | 311 | 7.0 | 13.0 | 0.00 | 0.00 | 0.00 | 69 | 1010.9 |
| 20260507181335 | 60 | 147 | 8.0 | 13.0 | 0.00 | 0.00 | 0.00 | 70 | 1010.9 |
| 20260507181233 | 60 | 326 | 8.0 | 13.0 | 0.00 | 0.00 | 0.00 | 69 | 1010.9 |
| 20260507181132 | 60 | 329 | 6.0 | 12.0 | 0.00 | 0.00 | 0.00 | 67 | 1010.9 |
| 20260507181031 | 60 | 343 | 4.0 | 12.0 | 0.00 | 0.00 | 0.00 | 67 | 1010.9 |
| 20260507180936 | 60 | 83 | 5.0 | 13.0 | 0.00 | 0.00 | 0.00 | 67 | 1010.9 |
| 20260507180853 | 60 | 335 | 6.0 | 13.0 | 0.00 | 0.00 | 0.00 | 66 | 1010.9 |
| 20260507180731 | 60 | 169 | 2.0 | 13.0 | 0.00 | 0.00 | 0.00 | 69 | 1010.9 |
| 20260507180630 | 60 | 323 | 5.0 | 13.0 | 0.00 | 0.00 | 0.00 | 70 | 1010.9 |
| 20260507180531 | 60 | 123 | 3.0 | 13.0 | 0.00 | 0.00 | 0.00 | 70 | 1010.9 |
| 20260507180450 | 60 | 267 | 7.0 | 13.0 | 0.00 | 0.00 | 0.00 | 70 | 1010.9 |
| 20260507180327 | 60 | 360 | 7.0 | 15.0 | 0.00 | 0.00 | 0.00 | 69 | 1010.9 |
| 20260507180245 | 60 | 344 | 8.0 | 15.0 | 0.00 | 0.00 | 0.00 | 69 | 1010.9 |
| 20260507180219 | 60 | 332 | 9.0 | 15.0 | 0.00 | 0.00 | 0.00 | 70 | 1010.9 |
| 20260507180034 | 60 | 350 | 2.0 | 15.0 | 0.00 | 0.00 | 0.00 | 71 | 1010.9 |
| 20260507175933 | 60 | 336 | 3.0 | 15.0 | 0.00 | 0.00 | 0.00 | 70 | 1010.9 |
| 20260507175832 | 60 | 329 | 4.0 | 15.0 | 0.00 | 0.00 | 0.00 | 69 | 1011.1 |
| 20260507175730 | 60 | 330 | 8.0 | 15.0 | 0.00 | 0.00 | 0.00 | 71 | 1011.1 |
| 20260507175628 | 60 | 329 | 6.0 | 15.0 | 0.00 | 0.00 | 0.00 | 69 | 1011.1 |
| 20260507175525 | 60 | 320 | 7.0 | 15.0 | 0.00 | 0.00 | 0.00 | 69 | 1011.1 |
| 20260507175428 | 60 | 330 | 4.0 | 14.0 | 0.00 | 0.00 | 0.00 | 69 | 1011.1 |
| 20260507175346 | 60 | 332 | 6.0 | 14.0 | 0.00 | 0.00 | 0.00 | 71 | 1011.1 |
| 20260507175307 | 60 | 326 | 8.0 | 14.0 | 0.00 | 0.00 | 0.00 | 70 | 1011.1 |
| 20260507175202 | 59 | 330 | 6.0 | 14.0 | 0.00 | 0.00 | 0.00 | 68 | 1011.1 |
| 20260507175039 | 59 | 71 | 5.0 | 14.0 | 0.00 | 0.00 | 0.00 | 68 | 1011.1 |
| 20260507174938 | 59 | 353 | 8.0 | 14.0 | 0.00 | 0.00 | 0.00 | 68 | 1011.1 |
| 20260507174836 | 59 | 329 | 10.0 | 16.0 | 0.00 | 0.00 | 0.00 | 69 | 1011.1 |
| 20260507174736 | 59 | 330 | 9.0 | 16.0 | 0.00 | 0.00 | 0.00 | 69 | 1011.1 |
| 20260507174713 | 59 | 82 | 10.0 | 16.0 | 0.00 | 0.00 | 0.00 | 69 | 1011.1 |
| 20260507174529 | 59 | 330 | 7.0 | 16.0 | 0.00 | 0.00 | 0.00 | 69 | 1011.1 |
| 20260507174447 | 59 | 182 | 5.0 | 16.0 | 0.00 | 0.00 | 0.00 | 68 | 1011.1 |
| 20260507174324 | 59 | 344 | 4.0 | 16.0 | 0.00 | 0.00 | 0.00 | 70 | 1011.3 |
| 20260507174224 | 59 | 162 | 6.0 | 16.0 | 0.00 | 0.00 | 0.00 | 71 | 1011.3 |
| 20260507174143 | 59 | 76 | 7.0 | 16.0 | 0.00 | 0.00 | 0.00 | 68 | 1011.3 |
| 20260507174042 | 59 | 18 | 10.0 | 16.0 | 0.00 | 0.00 | 0.00 | 70 | 1011.3 |
| 20260507173939 | 59 | 326 | 6.0 | 16.0 | 0.00 | 0.00 | 0.00 | 71 | 1011.3 |
| 20260507173842 | 59 | 328 | 9.0 | 12.0 | 0.00 | 0.00 | 0.00 | 70 | 1011.3 |
| 20260507173800 | 59 | 168 | 8.0 | 12.0 | 0.00 | 0.00 | 0.00 | 69 | 1011.3 |
| 20260507173636 | 59 | 347 | 2.0 | 11.0 | 0.00 | 0.00 | 0.00 | 69 | 1011.3 |
| 20260507173536 | 59 | 254 | 2.0 | 11.0 | 0.00 | 0.00 | 0.00 | 69 | 1011.3 |
| 20260507173454 | 59 | 222 | 4.0 | 11.0 | 0.00 | 0.00 | 0.00 | 69 | 1011.3 |
| 20260507173331 | 59 | 291 | 6.0 | 11.0 | 0.00 | 0.00 | 0.00 | 69 | 1011.3 |
| 20260507173240 | 59 | 175 | 7.0 | 11.0 | 0.00 | 0.00 | 0.00 | 69 | 1011.3 |
| 20260507173151 | 59 | 296 | 6.0 | 11.0 | 0.00 | 0.00 | 0.00 | 70 | 1011.3 |
| 20260507173027 | 59 | 116 | 3.0 | 11.0 | 0.00 | 0.00 | 0.00 | 72 | 1011.3 |
| 20260507172928 | 59 | 330 | 4.0 | 11.0 | 0.00 | 0.00 | 0.00 | 71 | 1011.3 |
| 20260507172847 | 59 | 333 | 7.0 | 12.0 | 0.00 | 0.00 | 0.00 | 70 | 1011.5 |
| 20260507172724 | 59 | 315 | 6.0 | 12.0 | 0.00 | 0.00 | 0.00 | 71 | 1011.5 |
| 20260507172642 | 59 | 330 | 3.0 | 12.0 | 0.00 | 0.00 | 0.00 | 71 | 1011.5 |
| 20260507172540 | 59 | 330 | 5.0 | 12.0 | 0.00 | 0.00 | 0.00 | 71 | 1011.5 |
| 20260507172439 | 59 | 330 | 3.0 | 12.0 | 0.00 | 0.00 | 0.00 | 71 | 1011.5 |
| 20260507172337 | 59 | 330 | 5.0 | 12.0 | 0.00 | 0.00 | 0.00 | 69 | 1011.5 |
| 20260507172255 | 59 | 130 | 6.0 | 12.0 | 0.00 | 0.00 | 0.00 | 70 | 1011.5 |
| 20260507172136 | 59 | 316 | 5.0 | 12.0 | 0.00 | 0.00 | 0.00 | 71 | 1011.5 |
| 20260507172055 | 59 | 244 | 8.0 | 12.0 | 0.00 | 0.00 | 0.00 | 72 | 1011.5 |
| 20260507171932 | 59 | 328 | 7.0 | 12.0 | 0.00 | 0.00 | 0.00 | 71 | 1011.5 |
| 20260507171829 | 58 | 330 | 3.0 | 12.0 | 0.00 | 0.00 | 0.00 | 71 | 1011.5 |
| 20260507171738 | 58 | 330 | 5.0 | 14.0 | 0.00 | 0.00 | 0.00 | 74 | 1011.5 |
| 20260507171648 | 58 | 353 | 8.0 | 14.0 | 0.00 | 0.00 | 0.00 | 72 | 1011.5 |
| 20260507171526 | 58 | 128 | 8.0 | 14.0 | 0.00 | 0.00 | 0.00 | 72 | 1011.5 |
| 20260507171446 | 58 | 330 | 7.0 | 14.0 | 0.00 | 0.00 | 0.00 | 72 | 1011.5 |
| 20260507171327 | 58 | 332 | 10.0 | 14.0 | 0.00 | 0.00 | 0.00 | 72 | 1011.3 |
| 20260507171245 | 58 | 217 | 7.0 | 14.0 | 0.00 | 0.00 | 0.00 | 72 | 1011.3 |
| 20260507171143 | 58 | 261 | 6.0 | 14.0 | 0.00 | 0.00 | 0.00 | 71 | 1011.3 |
| 20260507171041 | 58 | 27 | 8.0 | 14.0 | 0.00 | 0.00 | 0.00 | 71 | 1011.3 |
| 20260507170940 | 58 | 323 | 10.0 | 14.0 | 0.00 | 0.00 | 0.00 | 72 | 1011.3 |
| 20260507170857 | 58 | 295 | 10.0 | 14.0 | 0.00 | 0.00 | 0.00 | 73 | 1011.3 |
| 20260507170754 | 58 | 326 | 8.0 | 12.0 | 0.00 | 0.00 | 0.00 | 75 | 1011.3 |
| 20260507170632 | 58 | 326 | 5.0 | 12.0 | 0.00 | 0.00 | 0.00 | 75 | 1011.3 |
| 20260507170531 | 58 | 330 | 9.0 | 12.0 | 0.00 | 0.00 | 0.00 | 76 | 1011.3 |
| 20260507170433 | 58 | 329 | 6.0 | 12.0 | 0.00 | 0.00 | 0.00 | 77 | 1011.3 |
| 20260507170350 | 58 | 360 | 2.0 | 12.0 | 0.00 | 0.00 | 0.00 | 77 | 1011.3 |
| 20260507170240 | 58 | 332 | 2.0 | 16.0 | 0.00 | 0.00 | 0.00 | 76 | 1011.3 |
| 20260507170150 | 58 | 182 | 5.0 | 16.0 | 0.00 | 0.00 | 0.00 | 75 | 1011.3 |
| 20260507170026 | 58 | 337 | 8.0 | 16.0 | 0.00 | 0.00 | 0.00 | 74 | 1011.3 |
| 20260507165924 | 58 | 306 | 9.0 | 16.0 | 0.00 | 0.00 | 0.00 | 74 | 1011.3 |
| 20260507165842 | 58 | 330 | 8.0 | 16.0 | 0.00 | 0.00 | 0.00 | 75 | 1011.6 |
| 20260507165740 | 57 | 285 | 6.0 | 16.0 | 0.00 | 0.00 | 0.00 | 76 | 1011.6 |
| 20260507165642 | 57 | 174 | 5.0 | 16.0 | 0.00 | 0.00 | 0.00 | 76 | 1011.6 |
| 20260507165600 | 57 | 136 | 6.0 | 16.0 | 0.00 | 0.00 | 0.00 | 75 | 1011.6 |
| 20260507165458 | 57 | 329 | 8.0 | 16.0 | 0.00 | 0.00 | 0.00 | 77 | 1011.6 |
| 20260507165336 | 57 | 203 | 7.0 | 14.0 | 0.00 | 0.00 | 0.00 | 77 | 1011.6 |
| 20260507165233 | 57 | 272 | 6.0 | 14.0 | 0.00 | 0.00 | 0.00 | 78 | 1011.6 |
| 20260507165132 | 57 | 325 | 2.0 | 14.0 | 0.00 | 0.00 | 0.00 | 77 | 1011.6 |
| 20260507165030 | 57 | 343 | 6.0 | 16.0 | 0.00 | 0.00 | 0.00 | 76 | 1011.6 |
| 20260507164929 | 57 | 329 | 5.0 | 16.0 | 0.00 | 0.00 | 0.00 | 74 | 1011.6 |
| 20260507164831 | 57 | 296 | 11.0 | 19.0 | 0.00 | 0.00 | 0.00 | 76 | 1011.6 |
| 20260507164729 | 57 | 329 | 9.0 | 19.0 | 0.00 | 0.00 | 0.00 | 77 | 1011.6 |
| 20260507164659 | 57 | 332 | 7.0 | 19.0 | 0.00 | 0.00 | 0.00 | 77 | 1011.6 |
| 20260507164537 | 57 | 336 | 8.0 | 19.0 | 0.00 | 0.00 | 0.00 | 79 | 1011.6 |
| 20260507164437 | 57 | 333 | 9.0 | 19.0 | 0.00 | 0.00 | 0.00 | 78 | 1011.6 |
| 20260507164336 | 57 | 281 | 9.0 | 19.0 | 0.00 | 0.00 | 0.00 | 80 | 1011.6 |
| 20260507164235 | 57 | 268 | 8.0 | 19.0 | 0.00 | 0.00 | 0.00 | 79 | 1011.6 |
| 20260507164136 | 56 | 326 | 7.0 | 19.0 | 0.00 | 0.00 | 0.00 | 79 | 1011.6 |
| 20260507164035 | 56 | 346 | 9.0 | 19.0 | 0.00 | 0.00 | 0.00 | 78 | 1011.6 |
| 20260507163935 | 56 | 359 | 9.0 | 19.0 | 0.00 | 0.00 | 0.00 | 81 | 1011.6 |
| 20260507163833 | 57 | 329 | 5.0 | 17.0 | 0.00 | 0.00 | 0.00 | 82 | 1011.6 |
| 20260507163753 | 56 | 330 | 8.0 | 17.0 | 0.00 | 0.00 | 0.00 | 83 | 1011.6 |
| 20260507163630 | 56 | 330 | 5.0 | 17.0 | 0.00 | 0.00 | 0.00 | 82 | 1011.6 |
| 20260507163528 | 56 | 322 | 9.0 | 17.0 | 0.00 | 0.00 | 0.00 | 82 | 1011.6 |
| 20260507163433 | 56 | 333 | 13.0 | 17.0 | 0.00 | 0.00 | 0.00 | 84 | 1011.6 |
| 20260507163332 | 56 | 330 | 9.0 | 14.0 | 0.00 | 0.00 | 0.00 | 84 | 1011.6 |
| 20260507163233 | 56 | 234 | 10.0 | 14.0 | 0.00 | 0.00 | 0.00 | 83 | 1011.6 |
| 20260507163203 | 56 | 333 | 6.0 | 14.0 | 0.00 | 0.00 | 0.00 | 83 | 1011.6 |
| 20260507163041 | 56 | 313 | 5.0 | 14.0 | 0.00 | 0.00 | 0.00 | 83 | 1011.6 |
| 20260507162938 | 56 | 336 | 9.0 | 14.0 | 0.00 | 0.00 | 0.00 | 82 | 1011.6 |
| 20260507162837 | 56 | 38 | 9.0 | 13.0 | 0.00 | 0.00 | 0.00 | 83 | 1011.2 |
| 20260507162739 | 56 | 320 | 9.0 | 13.0 | 0.00 | 0.00 | 0.00 | 84 | 1011.2 |
| 20260507162658 | 56 | 158 | 8.0 | 13.0 | 0.00 | 0.00 | 0.00 | 84 | 1011.2 |
| 20260507162535 | 56 | 323 | 9.0 | 13.0 | 0.00 | 0.00 | 0.00 | 86 | 1011.2 |
| 20260507162454 | 56 | 328 | 5.0 | 13.0 | 0.00 | 0.00 | 0.00 | 87 | 1011.2 |
| 20260507162334 | 56 | 332 | 5.0 | 13.0 | 0.00 | 0.00 | 0.00 | 88 | 1011.2 |
| 20260507162233 | 56 | 126 | 4.0 | 13.0 | 0.00 | 0.00 | 0.00 | 89 | 1011.2 |
| 20260507162132 | 55 | 311 | 8.0 | 13.0 | 0.00 | 0.00 | 0.00 | 89 | 1011.2 |
| 20260507162051 | 55 | 306 | 8.0 | 13.0 | 0.00 | 0.00 | 0.00 | 89 | 1011.2 |
| 20260507161933 | 55 | 337 | 9.0 | 13.0 | 0.00 | 0.00 | 0.00 | 90 | 1011.2 |
| 20260507161831 | 55 | 330 | 7.0 | 13.0 | 0.00 | 0.00 | 0.00 | 90 | 1011.2 |
| 20260507161729 | 55 | 332 | 9.0 | 13.0 | 0.00 | 0.00 | 0.00 | 92 | 1011.2 |
| 20260507161700 | 55 | 329 | 8.0 | 16.0 | 0.00 | 0.00 | 0.00 | 92 | 1011.2 |
| 20260507161539 | 55 | 270 | 8.0 | 16.0 | 0.00 | 0.00 | 0.00 | 95 | 1011.2 |
| 20260507161436 | 55 | 299 | 8.0 | 16.0 | 0.00 | 0.00 | 0.00 | 96 | 1011.2 |
| 20260507161334 | 55 | 326 | 8.0 | 16.0 | 0.00 | 0.00 | 0.00 | 96 | 1011.3 |
| 20260507161238 | 55 | 92 | 8.0 | 16.0 | 0.00 | 0.00 | 0.00 | 97 | 1011.3 |
| 20260507161137 | 55 | 320 | 7.0 | 16.0 | 0.00 | 0.00 | 0.00 | 100 | 1011.3 |
| 20260507161036 | 55 | 178 | 8.0 | 16.0 | 0.00 | 0.00 | 0.00 | 100 | 1011.3 |
| 20260507160935 | 55 | 326 | 9.0 | 16.0 | 0.00 | 0.00 | 0.00 | 100 | 1011.3 |
| 20260507160833 | 55 | 227 | 10.0 | 16.0 | 0.00 | 0.00 | 0.00 | 100 | 1011.3 |
| 20260507160732 | 55 | 313 | 6.0 | 16.0 | 0.00 | 0.00 | 0.00 | 100 | 1011.3 |
| 20260507160630 | 55 | 82 | 8.0 | 18.0 | 0.00 | 0.00 | 0.00 | 100 | 1011.3 |
| 20260507160533 | 55 | 330 | 2.0 | 18.0 | 0.00 | 0.00 | 0.00 | 100 | 1011.3 |
| 20260507160432 | 55 | 191 | 5.0 | 18.0 | 0.00 | 0.00 | 0.00 | 100 | 1011.3 |
| 20260507160330 | 54 | 226 | 7.0 | 18.0 | 0.00 | 0.00 | 0.00 | 100 | 1011.3 |
| 20260507160229 | 54 | 99 | 9.0 | 18.0 | 0.00 | 0.00 | 0.00 | 100 | 1011.3 |
| 20260507160200 | 54 | 320 | 10.0 | 19.0 | 0.00 | 0.00 | 0.00 | 100 | 1011.3 |
| 20260507160037 | 54 | 257 | 10.0 | 19.0 | 0.00 | 0.00 | 0.00 | 100 | 1011.3 |
| 20260507155935 | 54 | 325 | 6.0 | 19.0 | 0.00 | 0.00 | 0.00 | 100 | 1011.3 |
| 20260507155837 | 54 | 332 | 10.0 | 20.0 | 0.00 | 0.00 | 0.00 | 100 | 1011.1 |
| 20260507155735 | 54 | 311 | 9.0 | 20.0 | 0.00 | 0.00 | 0.00 | 100 | 1011.1 |
| 20260507155634 | 53 | 295 | 7.0 | 20.0 | 0.00 | 0.00 | 0.00 | 100 | 1011.1 |
| 20260507155532 | 53 | 298 | 7.0 | 20.0 | 0.00 | 0.00 | 0.00 | 100 | 1011.1 |
| 20260507155430 | 53 | 253 | 10.0 | 20.0 | 0.00 | 0.00 | 0.00 | 100 | 1011.1 |
| 20260507155328 | 53 | 256 | 12.0 | 20.0 | 0.00 | 0.00 | 0.00 | 100 | 1011.1 |
| 20260507155226 | 53 | 136 | 7.0 | 21.0 | 0.00 | 0.00 | 0.00 | 100 | 1011.1 |
| 20260507155149 | 53 | 284 | 14.0 | 21.0 | 0.00 | 0.00 | 0.00 | 100 | 1011.1 |
| 20260507155029 | 53 | 320 | 15.0 | 21.0 | 0.00 | 0.00 | 0.00 | 100 | 1011.1 |
| 20260507154929 | 53 | 287 | 10.0 | 21.0 | 0.00 | 0.00 | 0.00 | 100 | 1011.1 |
| 20260507154827 | 53 | 176 | 12.0 | 21.0 | 0.00 | 0.00 | 0.00 | 100 | 1011.1 |
| 20260507154725 | 53 | 143 | 13.0 | 21.0 | 0.00 | 0.00 | 0.00 | 100 | 1011.1 |
| 20260507154658 | 53 | 319 | 11.0 | 21.0 | 0.00 | 0.00 | 0.00 | 100 | 1011.1 |
| 20260507154536 | 53 | 267 | 11.0 | 21.0 | 0.00 | 0.00 | 0.00 | 100 | 1011.1 |
| 20260507154439 | 53 | 319 | 14.0 | 21.0 | 0.00 | 0.00 | 0.00 | 100 | 1011.1 |
| 20260507154338 | 53 | 291 | 9.0 | 20.0 | 0.00 | 0.00 | 0.00 | 100 | 1011.2 |
| 20260507154236 | 53 | 272 | 13.0 | 20.0 | 0.00 | 0.00 | 0.00 | 100 | 1011.2 |
| 20260507154135 | 53 | 150 | 14.0 | 20.0 | 0.00 | 0.00 | 0.00 | 100 | 1011.2 |
| 20260507154033 | 53 | 323 | 11.0 | 20.0 | 0.00 | 0.00 | 0.00 | 100 | 1011.2 |
| 20260507153935 | 53 | 172 | 10.0 | 20.0 | 0.00 | 0.00 | 0.00 | 100 | 1011.2 |
| 20260507153834 | 53 | 272 | 13.0 | 20.0 | 0.00 | 0.00 | 0.00 | 100 | 1011.2 |
| 20260507153736 | 53 | 257 | 8.0 | 17.0 | 0.00 | 0.00 | 0.00 | 100 | 1011.2 |
| 20260507153655 | 53 | 320 | 5.0 | 17.0 | 0.00 | 0.00 | 0.00 | 100 | 1011.2 |
| 20260507153531 | 53 | 305 | 7.0 | 17.0 | 0.00 | 0.00 | 0.00 | 100 | 1011.2 |
| 20260507153450 | 53 | 205 | 7.0 | 17.0 | 0.00 | 0.00 | 0.00 | 100 | 1011.2 |
| 20260507153328 | 53 | 294 | 9.0 | 17.0 | 0.00 | 0.00 | 0.00 | 100 | 1011.2 |
| 20260507153237 | 53 | 305 | 10.0 | 17.0 | 0.00 | 0.00 | 0.00 | 100 | 1011.2 |
| 20260507153147 | 53 | 339 | 9.0 | 17.0 | 0.00 | 0.00 | 0.00 | 100 | 1011.2 |
| 20260507153024 | 53 | 329 | 7.0 | 17.0 | 0.00 | 0.00 | 0.00 | 100 | 1011.2 |
| 20260507152927 | 53 | 325 | 10.0 | 17.0 | 0.00 | 0.00 | 0.00 | 100 | 1011.2 |
| 20260507152826 | 53 | 304 | 11.0 | 16.0 | 0.00 | 0.00 | 0.00 | 100 | 1011.2 |
| 20260507152724 | 53 | 315 | 10.0 | 18.0 | 0.00 | 0.00 | 0.00 | 100 | 1011.2 |
| 20260507152643 | 53 | 306 | 11.0 | 18.0 | 0.00 | 0.00 | 0.00 | 100 | 1011.2 |
| 20260507152541 | 53 | 308 | 9.0 | 18.0 | 0.00 | 0.00 | 0.00 | 100 | 1011.2 |
| 20260507152440 | 53 | 217 | 10.0 | 18.0 | 0.00 | 0.00 | 0.00 | 100 | 1011.2 |
| 20260507152337 | 53 | 213 | 9.0 | 18.0 | 0.00 | 0.00 | 0.00 | 100 | 1011.2 |
| 20260507152240 | 52 | 329 | 8.0 | 18.0 | 0.00 | 0.00 | 0.00 | 100 | 1011.2 |
| 20260507152138 | 52 | 308 | 7.0 | 18.0 | 0.00 | 0.00 | 0.00 | 100 | 1011.2 |
| 20260507152036 | 52 | 320 | 11.0 | 18.0 | 0.00 | 0.00 | 0.00 | 100 | 1011.2 |
| 20260507151934 | 52 | 320 | 12.0 | 18.0 | 0.00 | 0.00 | 0.00 | 100 | 1011.2 |
| 20260507151833 | 52 | 315 | 5.0 | 18.0 | 0.00 | 0.00 | 0.00 | 100 | 1011.2 |
| 20260507151752 | 52 | 332 | 9.0 | 22.0 | 0.00 | 0.00 | 0.00 | 100 | 1011.2 |
| 20260507151721 | 52 | 328 | 9.0 | 22.0 | 0.00 | 0.00 | 0.00 | 100 | 1011.2 |
| 20260507151537 | 52 | 205 | 7.0 | 22.0 | 0.00 | 0.00 | 0.00 | 100 | 1011.2 |
| 20260507151440 | 52 | 299 | 7.0 | 22.0 | 0.00 | 0.00 | 0.00 | 100 | 1011.2 |
| 20260507151338 | 52 | 152 | 11.0 | 22.0 | 0.00 | 0.00 | 0.00 | 100 | 1011.2 |
| 20260507151300 | 52 | 312 | 8.0 | 22.0 | 0.00 | 0.00 | 0.00 | 100 | 1011.2 |
| 20260507151138 | 52 | 328 | 10.0 | 22.0 | 0.00 | 0.00 | 0.00 | 100 | 1011.2 |
| 20260507151056 | 52 | 322 | 12.0 | 22.0 | 0.00 | 0.00 | 0.00 | 100 | 1011.2 |
| 20260507150954 | 52 | 326 | 15.0 | 22.0 | 0.00 | 0.00 | 0.00 | 100 | 1011.2 |
| 20260507150831 | 52 | 329 | 9.0 | 17.0 | 0.00 | 0.00 | 0.00 | 100 | 1011.2 |
| 20260507150729 | 52 | 328 | 6.0 | 17.0 | 0.00 | 0.00 | 0.00 | 100 | 1011.2 |
| 20260507150632 | 52 | 299 | 4.0 | 17.0 | 0.00 | 0.00 | 0.00 | 100 | 1011.2 |
| 20260507150530 | 51 | 330 | 7.0 | 17.0 | 0.00 | 0.00 | 0.00 | 100 | 1011.2 |
| 20260507150427 | 51 | 336 | 9.0 | 17.0 | 0.00 | 0.00 | 0.00 | 100 | 1011.2 |
| 20260507150327 | 51 | 332 | 7.0 | 17.0 | 0.00 | 0.00 | 0.00 | 100 | 1011.2 |
| 20260507150237 | 51 | 332 | 11.0 | 17.0 | 0.00 | 0.00 | 0.00 | 100 | 1011.2 |
| 20260507150149 | 52 | 209 | 11.0 | 17.0 | 0.00 | 0.00 | 0.00 | 100 | 1011.2 |
| 20260507150025 | 51 | 289 | 12.0 | 16.0 | 0.00 | 0.00 | 0.00 | 100 | 1011.2 |
| 20260507145949 | 51 | 308 | 9.0 | 16.0 | 0.00 | 0.00 | 0.00 | 100 | 1011.2 |
| 20260507145826 | 51 | 306 | 12.0 | 19.0 | 0.00 | 0.00 | 0.00 | 100 | 1011.2 |
| 20260507145725 | 51 | 301 | 12.0 | 19.0 | 0.00 | 0.00 | 0.00 | 100 | 1011.2 |
| 20260507145624 | 51 | 313 | 6.0 | 19.0 | 0.00 | 0.00 | 0.00 | 100 | 1011.2 |
| 20260507145543 | 51 | 329 | 10.0 | 19.0 | 0.00 | 0.00 | 0.00 | 100 | 1011.2 |
| 20260507145440 | 51 | 298 | 11.0 | 19.0 | 0.00 | 0.00 | 0.00 | 100 | 1011.2 |
| 20260507145339 | 51 | 295 | 8.0 | 19.0 | 0.00 | 0.00 | 0.00 | 100 | 1011.2 |
| 20260507145241 | 51 | 316 | 8.0 | 19.0 | 0.00 | 0.00 | 0.00 | 100 | 1011.2 |
| 20260507145140 | 51 | 333 | 9.0 | 19.0 | 0.00 | 0.00 | 0.00 | 100 | 1011.2 |
| 20260507145037 | 51 | 246 | 11.0 | 19.0 | 0.00 | 0.00 | 0.00 | 100 | 1011.2 |
| 20260507144935 | 51 | 285 | 12.0 | 19.0 | 0.00 | 0.00 | 0.00 | 100 | 1011.2 |
| 20260507144834 | 51 | 240 | 13.0 | 19.0 | 0.00 | 0.00 | 0.00 | 100 | 1011.2 |
| 20260507144733 | 51 | 241 | 12.0 | 17.0 | 0.00 | 0.00 | 0.00 | 100 | 1011.2 |
| 20260507144702 | 51 | 278 | 12.0 | 16.0 | 0.00 | 0.00 | 0.00 | 100 | 1011.2 |
| 20260507144541 | 51 | 313 | 12.0 | 16.0 | 0.00 | 0.00 | 0.00 | 100 | 1011.2 |
| 20260507144443 | 51 | 288 | 12.0 | 15.0 | 0.00 | 0.00 | 0.00 | 100 | 1011.2 |
| 20260507144342 | 51 | 330 | 10.0 | 19.0 | 0.00 | 0.00 | 0.00 | 100 | 1011.1 |
| 20260507144241 | 51 | 220 | 8.0 | 20.0 | 0.00 | 0.00 | 0.00 | 100 | 1011.1 |
| 20260507144139 | 51 | 302 | 10.0 | 20.0 | 0.00 | 0.00 | 0.00 | 100 | 1011.1 |
| 20260507144038 | 51 | 294 | 9.0 | 20.0 | 0.00 | 0.00 | 0.00 | 100 | 1011.1 |
| 20260507143938 | 51 | 284 | 11.0 | 20.0 | 0.00 | 0.00 | 0.00 | 100 | 1011.1 |
| 20260507143857 | 51 | 309 | 8.0 | 20.0 | 0.00 | 0.00 | 0.00 | 100 | 1011.1 |
| 20260507143738 | 51 | 58 | 5.0 | 20.0 | 0.00 | 0.00 | 0.00 | 100 | 1011.1 |
| 20260507143637 | 51 | 332 | 7.0 | 20.0 | 0.00 | 0.00 | 0.00 | 100 | 1011.1 |
| 20260507143534 | 51 | 330 | 13.0 | 20.0 | 0.00 | 0.00 | 0.00 | 100 | 1011.1 |
| 20260507143433 | 51 | 236 | 15.0 | 20.0 | 0.00 | 0.00 | 0.00 | 100 | 1011.1 |
| 20260507143332 | 51 | 332 | 9.0 | 16.0 | 0.00 | 0.00 | 0.00 | 100 | 1011.1 |
| 20260507143251 | 51 | 289 | 9.0 | 16.0 | 0.00 | 0.00 | 0.00 | 100 | 1011.1 |
| 20260507143202 | 51 | 323 | 9.0 | 16.0 | 0.00 | 0.00 | 0.00 | 100 | 1011.1 |
| 20260507143039 | 51 | 333 | 10.0 | 16.0 | 0.00 | 0.00 | 0.00 | 100 | 1011.1 |
| 20260507142942 | 51 | 337 | 7.0 | 17.0 | 0.00 | 0.00 | 0.00 | 100 | 1011.1 |
| 20260507142841 | 51 | 330 | 9.0 | 17.0 | 0.00 | 0.00 | 0.00 | 100 | 1010.8 |
| 20260507142739 | 51 | 316 | 9.0 | 17.0 | 0.00 | 0.00 | 0.00 | 100 | 1010.8 |
| 20260507142637 | 51 | 330 | 7.0 | 17.0 | 0.00 | 0.00 | 0.00 | 100 | 1010.8 |
| 20260507142536 | 51 | 326 | 6.0 | 17.0 | 0.00 | 0.00 | 0.00 | 100 | 1010.8 |
| 20260507142454 | 51 | 320 | 5.0 | 17.0 | 0.00 | 0.00 | 0.00 | 100 | 1010.8 |
| 20260507142331 | 51 | 167 | 10.0 | 17.0 | 0.00 | 0.00 | 0.00 | 100 | 1010.8 |
| 20260507142234 | 51 | 328 | 10.0 | 17.0 | 0.00 | 0.00 | 0.00 | 100 | 1010.8 |
| 20260507142132 | 51 | 284 | 10.0 | 19.0 | 0.00 | 0.00 | 0.00 | 100 | 1010.8 |
| 20260507142032 | 51 | 295 | 7.0 | 19.0 | 0.00 | 0.00 | 0.00 | 100 | 1010.8 |
| 20260507141951 | 51 | 261 | 10.0 | 19.0 | 0.00 | 0.00 | 0.00 | 100 | 1010.8 |
| 20260507141828 | 51 | 296 | 9.0 | 19.0 | 0.00 | 0.00 | 0.00 | 100 | 1010.8 |
| 20260507141727 | 51 | 230 | 9.0 | 19.0 | 0.00 | 0.00 | 0.00 | 100 | 1010.8 |
| 20260507141656 | 51 | 333 | 9.0 | 19.0 | 0.00 | 0.00 | 0.00 | 100 | 1010.8 |
| 20260507141538 | 51 | 250 | 10.0 | 19.0 | 0.00 | 0.00 | 0.00 | 100 | 1010.8 |
| 20260507141435 | 51 | 322 | 12.0 | 19.0 | 0.00 | 0.00 | 0.00 | 100 | 1010.8 |
| 20260507141334 | 51 | 265 | 13.0 | 19.0 | 0.00 | 0.00 | 0.00 | 100 | 1010.7 |
| 20260507141233 | 51 | 318 | 8.0 | 19.0 | 0.00 | 0.00 | 0.00 | 100 | 1010.7 |
| 20260507141130 | 51 | 305 | 10.0 | 19.0 | 0.00 | 0.00 | 0.00 | 100 | 1010.7 |
| 20260507141029 | 51 | 248 | 10.0 | 19.0 | 0.00 | 0.00 | 0.00 | 100 | 1010.7 |
| 20260507140927 | 50 | 288 | 8.0 | 19.0 | 0.00 | 0.00 | 0.00 | 100 | 1010.7 |
| 20260507140830 | 50 | 291 | 9.0 | 19.0 | 0.00 | 0.00 | 0.00 | 100 | 1010.7 |
| 20260507140729 | 50 | 243 | 8.0 | 19.0 | 0.00 | 0.00 | 0.00 | 100 | 1010.7 |
| 20260507140628 | 50 | 333 | 9.0 | 19.0 | 0.00 | 0.00 | 0.00 | 100 | 1010.7 |
| 20260507140530 | 50 | 236 | 10.0 | 19.0 | 0.00 | 0.00 | 0.00 | 100 | 1010.7 |
| 20260507140428 | 50 | 193 | 13.0 | 19.0 | 0.00 | 0.00 | 0.00 | 100 | 1010.7 |
| 20260507140325 | 51 | 328 | 14.0 | 20.0 | 0.00 | 0.00 | 0.00 | 100 | 1010.7 |
| 20260507140227 | 50 | 301 | 7.0 | 20.0 | 0.00 | 0.00 | 0.00 | 100 | 1010.7 |
| 20260507140158 | 50 | 328 | 8.0 | 21.0 | 0.00 | 0.00 | 0.00 | 100 | 1010.7 |
| 20260507140038 | 50 | 270 | 12.0 | 21.0 | 0.00 | 0.00 | 0.00 | 100 | 1010.7 |
| 20260507135938 | 50 | 210 | 12.0 | 21.0 | 0.00 | 0.00 | 0.00 | 100 | 1010.7 |
| 20260507135836 | 51 | 326 | 12.0 | 21.0 | 0.00 | 0.00 | 0.00 | 100 | 1010.6 |
| 20260507135735 | 50 | 263 | 12.0 | 21.0 | 0.00 | 0.00 | 0.00 | 100 | 1010.6 |
| 20260507135632 | 51 | 224 | 11.0 | 21.0 | 0.00 | 0.00 | 0.00 | 100 | 1010.6 |
| 20260507135551 | 51 | 254 | 14.0 | 21.0 | 0.00 | 0.00 | 0.00 | 100 | 1010.6 |
| 20260507135432 | 51 | 220 | 15.0 | 21.0 | 0.00 | 0.00 | 0.00 | 100 | 1010.6 |
| 20260507135330 | 51 | 248 | 14.0 | 21.0 | 0.00 | 0.00 | 0.00 | 100 | 1010.6 |
| 20260507135232 | 51 | 282 | 9.0 | 21.0 | 0.00 | 0.00 | 0.00 | 100 | 1010.6 |
| 20260507135130 | 51 | 288 | 12.0 | 20.0 | 0.00 | 0.00 | 0.00 | 100 | 1010.6 |
| 20260507135029 | 51 | 295 | 13.0 | 20.0 | 0.00 | 0.00 | 0.00 | 100 | 1010.6 |
| 20260507134926 | 51 | 285 | 11.0 | 20.0 | 0.00 | 0.00 | 0.00 | 100 | 1010.6 |
| 20260507134825 | 51 | 304 | 14.0 | 20.0 | 0.00 | 0.00 | 0.00 | 100 | 1010.6 |
| 20260507134736 | 51 | 326 | 10.0 | 19.0 | 0.00 | 0.00 | 0.00 | 100 | 1010.6 |
| 20260507134646 | 51 | 333 | 11.0 | 19.0 | 0.00 | 0.00 | 0.00 | 100 | 1010.6 |
| 20260507134524 | 51 | 284 | 11.0 | 19.0 | 0.00 | 0.00 | 0.00 | 100 | 1010.6 |
| 20260507134442 | 51 | 301 | 10.0 | 19.0 | 0.00 | 0.00 | 0.00 | 100 | 1010.6 |
| 20260507134341 | 51 | 80 | 13.0 | 19.0 | 0.00 | 0.00 | 0.00 | 100 | 1010.2 |
| 20260507134238 | 51 | 275 | 10.0 | 17.0 | 0.00 | 0.00 | 0.00 | 100 | 1010.2 |
| 20260507134138 | 51 | 24 | 9.0 | 17.0 | 0.00 | 0.00 | 0.00 | 100 | 1010.2 |
| 20260507134056 | 51 | 330 | 12.0 | 17.0 | 0.00 | 0.00 | 0.00 | 100 | 1010.2 |
| 20260507133938 | 51 | 301 | 13.0 | 17.0 | 0.00 | 0.00 | 0.00 | 100 | 1010.2 |
| 20260507133836 | 51 | 329 | 11.0 | 17.0 | 0.00 | 0.00 | 0.00 | 100 | 1010.2 |
| 20260507133736 | 51 | 114 | 11.0 | 17.0 | 0.00 | 0.00 | 0.00 | 100 | 1010.2 |
| 20260507133654 | 51 | 329 | 11.0 | 19.0 | 0.00 | 0.00 | 0.00 | 100 | 1010.2 |
| 20260507133532 | 51 | 309 | 11.0 | 20.0 | 0.00 | 0.00 | 0.00 | 100 | 1010.2 |
| 20260507133432 | 51 | 306 | 14.0 | 20.0 | 0.00 | 0.00 | 0.00 | 100 | 1010.2 |
| 20260507133350 | 51 | 312 | 13.0 | 20.0 | 0.00 | 0.00 | 0.00 | 100 | 1010.2 |
| 20260507133232 | 51 | 248 | 11.0 | 20.0 | 0.00 | 0.00 | 0.00 | 100 | 1010.2 |
| 20260507133202 | 51 | 136 | 8.0 | 20.0 | 0.00 | 0.00 | 0.00 | 100 | 1010.2 |
| 20260507133039 | 51 | 213 | 10.0 | 20.0 | 0.00 | 0.00 | 0.00 | 100 | 1010.2 |
| 20260507132938 | 51 | 330 | 12.0 | 20.0 | 0.00 | 0.00 | 0.00 | 100 | 1010.2 |
| 20260507132837 | 51 | 323 | 13.0 | 20.0 | 0.00 | 0.00 | 0.00 | 100 | 1010.1 |
| 20260507132735 | 51 | 332 | 16.0 | 20.0 | 0.00 | 0.00 | 0.00 | 100 | 1010.1 |
| 20260507132635 | 51 | 312 | 14.0 | 20.0 | 0.00 | 0.00 | 0.00 | 100 | 1010.1 |
| 20260507132537 | 51 | 289 | 11.0 | 20.0 | 0.00 | 0.00 | 0.00 | 100 | 1010.1 |
| 20260507132435 | 51 | 308 | 12.0 | 20.0 | 0.00 | 0.00 | 0.00 | 100 | 1010.1 |
| 20260507132333 | 51 | 305 | 17.0 | 20.0 | 0.00 | 0.00 | 0.00 | 100 | 1010.1 |
| 20260507132232 | 51 | 328 | 12.0 | 20.0 | 0.00 | 0.00 | 0.00 | 100 | 1010.1 |
| 20260507132130 | 51 | 318 | 14.0 | 19.0 | 0.00 | 0.00 | 0.00 | 100 | 1010.1 |
| 20260507132029 | 51 | 302 | 13.0 | 19.0 | 0.00 | 0.00 | 0.00 | 100 | 1010.1 |
| 20260507131947 | 51 | 294 | 12.0 | 19.0 | 0.00 | 0.00 | 0.00 | 100 | 1010.1 |
| 20260507131831 | 51 | 299 | 11.0 | 19.0 | 0.00 | 0.00 | 0.00 | 100 | 1010.1 |
| 20260507131729 | 51 | 312 | 14.0 | 19.0 | 0.00 | 0.00 | 0.00 | 100 | 1010.1 |
| 20260507131659 | 51 | 326 | 14.0 | 19.0 | 0.00 | 0.00 | 0.00 | 100 | 1010.1 |
| 20260507131537 | 51 | 335 | 14.0 | 19.0 | 0.00 | 0.00 | 0.00 | 100 | 1010.1 |
| 20260507131434 | 51 | 251 | 12.0 | 19.0 | 0.00 | 0.00 | 0.00 | 100 | 1010.1 |
| 20260507131332 | 51 | 313 | 11.0 | 19.0 | 0.00 | 0.00 | 0.00 | 100 | 1009.9 |
| 20260507131231 | 51 | 305 | 12.0 | 19.0 | 0.00 | 0.00 | 0.00 | 100 | 1009.9 |
| 20260507131149 | 51 | 305 | 8.0 | 19.0 | 0.00 | 0.00 | 0.00 | 100 | 1009.9 |
| 20260507131034 | 51 | 315 | 11.0 | 19.0 | 0.00 | 0.00 | 0.00 | 100 | 1009.9 |
| 20260507130952 | 51 | 323 | 11.0 | 19.0 | 0.00 | 0.00 | 0.00 | 100 | 1009.9 |
| 20260507130830 | 51 | 304 | 11.0 | 19.0 | 0.00 | 0.00 | 0.00 | 100 | 1009.9 |
| 20260507130728 | 51 | 329 | 11.0 | 19.0 | 0.00 | 0.00 | 0.00 | 100 | 1009.9 |
| 20260507130647 | 51 | 284 | 13.0 | 19.0 | 0.00 | 0.00 | 0.00 | 100 | 1009.9 |
| 20260507130545 | 51 | 356 | 13.0 | 19.0 | 0.00 | 0.00 | 0.00 | 100 | 1009.9 |
| 20260507130503 | 51 | 274 | 13.0 | 19.0 | 0.00 | 0.00 | 0.00 | 100 | 1009.9 |
| 20260507130340 | 51 | 280 | 13.0 | 19.0 | 0.00 | 0.00 | 0.00 | 100 | 1009.9 |
| 20260507130237 | 51 | 254 | 12.0 | 19.0 | 0.00 | 0.00 | 0.00 | 100 | 1009.9 |
| 20260507130147 | 51 | 329 | 14.0 | 19.0 | 0.00 | 0.00 | 0.00 | 100 | 1009.9 |
| 20260507130025 | 51 | 325 | 16.0 | 20.0 | 0.00 | 0.00 | 0.00 | 100 | 1009.9 |
| 20260507125947 | 51 | 328 | 12.0 | 20.0 | 0.00 | 0.00 | 0.00 | 100 | 1009.9 |
| 20260507125825 | 51 | 332 | 11.0 | 20.0 | 0.00 | 0.00 | 0.00 | 100 | 1010.1 |
| 20260507125724 | 50 | 315 | 11.0 | 20.0 | 0.00 | 0.00 | 0.00 | 100 | 1010.1 |
| 20260507125643 | 51 | 332 | 10.0 | 20.0 | 0.00 | 0.00 | 0.00 | 100 | 1010.1 |
| 20260507125541 | 50 | 332 | 12.0 | 20.0 | 0.00 | 0.00 | 0.00 | 100 | 1010.1 |
| 20260507125443 | 50 | 330 | 13.0 | 20.0 | 0.00 | 0.00 | 0.00 | 100 | 1010.1 |
| 20260507125342 | 50 | 319 | 12.0 | 20.0 | 0.00 | 0.00 | 0.00 | 100 | 1010.1 |
| 20260507125300 | 50 | 328 | 15.0 | 20.0 | 0.00 | 0.00 | 0.00 | 100 | 1010.1 |
| 20260507125158 | 51 | 329 | 17.0 | 20.0 | 0.00 | 0.00 | 0.00 | 100 | 1010.1 |
| 20260507125055 | 50 | 237 | 11.0 | 20.0 | 0.00 | 0.00 | 0.00 | 100 | 1010.1 |
| 20260507124933 | 50 | 315 | 12.0 | 20.0 | 0.00 | 0.00 | 0.00 | 100 | 1010.1 |
| 20260507124831 | 51 | 287 | 13.0 | 20.0 | 0.00 | 0.00 | 0.00 | 100 | 1010.1 |
| 20260507124741 | 51 | 315 | 12.0 | 20.0 | 0.00 | 0.00 | 0.00 | 100 | 1010.1 |
| 20260507124651 | 51 | 319 | 12.0 | 20.0 | 0.00 | 0.00 | 0.00 | 100 | 1010.1 |
| 20260507124534 | 51 | 278 | 15.0 | 20.0 | 0.00 | 0.00 | 0.00 | 100 | 1010.1 |
| 20260507124433 | 51 | 328 | 15.0 | 20.0 | 0.00 | 0.00 | 0.00 | 100 | 1010.1 |
| 20260507124332 | 51 | 313 | 11.0 | 19.0 | 0.00 | 0.00 | 0.00 | 100 | 1009.7 |
| 20260507124230 | 51 | 316 | 13.0 | 19.0 | 0.00 | 0.00 | 0.00 | 100 | 1009.7 |
| 20260507124132 | 51 | 319 | 14.0 | 19.0 | 0.00 | 0.00 | 0.00 | 100 | 1009.7 |
| 20260507124029 | 51 | 291 | 12.0 | 19.0 | 0.00 | 0.00 | 0.00 | 100 | 1009.7 |
| 20260507123929 | 51 | 260 | 9.0 | 19.0 | 0.00 | 0.00 | 0.00 | 100 | 1009.7 |
| 20260507123832 | 51 | 267 | 13.0 | 19.0 | 0.00 | 0.00 | 0.00 | 100 | 1009.7 |
| 20260507123732 | 51 | 208 | 14.0 | 20.0 | 0.00 | 0.00 | 0.00 | 100 | 1009.7 |
| 20260507123630 | 51 | 282 | 10.0 | 20.0 | 0.00 | 0.00 | 0.00 | 100 | 1009.7 |
| 20260507123531 | 51 | 329 | 9.0 | 20.0 | 0.00 | 0.00 | 0.00 | 100 | 1009.7 |
| 20260507123430 | 51 | 237 | 11.0 | 20.0 | 0.00 | 0.00 | 0.00 | 100 | 1009.7 |
| 20260507123328 | 51 | 270 | 12.0 | 20.0 | 0.00 | 0.00 | 0.00 | 100 | 1009.7 |
| 20260507123242 | 51 | 285 | 9.0 | 20.0 | 0.00 | 0.00 | 0.00 | 100 | 1009.7 |
| 20260507123152 | 51 | 312 | 12.0 | 20.0 | 0.00 | 0.00 | 0.00 | 100 | 1009.7 |
| 20260507123029 | 51 | 253 | 11.0 | 20.0 | 0.00 | 0.00 | 0.00 | 100 | 1009.7 |
| 20260507122928 | 51 | 264 | 13.0 | 21.0 | 0.00 | 0.00 | 0.00 | 100 | 1009.7 |
| 20260507122827 | 51 | 188 | 17.0 | 21.0 | 0.00 | 0.00 | 0.00 | 100 | 1009.7 |
| 20260507122729 | 51 | 285 | 15.0 | 21.0 | 0.00 | 0.00 | 0.00 | 100 | 1009.7 |
| 20260507122629 | 51 | 208 | 13.0 | 21.0 | 0.00 | 0.00 | 0.00 | 100 | 1009.7 |
| 20260507122531 | 51 | 320 | 15.0 | 21.0 | 0.00 | 0.00 | 0.00 | 100 | 1009.7 |
| 20260507122429 | 51 | 308 | 12.0 | 21.0 | 0.00 | 0.00 | 0.00 | 100 | 1009.7 |
| 20260507122328 | 51 | 326 | 14.0 | 21.0 | 0.00 | 0.00 | 0.00 | 100 | 1009.7 |
| 20260507122250 | 51 | 261 | 16.0 | 21.0 | 0.00 | 0.00 | 0.00 | 100 | 1009.7 |
| 20260507122149 | 51 | 312 | 15.0 | 21.0 | 0.00 | 0.00 | 0.00 | 100 | 1009.7 |
| 20260507122026 | 51 | 271 | 16.0 | 20.0 | 0.00 | 0.00 | 0.00 | 100 | 1009.7 |
| 20260507121945 | 51 | 236 | 12.0 | 20.0 | 0.00 | 0.00 | 0.00 | 100 | 1009.7 |
| 20260507121824 | 51 | 282 | 13.0 | 20.0 | 0.00 | 0.00 | 0.00 | 100 | 1009.7 |
| 20260507121728 | 51 | 326 | 13.0 | 20.0 | 0.00 | 0.00 | 0.00 | 100 | 1009.7 |
| 20260507121658 | 51 | 298 | 13.0 | 20.0 | 0.00 | 0.00 | 0.00 | 100 | 1009.7 |
| 20260507121535 | 51 | 320 | 9.0 | 20.0 | 0.00 | 0.00 | 0.00 | 100 | 1009.7 |
| 20260507121436 | 51 | 237 | 11.0 | 20.0 | 0.00 | 0.00 | 0.00 | 100 | 1009.7 |
| 20260507121334 | 51 | 280 | 15.0 | 20.0 | 0.00 | 0.00 | 0.00 | 100 | 1009.3 |
| 20260507121254 | 51 | 281 | 13.0 | 20.0 | 0.00 | 0.00 | 0.00 | 99 | 1009.3 |
| 20260507121152 | 51 | 328 | 13.0 | 20.0 | 0.00 | 0.00 | 0.00 | 99 | 1009.3 |
| 20260507121030 | 51 | 233 | 13.0 | 20.0 | 0.00 | 0.00 | 0.00 | 99 | 1009.3 |
| 20260507120932 | 51 | 220 | 14.0 | 20.0 | 0.00 | 0.00 | 0.00 | 99 | 1009.3 |
| 20260507120853 | 51 | 104 | 10.0 | 20.0 | 0.00 | 0.00 | 0.00 | 99 | 1009.3 |
| 20260507120750 | 51 | 312 | 14.0 | 20.0 | 0.00 | 0.00 | 0.00 | 99 | 1009.3 |
| 20260507120628 | 51 | 299 | 13.0 | 20.0 | 0.00 | 0.00 | 0.00 | 99 | 1009.3 |
| 20260507120526 | 51 | 152 | 13.0 | 20.0 | 0.00 | 0.00 | 0.00 | 99 | 1009.3 |
| 20260507120444 | 51 | 246 | 13.0 | 21.0 | 0.00 | 0.00 | 0.00 | 99 | 1009.3 |
| 20260507120343 | 51 | 305 | 13.0 | 21.0 | 0.00 | 0.00 | 0.00 | 99 | 1009.3 |
| 20260507120232 | 51 | 326 | 13.0 | 21.0 | 0.00 | 0.00 | 0.00 | 99 | 1009.3 |
| 20260507120147 | 51 | 274 | 11.0 | 21.0 | 0.00 | 0.00 | 0.00 | 99 | 1009.3 |
| 20260507120043 | 51 | 312 | 11.0 | 21.0 | 0.00 | 0.00 | 0.00 | 99 | 1009.3 |
| 20260507115942 | 51 | 233 | 14.0 | 21.0 | 0.00 | 0.00 | 0.00 | 99 | 1009.3 |
| 20260507115901 | 51 | 260 | 15.0 | 21.0 | 0.00 | 0.00 | 0.00 | 99 | 1009.0 |
| 20260507115738 | 51 | 247 | 13.0 | 21.0 | 0.00 | 0.00 | 0.00 | 99 | 1009.0 |
| 20260507115657 | 51 | 200 | 14.0 | 21.0 | 0.00 | 0.00 | 0.00 | 99 | 1009.0 |
| 20260507115535 | 51 | 299 | 13.0 | 20.0 | 0.00 | 0.00 | 0.00 | 99 | 1009.0 |
| 20260507115433 | 51 | 236 | 12.0 | 20.0 | 0.00 | 0.00 | 0.00 | 99 | 1009.0 |
| 20260507115337 | 51 | 176 | 12.0 | 20.0 | 0.00 | 0.00 | 0.00 | 99 | 1009.0 |
| 20260507115234 | 51 | 287 | 15.0 | 20.0 | 0.00 | 0.00 | 0.00 | 99 | 1009.0 |
| 20260507115133 | 51 | 294 | 12.0 | 20.0 | 0.00 | 0.00 | 0.00 | 99 | 1009.0 |
| 20260507115032 | 51 | 325 | 13.0 | 20.0 | 0.00 | 0.00 | 0.00 | 99 | 1009.0 |
| 20260507114930 | 51 | 278 | 16.0 | 20.0 | 0.00 | 0.00 | 0.00 | 99 | 1009.0 |
| 20260507114830 | 51 | 291 | 17.0 | 20.0 | 0.00 | 0.00 | 0.00 | 99 | 1009.0 |
| 20260507114738 | 51 | 309 | 13.0 | 20.0 | 0.00 | 0.00 | 0.00 | 99 | 1009.0 |
| 20260507114651 | 51 | 325 | 14.0 | 20.0 | 0.00 | 0.00 | 0.00 | 99 | 1009.0 |
| 20260507114530 | 51 | 229 | 14.0 | 20.0 | 0.00 | 0.00 | 0.00 | 99 | 1009.0 |
| 20260507114429 | 51 | 243 | 13.0 | 19.0 | 0.00 | 0.00 | 0.00 | 99 | 1009.0 |
| 20260507114348 | 51 | 316 | 12.0 | 19.0 | 0.00 | 0.00 | 0.00 | 99 | 1009.2 |
| 20260507114245 | 51 | 326 | 12.0 | 19.0 | 0.00 | 0.00 | 0.00 | 99 | 1009.2 |
| 20260507114144 | 51 | 332 | 12.0 | 19.0 | 0.00 | 0.00 | 0.00 | 99 | 1009.2 |
| 20260507114104 | 51 | 325 | 12.0 | 19.0 | 0.00 | 0.00 | 0.00 | 99 | 1009.2 |
| 20260507114001 | 51 | 264 | 12.0 | 19.0 | 0.00 | 0.00 | 0.00 | 99 | 1009.2 |
| 20260507113838 | 51 | 315 | 15.0 | 19.0 | 0.00 | 0.00 | 0.00 | 99 | 1009.2 |
| 20260507113741 | 51 | 328 | 13.0 | 19.0 | 0.00 | 0.00 | 0.00 | 99 | 1009.2 |
| 20260507113639 | 51 | 313 | 13.0 | 19.0 | 0.00 | 0.00 | 0.00 | 99 | 1009.2 |
| 20260507113539 | 51 | 216 | 14.0 | 19.0 | 0.00 | 0.00 | 0.00 | 99 | 1009.2 |
| 20260507113437 | 51 | 326 | 10.0 | 19.0 | 0.00 | 0.00 | 0.00 | 99 | 1009.2 |
| 20260507113335 | 51 | 301 | 13.0 | 19.0 | 0.00 | 0.00 | 0.00 | 99 | 1009.2 |
| 20260507113253 | 51 | 323 | 9.0 | 19.0 | 0.00 | 0.00 | 0.00 | 99 | 1009.2 |
| 20260507113225 | 51 | 320 | 11.0 | 20.0 | 0.00 | 0.00 | 0.00 | 99 | 1009.2 |
| 20260507113040 | 51 | 309 | 13.0 | 20.0 | 0.00 | 0.00 | 0.00 | 99 | 1009.2 |
| 20260507112924 | 51 | 203 | 12.0 | 20.0 | 0.00 | 0.00 | 0.00 | 99 | 1009.2 |
| 20260507112843 | 51 | 271 | 11.0 | 20.0 | 0.00 | 0.00 | 0.00 | 99 | 1008.7 |
| 20260507112801 | 51 | 326 | 12.0 | 20.0 | 0.00 | 0.00 | 0.00 | 99 | 1008.7 |
| 20260507112640 | 51 | 325 | 13.0 | 20.0 | 0.00 | 0.00 | 0.00 | 99 | 1008.7 |
| 20260507112539 | 51 | 282 | 14.0 | 20.0 | 0.00 | 0.00 | 0.00 | 99 | 1008.7 |
| 20260507112438 | 51 | 308 | 14.0 | 20.0 | 0.00 | 0.00 | 0.00 | 99 | 1008.7 |
| 20260507112340 | 51 | 280 | 13.0 | 20.0 | 0.00 | 0.00 | 0.00 | 99 | 1008.7 |
| 20260507112241 | 51 | 288 | 15.0 | 20.0 | 0.00 | 0.00 | 0.00 | 99 | 1008.7 |
| 20260507112140 | 51 | 288 | 13.0 | 21.0 | 0.00 | 0.00 | 0.00 | 99 | 1008.7 |
| 20260507112038 | 51 | 268 | 13.0 | 21.0 | 0.00 | 0.00 | 0.00 | 99 | 1008.7 |
| 20260507111937 | 51 | 294 | 12.0 | 21.0 | 0.00 | 0.00 | 0.00 | 99 | 1008.7 |
| 20260507111835 | 51 | 298 | 14.0 | 21.0 | 0.00 | 0.00 | 0.00 | 99 | 1008.7 |
| 20260507111735 | 51 | 278 | 14.0 | 21.0 | 0.00 | 0.00 | 0.00 | 99 | 1008.7 |
| 20260507111704 | 51 | 299 | 13.0 | 21.0 | 0.00 | 0.00 | 0.00 | 99 | 1008.7 |
| 20260507111526 | 51 | 291 | 13.0 | 21.0 | 0.00 | 0.00 | 0.00 | 99 | 1008.7 |
| 20260507111424 | 51 | 325 | 13.0 | 21.0 | 0.00 | 0.00 | 0.00 | 99 | 1008.7 |
| 20260507111343 | 51 | 309 | 14.0 | 21.0 | 0.00 | 0.00 | 0.00 | 99 | 1008.6 |
| 20260507111241 | 51 | 302 | 17.0 | 21.0 | 0.00 | 0.00 | 0.00 | 99 | 1008.6 |
| 20260507111139 | 51 | 287 | 13.0 | 19.0 | 0.00 | 0.00 | 0.00 | 99 | 1008.6 |
| 20260507111038 | 51 | 330 | 12.0 | 18.0 | 0.00 | 0.00 | 0.00 | 99 | 1008.6 |
| 20260507110957 | 51 | 330 | 13.0 | 18.0 | 0.00 | 0.00 | 0.00 | 99 | 1008.6 |
| 20260507110839 | 51 | 335 | 12.0 | 18.0 | 0.00 | 0.00 | 0.00 | 99 | 1008.6 |
| 20260507110737 | 51 | 299 | 12.0 | 18.0 | 0.00 | 0.00 | 0.00 | 99 | 1008.6 |
| 20260507110655 | 51 | 330 | 11.0 | 18.0 | 0.00 | 0.00 | 0.00 | 99 | 1008.6 |
| 20260507110533 | 51 | 322 | 12.0 | 18.0 | 0.00 | 0.00 | 0.00 | 99 | 1008.6 |
| 20260507110431 | 51 | 328 | 12.0 | 18.0 | 0.00 | 0.00 | 0.00 | 99 | 1008.6 |
| 20260507110331 | 51 | 315 | 13.0 | 19.0 | 0.00 | 0.00 | 0.00 | 99 | 1008.6 |
| 20260507110240 | 51 | 318 | 12.0 | 19.0 | 0.00 | 0.00 | 0.00 | 99 | 1008.6 |
| 20260507110150 | 51 | 332 | 12.0 | 19.0 | 0.00 | 0.00 | 0.00 | 99 | 1008.6 |
| 20260507110031 | 51 | 325 | 12.0 | 19.0 | 0.00 | 0.00 | 0.00 | 99 | 1008.6 |
| 20260507105949 | 51 | 332 | 11.0 | 19.0 | 0.00 | 0.00 | 0.00 | 99 | 1008.6 |
| 20260507105846 | 51 | 309 | 11.0 | 19.0 | 0.00 | 0.00 | 0.00 | 99 | 1008.3 |
| 20260507105724 | 51 | 302 | 12.0 | 19.0 | 0.00 | 0.00 | 0.00 | 99 | 1008.3 |
| 20260507105641 | 51 | 294 | 12.0 | 19.0 | 0.00 | 0.00 | 0.00 | 99 | 1008.3 |
| 20260507105540 | 51 | 332 | 13.0 | 19.0 | 0.00 | 0.00 | 0.00 | 99 | 1008.3 |
| 20260507105438 | 51 | 274 | 14.0 | 19.0 | 0.00 | 0.00 | 0.00 | 99 | 1008.3 |
| 20260507105358 | 51 | 322 | 15.0 | 19.0 | 0.00 | 0.00 | 0.00 | 98 | 1008.3 |
| 20260507105256 | 51 | 316 | 11.0 | 19.0 | 0.00 | 0.00 | 0.00 | 98 | 1008.3 |
| 20260507105158 | 51 | 326 | 13.0 | 19.0 | 0.00 | 0.00 | 0.00 | 99 | 1008.3 |
| 20260507105035 | 51 | 326 | 13.0 | 19.0 | 0.00 | 0.00 | 0.00 | 98 | 1008.3 |
| 20260507104935 | 51 | 308 | 12.0 | 18.0 | 0.00 | 0.00 | 0.00 | 99 | 1008.3 |
| 20260507104832 | 51 | 332 | 13.0 | 19.0 | 0.00 | 0.00 | 0.00 | 99 | 1008.3 |
| 20260507104743 | 51 | 329 | 14.0 | 19.0 | 0.00 | 0.00 | 0.00 | 98 | 1008.3 |
| 20260507104652 | 51 | 330 | 13.0 | 19.0 | 0.00 | 0.00 | 0.00 | 98 | 1008.3 |
| 20260507104550 | 51 | 328 | 11.0 | 19.0 | 0.00 | 0.00 | 0.00 | 99 | 1008.3 |
| 20260507104425 | 51 | 313 | 13.0 | 19.0 | 0.00 | 0.00 | 0.00 | 99 | 1008.3 |
| 20260507104347 | 51 | 304 | 13.0 | 19.0 | 0.00 | 0.00 | 0.00 | 99 | 1008.3 |
| 20260507104305 | 51 | 328 | 12.0 | 19.0 | 0.00 | 0.00 | 0.00 | 98 | 1008.3 |
| 20260507104202 | 51 | 326 | 12.0 | 20.0 | 0.00 | 0.00 | 0.00 | 99 | 1008.3 |
| 20260507104100 | 51 | 288 | 14.0 | 20.0 | 0.00 | 0.00 | 0.00 | 99 | 1008.3 |
| 20260507103938 | 51 | 265 | 14.0 | 20.0 | 0.00 | 0.00 | 0.00 | 99 | 1008.3 |
| 20260507103837 | 51 | 326 | 13.0 | 21.0 | 0.00 | 0.00 | 0.00 | 99 | 1008.3 |
| 20260507103735 | 51 | 325 | 11.0 | 21.0 | 0.00 | 0.00 | 0.00 | 99 | 1008.3 |
| 20260507103653 | 51 | 323 | 12.0 | 21.0 | 0.00 | 0.00 | 0.00 | 99 | 1008.3 |
| 20260507103531 | 51 | 330 | 14.0 | 21.0 | 0.00 | 0.00 | 0.00 | 99 | 1008.3 |
| 20260507103434 | 51 | 329 | 14.0 | 21.0 | 0.00 | 0.00 | 0.00 | 99 | 1008.3 |
| 20260507103334 | 51 | 216 | 15.0 | 21.0 | 0.00 | 0.00 | 0.00 | 99 | 1008.3 |
| 20260507103233 | 51 | 295 | 13.0 | 21.0 | 0.00 | 0.00 | 0.00 | 99 | 1008.3 |
| 20260507103203 | 51 | 281 | 13.0 | 21.0 | 0.00 | 0.00 | 0.00 | 99 | 1008.3 |
| 20260507103039 | 51 | 335 | 14.0 | 21.0 | 0.00 | 0.00 | 0.00 | 99 | 1008.3 |
| 20260507102938 | 51 | 312 | 15.0 | 21.0 | 0.00 | 0.00 | 0.00 | 98 | 1008.3 |
| 20260507102838 | 51 | 308 | 13.0 | 20.0 | 0.00 | 0.00 | 0.00 | 98 | 1008.2 |
| 20260507102756 | 51 | 308 | 12.0 | 20.0 | 0.00 | 0.00 | 0.00 | 98 | 1008.2 |
| 20260507102638 | 51 | 318 | 14.0 | 20.0 | 0.00 | 0.00 | 0.00 | 99 | 1008.2 |
| 20260507102536 | 51 | 347 | 13.0 | 20.0 | 0.00 | 0.00 | 0.00 | 99 | 1008.2 |
| 20260507102455 | 51 | 326 | 12.0 | 20.0 | 0.00 | 0.00 | 0.00 | 99 | 1008.2 |
| 20260507102353 | 51 | 292 | 15.0 | 20.0 | 0.00 | 0.00 | 0.00 | 98 | 1008.2 |
| 20260507102251 | 51 | 257 | 12.0 | 19.0 | 0.00 | 0.00 | 0.00 | 99 | 1008.2 |
| 20260507102128 | 51 | 263 | 10.0 | 19.0 | 0.00 | 0.00 | 0.00 | 99 | 1008.2 |
| 20260507102026 | 51 | 306 | 13.0 | 19.0 | 0.00 | 0.00 | 0.00 | 98 | 1008.2 |
| 20260507101924 | 51 | 291 | 11.0 | 21.0 | 0.00 | 0.00 | 0.00 | 98 | 1008.2 |
| 20260507101827 | 51 | 278 | 13.0 | 21.0 | 0.00 | 0.00 | 0.00 | 99 | 1008.2 |
| 20260507101725 | 51 | 323 | 13.0 | 21.0 | 0.00 | 0.00 | 0.00 | 99 | 1008.2 |
| 20260507101656 | 51 | 332 | 11.0 | 21.0 | 0.00 | 0.00 | 0.00 | 99 | 1008.2 |
| 20260507101533 | 51 | 333 | 13.0 | 21.0 | 0.00 | 0.00 | 0.00 | 98 | 1008.2 |
| 20260507101432 | 51 | 206 | 14.0 | 21.0 | 0.00 | 0.00 | 0.00 | 98 | 1008.2 |
| 20260507101331 | 51 | 322 | 13.0 | 21.0 | 0.00 | 0.00 | 0.00 | 98 | 1007.8 |
| 20260507101229 | 51 | 330 | 12.0 | 21.0 | 0.00 | 0.00 | 0.00 | 98 | 1007.8 |
| 20260507101133 | 51 | 277 | 14.0 | 21.0 | 0.00 | 0.00 | 0.00 | 98 | 1007.8 |
| 20260507101032 | 51 | 284 | 15.0 | 21.0 | 0.00 | 0.00 | 0.00 | 98 | 1007.8 |
| 20260507100950 | 51 | 271 | 15.0 | 21.0 | 0.00 | 0.00 | 0.00 | 98 | 1007.8 |
| 20260507100827 | 51 | 272 | 13.0 | 21.0 | 0.00 | 0.00 | 0.00 | 98 | 1007.8 |
| 20260507100725 | 51 | 243 | 12.0 | 21.0 | 0.00 | 0.00 | 0.00 | 98 | 1007.8 |
| 20260507100644 | 51 | 302 | 13.0 | 21.0 | 0.00 | 0.00 | 0.00 | 98 | 1007.8 |
| 20260507100542 | 51 | 329 | 15.0 | 21.0 | 0.00 | 0.00 | 0.00 | 98 | 1007.8 |
| 20260507100425 | 51 | 312 | 12.0 | 19.0 | 0.00 | 0.00 | 0.00 | 98 | 1007.8 |
| 20260507100324 | 51 | 333 | 14.0 | 19.0 | 0.00 | 0.00 | 0.00 | 98 | 1007.8 |
| 20260507100243 | 51 | 329 | 13.0 | 19.0 | 0.00 | 0.00 | 0.00 | 98 | 1007.8 |
| 20260507100215 | 51 | 291 | 15.0 | 21.0 | 0.00 | 0.00 | 0.00 | 98 | 1007.8 |
| 20260507100031 | 51 | 302 | 13.0 | 22.0 | 0.00 | 0.00 | 0.00 | 98 | 1007.8 |
| 20260507095929 | 51 | 253 | 14.0 | 22.0 | 0.00 | 0.00 | 0.00 | 98 | 1007.8 |
| 20260507095848 | 51 | 168 | 12.0 | 22.0 | 0.00 | 0.00 | 0.00 | 98 | 1008.5 |
| 20260507095746 | 51 | 332 | 13.0 | 22.0 | 0.00 | 0.00 | 0.00 | 98 | 1008.5 |
| 20260507095625 | 51 | 315 | 16.0 | 22.0 | 0.00 | 0.00 | 0.00 | 98 | 1008.5 |
| 20260507095526 | 51 | 265 | 13.0 | 22.0 | 0.00 | 0.00 | 0.00 | 98 | 1008.5 |
| 20260507095424 | 51 | 320 | 11.0 | 22.0 | 0.00 | 0.00 | 0.00 | 98 | 1008.5 |
| 20260507095342 | 51 | 291 | 14.0 | 22.0 | 0.00 | 0.00 | 0.00 | 98 | 1008.5 |
| 20260507095301 | 51 | 308 | 16.0 | 22.0 | 0.00 | 0.00 | 0.00 | 98 | 1008.5 |
| 20260507095142 | 51 | 308 | 12.0 | 20.0 | 0.00 | 0.00 | 0.00 | 98 | 1008.5 |
| 20260507095040 | 51 | 328 | 14.0 | 20.0 | 0.00 | 0.00 | 0.00 | 98 | 1008.5 |
| 20260507094938 | 51 | 318 | 13.0 | 21.0 | 0.00 | 0.00 | 0.00 | 98 | 1008.5 |
| 20260507094835 | 51 | 319 | 15.0 | 21.0 | 0.00 | 0.00 | 0.00 | 98 | 1008.5 |
| 20260507094738 | 51 | 301 | 11.0 | 21.0 | 0.00 | 0.00 | 0.00 | 98 | 1008.5 |
| 20260507094708 | 51 | 325 | 11.0 | 21.0 | 0.00 | 0.00 | 0.00 | 98 | 1008.5 |
| 20260507094524 | 52 | 325 | 14.0 | 21.0 | 0.00 | 0.00 | 0.00 | 98 | 1008.5 |
| 20260507094443 | 52 | 243 | 11.0 | 21.0 | 0.00 | 0.00 | 0.00 | 98 | 1008.5 |
| 20260507094340 | 52 | 212 | 12.0 | 21.0 | 0.00 | 0.00 | 0.00 | 98 | 1007.7 |
| 20260507094240 | 52 | 295 | 14.0 | 21.0 | 0.00 | 0.00 | 0.00 | 98 | 1007.7 |
| 20260507094137 | 52 | 316 | 15.0 | 21.0 | 0.00 | 0.00 | 0.00 | 98 | 1007.7 |
| 20260507094036 | 52 | 296 | 10.0 | 20.0 | 0.00 | 0.00 | 0.00 | 98 | 1007.7 |
| 20260507093939 | 52 | 233 | 13.0 | 24.0 | 0.00 | 0.00 | 0.00 | 98 | 1007.7 |
| 20260507093837 | 52 | 292 | 12.0 | 24.0 | 0.00 | 0.00 | 0.00 | 98 | 1007.7 |
| 20260507093735 | 52 | 247 | 12.0 | 24.0 | 0.00 | 0.00 | 0.00 | 98 | 1007.7 |
| 20260507093654 | 52 | 330 | 12.0 | 24.0 | 0.00 | 0.00 | 0.00 | 98 | 1007.7 |
| 20260507093531 | 52 | 304 | 14.0 | 24.0 | 0.00 | 0.00 | 0.00 | 98 | 1007.7 |
| 20260507093428 | 52 | 212 | 14.0 | 24.0 | 0.00 | 0.00 | 0.00 | 98 | 1007.7 |
| 20260507093348 | 52 | 191 | 14.0 | 24.0 | 0.00 | 0.00 | 0.00 | 98 | 1007.7 |
| 20260507093306 | 52 | 295 | 12.0 | 24.0 | 0.00 | 0.00 | 0.00 | 98 | 1007.7 |
| 20260507093202 | 52 | 306 | 16.0 | 24.0 | 0.00 | 0.00 | 0.00 | 98 | 1007.7 |
| 20260507093039 | 52 | 102 | 12.0 | 20.0 | 0.00 | 0.00 | 0.00 | 98 | 1007.7 |
| 20260507092938 | 52 | 264 | 13.0 | 20.0 | 0.00 | 0.00 | 0.00 | 98 | 1007.7 |
| 20260507092837 | 52 | 284 | 13.0 | 20.0 | 0.00 | 0.00 | 0.00 | 98 | 1008.2 |
| 20260507092735 | 52 | 313 | 13.0 | 20.0 | 0.00 | 0.00 | 0.00 | 98 | 1008.2 |
| 20260507092634 | 52 | 313 | 15.0 | 20.0 | 0.00 | 0.00 | 0.00 | 98 | 1008.2 |
| 20260507092533 | 52 | 226 | 14.0 | 20.0 | 0.00 | 0.00 | 0.00 | 98 | 1008.2 |
| 20260507092436 | 52 | 124 | 15.0 | 20.0 | 0.00 | 0.00 | 0.00 | 98 | 1008.2 |
| 20260507092334 | 52 | 234 | 13.0 | 19.0 | 0.00 | 0.00 | 0.00 | 98 | 1008.2 |
| 20260507092253 | 52 | 312 | 13.0 | 19.0 | 0.00 | 0.00 | 0.00 | 98 | 1008.2 |
| 20260507092129 | 52 | 326 | 15.0 | 19.0 | 0.00 | 0.00 | 0.00 | 98 | 1008.2 |
| 20260507092028 | 52 | 287 | 17.0 | 19.0 | 0.00 | 0.00 | 0.00 | 98 | 1008.2 |
| 20260507091947 | 52 | 305 | 14.0 | 18.0 | 0.00 | 0.00 | 0.00 | 98 | 1008.2 |
| 20260507091845 | 52 | 227 | 14.0 | 18.0 | 0.00 | 0.00 | 0.00 | 98 | 1008.2 |
| 20260507091733 | 52 | 289 | 12.0 | 18.0 | 0.00 | 0.00 | 0.00 | 98 | 1008.2 |
| 20260507091646 | 52 | 227 | 14.0 | 18.0 | 0.00 | 0.00 | 0.00 | 98 | 1008.2 |
| 20260507091524 | 52 | 246 | 11.0 | 17.0 | 0.00 | 0.00 | 0.00 | 98 | 1008.2 |
| 20260507091443 | 52 | 330 | 12.0 | 17.0 | 0.00 | 0.00 | 0.00 | 98 | 1008.2 |
| 20260507091340 | 52 | 274 | 14.0 | 17.0 | 0.00 | 0.00 | 0.00 | 98 | 1008.3 |
| 20260507091238 | 52 | 319 | 15.0 | 17.0 | 0.00 | 0.00 | 0.00 | 98 | 1008.3 |
| 20260507091158 | 52 | 274 | 12.0 | 17.0 | 0.00 | 0.00 | 0.00 | 98 | 1008.3 |
| 20260507091035 | 52 | 296 | 11.0 | 17.0 | 0.00 | 0.00 | 0.00 | 98 | 1008.3 |
| 20260507090934 | 52 | 270 | 9.0 | 17.0 | 0.00 | 0.00 | 0.00 | 98 | 1008.3 |
| 20260507090852 | 52 | 295 | 11.0 | 17.0 | 0.00 | 0.00 | 0.00 | 98 | 1008.3 |
| 20260507090733 | 52 | 236 | 11.0 | 17.0 | 0.00 | 0.00 | 0.00 | 98 | 1008.3 |
| 20260507090632 | 52 | 86 | 10.0 | 19.0 | 0.00 | 0.00 | 0.00 | 98 | 1008.3 |
| 20260507090530 | 52 | 299 | 10.0 | 19.0 | 0.00 | 0.00 | 0.00 | 98 | 1008.3 |
| 20260507090430 | 52 | 295 | 12.0 | 19.0 | 0.00 | 0.00 | 0.00 | 98 | 1008.3 |
| 20260507090329 | 52 | 318 | 11.0 | 19.0 | 0.00 | 0.00 | 0.00 | 98 | 1008.3 |
| 20260507090239 | 52 | 326 | 10.0 | 19.0 | 0.00 | 0.00 | 0.00 | 98 | 1008.3 |
| 20260507090150 | 52 | 329 | 10.0 | 19.0 | 0.00 | 0.00 | 0.00 | 98 | 1008.3 |
| 20260507090030 | 52 | 292 | 12.0 | 19.0 | 0.00 | 0.00 | 0.00 | 98 | 1008.3 |
| 20260507085929 | 52 | 299 | 13.0 | 19.0 | 0.00 | 0.00 | 0.00 | 98 | 1008.3 |
| 20260507085827 | 52 | 251 | 16.0 | 19.0 | 0.00 | 0.00 | 0.00 | 98 | 1008.0 |
| 20260507085727 | 52 | 328 | 12.0 | 17.0 | 0.00 | 0.00 | 0.00 | 98 | 1008.0 |
| 20260507085624 | 52 | 319 | 11.0 | 17.0 | 0.00 | 0.00 | 0.00 | 98 | 1008.0 |
| 20260507085544 | 52 | 284 | 10.0 | 17.0 | 0.00 | 0.00 | 0.00 | 98 | 1008.0 |
| 20260507085441 | 52 | 69 | 9.0 | 18.0 | 0.00 | 0.00 | 0.00 | 98 | 1008.0 |
| 20260507085404 | 52 | 294 | 9.0 | 18.0 | 0.00 | 0.00 | 0.00 | 98 | 1008.0 |
| 20260507085242 | 52 | 328 | 11.0 | 19.0 | 0.00 | 0.00 | 0.00 | 98 | 1008.0 |
| 20260507085140 | 52 | 306 | 12.0 | 19.0 | 0.00 | 0.00 | 0.00 | 98 | 1008.0 |
| 20260507085039 | 52 | 326 | 12.0 | 19.0 | 0.00 | 0.00 | 0.00 | 98 | 1008.0 |
| 20260507084937 | 52 | 323 | 11.0 | 19.0 | 0.00 | 0.00 | 0.00 | 98 | 1008.0 |
| 20260507084835 | 52 | 302 | 11.0 | 19.0 | 0.00 | 0.00 | 0.00 | 98 | 1008.0 |
| 20260507084734 | 52 | 323 | 12.0 | 19.0 | 0.00 | 0.00 | 0.00 | 98 | 1008.0 |
| 20260507084708 | 52 | 313 | 14.0 | 20.0 | 0.00 | 0.00 | 0.00 | 98 | 1008.0 |
| 20260507084525 | 52 | 316 | 12.0 | 20.0 | 0.00 | 0.00 | 0.00 | 98 | 1008.0 |
| 20260507084424 | 52 | 184 | 16.0 | 20.0 | 0.00 | 0.00 | 0.00 | 98 | 1008.0 |
| 20260507084341 | 52 | 311 | 16.0 | 20.0 | 0.00 | 0.00 | 0.00 | 98 | 1008.8 |
| 20260507084239 | 52 | 328 | 12.0 | 20.0 | 0.00 | 0.00 | 0.00 | 98 | 1008.8 |
| 20260507084138 | 52 | 313 | 9.0 | 20.0 | 0.00 | 0.00 | 0.00 | 98 | 1008.8 |
| 20260507084036 | 52 | 311 | 12.0 | 20.0 | 0.00 | 0.00 | 0.00 | 98 | 1008.8 |
| 20260507083939 | 52 | 219 | 13.0 | 20.0 | 0.00 | 0.00 | 0.00 | 98 | 1008.8 |
| 20260507083858 | 52 | 329 | 15.0 | 20.0 | 0.00 | 0.00 | 0.00 | 98 | 1008.8 |
| 20260507083736 | 52 | 319 | 14.0 | 20.0 | 0.00 | 0.00 | 0.00 | 98 | 1008.8 |
| 20260507083634 | 52 | 298 | 15.0 | 18.0 | 0.00 | 0.00 | 0.00 | 98 | 1008.8 |
| 20260507083533 | 52 | 306 | 14.0 | 18.0 | 0.00 | 0.00 | 0.00 | 98 | 1008.8 |
| 20260507083431 | 52 | 313 | 13.0 | 18.0 | 0.00 | 0.00 | 0.00 | 98 | 1008.8 |
| 20260507083330 | 52 | 318 | 14.0 | 18.0 | 0.00 | 0.00 | 0.00 | 98 | 1008.8 |
| 20260507083243 | 52 | 326 | 11.0 | 17.0 | 0.00 | 0.00 | 0.00 | 98 | 1008.8 |
| 20260507083154 | 52 | 240 | 12.0 | 17.0 | 0.00 | 0.00 | 0.00 | 98 | 1008.8 |
| 20260507083030 | 52 | 254 | 10.0 | 17.0 | 0.00 | 0.00 | 0.00 | 98 | 1008.8 |
| 20260507082929 | 52 | 344 | 11.0 | 17.0 | 0.00 | 0.00 | 0.00 | 98 | 1008.8 |
| 20260507082827 | 52 | 325 | 9.0 | 17.0 | 0.00 | 0.00 | 0.00 | 98 | 1008.8 |
| 20260507082745 | 52 | 326 | 13.0 | 17.0 | 0.00 | 0.00 | 0.00 | 98 | 1008.8 |
| 20260507082642 | 52 | 308 | 11.0 | 17.0 | 0.00 | 0.00 | 0.00 | 98 | 1008.8 |
| 20260507082539 | 52 | 306 | 13.0 | 17.0 | 0.00 | 0.00 | 0.00 | 98 | 1008.8 |
| 20260507082442 | 52 | 301 | 12.0 | 17.0 | 0.00 | 0.00 | 0.00 | 98 | 1008.8 |
| 20260507082342 | 52 | 328 | 10.0 | 19.0 | 0.00 | 0.00 | 0.00 | 98 | 1008.8 |
| 20260507082301 | 52 | 326 | 10.0 | 19.0 | 0.00 | 0.00 | 0.00 | 98 | 1008.8 |
| 20260507082138 | 52 | 250 | 11.0 | 19.0 | 0.00 | 0.00 | 0.00 | 98 | 1008.8 |
| 20260507082037 | 52 | 315 | 9.0 | 19.0 | 0.00 | 0.00 | 0.00 | 98 | 1008.8 |
| 20260507081936 | 52 | 312 | 9.0 | 19.0 | 0.00 | 0.00 | 0.00 | 98 | 1008.8 |
| 20260507081854 | 52 | 322 | 9.0 | 19.0 | 0.00 | 0.00 | 0.00 | 98 | 1008.8 |
| 20260507081732 | 52 | 272 | 11.0 | 19.0 | 0.00 | 0.00 | 0.00 | 98 | 1008.8 |
| 20260507081705 | 52 | 289 | 10.0 | 19.0 | 0.00 | 0.00 | 0.00 | 98 | 1008.8 |
| 20260507081603 | 52 | 315 | 13.0 | 19.0 | 0.00 | 0.00 | 0.00 | 98 | 1008.8 |
| 20260507081441 | 52 | 325 | 12.0 | 19.0 | 0.00 | 0.00 | 0.00 | 98 | 1008.8 |
| 20260507081340 | 52 | 287 | 12.0 | 16.0 | 0.00 | 0.00 | 0.00 | 98 | 1007.1 |
| 20260507081240 | 52 | 278 | 12.0 | 18.0 | 0.00 | 0.00 | 0.00 | 98 | 1007.1 |
| 20260507081200 | 52 | 302 | 11.0 | 18.0 | 0.00 | 0.00 | 0.00 | 98 | 1007.1 |
| 20260507081036 | 52 | 304 | 8.0 | 18.0 | 0.00 | 0.00 | 0.00 | 98 | 1007.1 |
| 20260507080935 | 52 | 59 | 9.0 | 18.0 | 0.00 | 0.00 | 0.00 | 98 | 1007.1 |
| 20260507080837 | 52 | 329 | 11.0 | 18.0 | 0.00 | 0.00 | 0.00 | 98 | 1007.1 |
| 20260507080735 | 52 | 329 | 10.0 | 18.0 | 0.00 | 0.00 | 0.00 | 98 | 1007.1 |
| 20260507080634 | 52 | 329 | 9.0 | 18.0 | 0.00 | 0.00 | 0.00 | 98 | 1007.1 |
| 20260507080532 | 52 | 294 | 10.0 | 18.0 | 0.00 | 0.00 | 0.00 | 98 | 1007.1 |
| 20260507080432 | 52 | 311 | 14.0 | 18.0 | 0.00 | 0.00 | 0.00 | 98 | 1007.1 |
| 20260507080329 | 52 | 329 | 12.0 | 18.0 | 0.00 | 0.00 | 0.00 | 98 | 1007.1 |
| 20260507080231 | 52 | 325 | 12.0 | 18.0 | 0.00 | 0.00 | 0.00 | 98 | 1007.1 |
| 20260507080204 | 52 | 277 | 11.0 | 18.0 | 0.00 | 0.00 | 0.00 | 98 | 1007.1 |
| 20260507080039 | 52 | 309 | 12.0 | 18.0 | 0.00 | 0.00 | 0.00 | 98 | 1007.1 |
| 20260507075937 | 52 | 323 | 12.0 | 19.0 | 0.00 | 0.00 | 0.00 | 98 | 1007.1 |
| 20260507075834 | 52 | 322 | 14.0 | 19.0 | 0.00 | 0.00 | 0.00 | 98 | 1007.8 |
| 20260507075732 | 52 | 165 | 13.0 | 19.0 | 0.00 | 0.00 | 0.00 | 98 | 1007.8 |
| 20260507075630 | 52 | 281 | 16.0 | 19.0 | 0.00 | 0.00 | 0.00 | 98 | 1007.8 |
| 20260507075550 | 52 | 326 | 12.0 | 19.0 | 0.00 | 0.00 | 0.00 | 98 | 1007.8 |
| 20260507075432 | 52 | 223 | 13.0 | 19.0 | 0.00 | 0.00 | 0.00 | 98 | 1007.8 |
| 20260507075330 | 52 | 305 | 12.0 | 19.0 | 0.00 | 0.00 | 0.00 | 98 | 1007.8 |
| 20260507075232 | 52 | 325 | 12.0 | 20.0 | 0.00 | 0.00 | 0.00 | 98 | 1007.8 |
| 20260507075130 | 52 | 322 | 15.0 | 20.0 | 0.00 | 0.00 | 0.00 | 98 | 1007.8 |
| 20260507075027 | 52 | 313 | 14.0 | 20.0 | 0.00 | 0.00 | 0.00 | 98 | 1007.8 |
| 20260507074926 | 52 | 316 | 14.0 | 20.0 | 0.00 | 0.00 | 0.00 | 98 | 1007.8 |
| 20260507074824 | 52 | 325 | 13.0 | 20.0 | 0.00 | 0.00 | 0.00 | 98 | 1007.8 |
| 20260507074757 | 52 | 326 | 12.0 | 20.0 | 0.00 | 0.00 | 0.00 | 98 | 1007.8 |
| 20260507074646 | 52 | 217 | 16.0 | 20.0 | 0.00 | 0.00 | 0.00 | 98 | 1007.8 |
| 20260507074544 | 52 | 148 | 15.0 | 20.0 | 0.00 | 0.00 | 0.00 | 98 | 1007.8 |
| 20260507074421 | 52 | 267 | 15.0 | 20.0 | 0.00 | 0.00 | 0.00 | 98 | 1007.8 |
| 20260507074342 | 52 | 312 | 13.0 | 20.0 | 0.00 | 0.00 | 0.00 | 98 | 1009.8 |
| 20260507074241 | 52 | 305 | 12.0 | 20.0 | 0.00 | 0.00 | 0.00 | 98 | 1009.8 |
| 20260507074139 | 52 | 328 | 13.0 | 20.0 | 0.00 | 0.00 | 0.00 | 98 | 1009.8 |
| 20260507074038 | 52 | 326 | 15.0 | 20.0 | 0.00 | 0.00 | 0.00 | 98 | 1009.8 |
| 20260507073940 | 52 | 287 | 17.0 | 20.0 | 0.00 | 0.00 | 0.00 | 98 | 1009.8 |
| 20260507073839 | 52 | 261 | 16.0 | 20.0 | 0.00 | 0.00 | 0.00 | 98 | 1009.8 |
| 20260507073738 | 52 | 284 | 12.0 | 19.0 | 0.00 | 0.00 | 0.00 | 98 | 1009.8 |
| 20260507073637 | 52 | 308 | 12.0 | 19.0 | 0.00 | 0.00 | 0.00 | 98 | 1009.8 |
| 20260507073535 | 52 | 312 | 13.0 | 19.0 | 0.00 | 0.00 | 0.00 | 98 | 1009.8 |
| 20260507073433 | 52 | 254 | 15.0 | 19.0 | 0.00 | 0.00 | 0.00 | 98 | 1009.8 |
| 20260507073352 | 52 | 200 | 11.0 | 18.0 | 0.00 | 0.00 | 0.00 | 98 | 1009.8 |
| 20260507073233 | 53 | 248 | 11.0 | 18.0 | 0.00 | 0.00 | 0.00 | 98 | 1009.8 |
| 20260507073204 | 52 | 323 | 12.0 | 18.0 | 0.00 | 0.00 | 0.00 | 98 | 1009.8 |
| 20260507073040 | 53 | 130 | 12.0 | 18.0 | 0.00 | 0.00 | 0.00 | 98 | 1009.8 |
| 20260507072942 | 52 | 328 | 13.0 | 18.0 | 0.00 | 0.00 | 0.00 | 98 | 1009.8 |
| 20260507072900 | 53 | 176 | 10.0 | 18.0 | 0.00 | 0.00 | 0.00 | 98 | 1008.0 |
| 20260507072737 | 53 | 323 | 11.0 | 18.0 | 0.00 | 0.00 | 0.00 | 98 | 1008.0 |
| 20260507072635 | 52 | 330 | 12.0 | 18.0 | 0.00 | 0.00 | 0.00 | 98 | 1008.0 |
| 20260507072534 | 52 | 301 | 10.0 | 18.0 | 0.00 | 0.00 | 0.00 | 98 | 1008.0 |
| 20260507072457 | 53 | 328 | 13.0 | 19.0 | 0.00 | 0.00 | 0.00 | 98 | 1008.0 |
| 20260507072335 | 52 | 323 | 10.0 | 19.0 | 0.00 | 0.00 | 0.00 | 98 | 1008.0 |
| 20260507072253 | 53 | 274 | 12.0 | 19.0 | 0.00 | 0.00 | 0.00 | 98 | 1008.0 |
| 20260507072130 | 52 | 280 | 13.0 | 19.0 | 0.00 | 0.00 | 0.00 | 98 | 1008.0 |
| 20260507072029 | 52 | 150 | 9.0 | 19.0 | 0.00 | 0.00 | 0.00 | 98 | 1008.0 |
| 20260507071927 | 53 | 251 | 11.0 | 19.0 | 0.00 | 0.00 | 0.00 | 98 | 1008.0 |
| 20260507071826 | 53 | 244 | 14.0 | 19.0 | 0.00 | 0.00 | 0.00 | 98 | 1008.0 |
| 20260507071744 | 53 | 325 | 12.0 | 19.0 | 0.00 | 0.00 | 0.00 | 98 | 1008.0 |
| 20260507071718 | 53 | 305 | 14.0 | 19.0 | 0.00 | 0.00 | 0.00 | 98 | 1008.0 |
| 20260507071536 | 53 | 309 | 14.0 | 19.0 | 0.00 | 0.00 | 0.00 | 98 | 1008.0 |
| 20260507071455 | 53 | 251 | 13.0 | 19.0 | 0.00 | 0.00 | 0.00 | 98 | 1008.0 |
| 20260507071333 | 53 | 325 | 10.0 | 19.0 | 0.00 | 0.00 | 0.00 | 98 | 1008.3 |
| 20260507071231 | 53 | 278 | 11.0 | 19.0 | 0.00 | 0.00 | 0.00 | 98 | 1008.3 |
| 20260507071131 | 53 | 282 | 11.0 | 24.0 | 0.00 | 0.00 | 0.00 | 98 | 1008.3 |
| 20260507071030 | 53 | 320 | 12.0 | 24.0 | 0.00 | 0.00 | 0.00 | 98 | 1008.3 |
| 20260507070932 | 53 | 257 | 13.0 | 24.0 | 0.00 | 0.00 | 0.00 | 98 | 1008.3 |
| 20260507070831 | 53 | 291 | 14.0 | 24.0 | 0.00 | 0.00 | 0.00 | 98 | 1008.3 |
| 20260507070730 | 53 | 272 | 10.0 | 24.0 | 0.00 | 0.00 | 0.00 | 98 | 1008.3 |
| 20260507070629 | 53 | 263 | 11.0 | 24.0 | 0.00 | 0.00 | 0.00 | 98 | 1008.3 |
| 20260507070548 | 53 | 240 | 9.0 | 24.0 | 0.00 | 0.00 | 0.00 | 98 | 1008.3 |
| 20260507070424 | 53 | 175 | 11.0 | 24.0 | 0.00 | 0.00 | 0.00 | 98 | 1008.3 |
| 20260507070343 | 53 | 102 | 13.0 | 24.0 | 0.00 | 0.00 | 0.00 | 98 | 1008.3 |
| 20260507070233 | 53 | 261 | 12.0 | 18.0 | 0.00 | 0.00 | 0.00 | 98 | 1008.3 |
| 20260507070147 | 53 | 318 | 14.0 | 18.0 | 0.00 | 0.00 | 0.00 | 98 | 1008.3 |
| 20260507070043 | 53 | 246 | 14.0 | 18.0 | 0.00 | 0.00 | 0.00 | 98 | 1008.3 |
| 20260507070003 | 53 | 315 | 12.0 | 17.0 | 0.00 | 0.00 | 0.00 | 98 | 1008.3 |
| 20260507065859 | 53 | 257 | 11.0 | 17.0 | 0.00 | 0.00 | 0.00 | 98 | 1008.6 |
| 20260507065736 | 53 | 198 | 11.0 | 17.0 | 0.00 | 0.00 | 0.00 | 98 | 1008.6 |
| 20260507065636 | 53 | 311 | 12.0 | 17.0 | 0.00 | 0.00 | 0.00 | 98 | 1008.6 |
| 20260507065538 | 53 | 292 | 10.0 | 17.0 | 0.00 | 0.00 | 0.00 | 98 | 1008.6 |
| 20260507065437 | 53 | 325 | 11.0 | 17.0 | 0.00 | 0.00 | 0.00 | 98 | 1008.6 |
| 20260507065339 | 53 | 296 | 11.0 | 17.0 | 0.00 | 0.00 | 0.00 | 98 | 1008.6 |
| 20260507065237 | 53 | 316 | 12.0 | 17.0 | 0.00 | 0.00 | 0.00 | 98 | 1008.6 |
| 20260507065136 | 53 | 86 | 11.0 | 17.0 | 0.00 | 0.00 | 0.00 | 98 | 1008.6 |
| 20260507065034 | 53 | 209 | 10.0 | 17.0 | 0.00 | 0.00 | 0.00 | 98 | 1008.6 |
| 20260507064933 | 53 | 316 | 14.0 | 17.0 | 0.00 | 0.00 | 0.00 | 98 | 1008.6 |
| 20260507064852 | 53 | 356 | 12.0 | 17.0 | 0.00 | 0.00 | 0.00 | 98 | 1008.6 |
| 20260507064728 | 53 | 302 | 14.0 | 17.0 | 0.00 | 0.00 | 0.00 | 98 | 1008.6 |
| 20260507064657 | 53 | 241 | 13.0 | 17.0 | 0.00 | 0.00 | 0.00 | 98 | 1008.6 |
| 20260507064538 | 53 | 316 | 11.0 | 17.0 | 0.00 | 0.00 | 0.00 | 98 | 1008.6 |
| 20260507064437 | 53 | 250 | 9.0 | 17.0 | 0.00 | 0.00 | 0.00 | 98 | 1008.6 |
| 20260507064335 | 53 | 313 | 6.0 | 17.0 | 0.00 | 0.00 | 0.00 | 98 | 1007.9 |
| 20260507064234 | 53 | 319 | 9.0 | 17.0 | 0.00 | 0.00 | 0.00 | 98 | 1007.9 |
| 20260507064130 | 53 | 250 | 11.0 | 17.0 | 0.00 | 0.00 | 0.00 | 98 | 1007.9 |
| 20260507064029 | 53 | 326 | 11.0 | 17.0 | 0.00 | 0.00 | 0.00 | 98 | 1007.9 |
| 20260507063929 | 53 | 181 | 12.0 | 17.0 | 0.00 | 0.00 | 0.00 | 98 | 1007.9 |
| 20260507063831 | 53 | 309 | 11.0 | 16.0 | 0.00 | 0.00 | 0.00 | 98 | 1007.9 |
| 20260507063730 | 53 | 241 | 11.0 | 16.0 | 0.00 | 0.00 | 0.00 | 98 | 1007.9 |
| 20260507063628 | 53 | 316 | 12.0 | 18.0 | 0.00 | 0.00 | 0.00 | 98 | 1007.9 |
| 20260507063527 | 53 | 311 | 12.0 | 18.0 | 0.00 | 0.00 | 0.00 | 98 | 1007.9 |
| 20260507063425 | 53 | 144 | 11.0 | 18.0 | 0.00 | 0.00 | 0.00 | 98 | 1007.9 |
| 20260507063343 | 53 | 289 | 8.0 | 18.0 | 0.00 | 0.00 | 0.00 | 98 | 1007.9 |
| 20260507063227 | 53 | 288 | 10.0 | 18.0 | 0.00 | 0.00 | 0.00 | 98 | 1007.9 |
| 20260507063157 | 53 | 263 | 13.0 | 18.0 | 0.00 | 0.00 | 0.00 | 98 | 1007.9 |
| 20260507063034 | 53 | 193 | 13.0 | 18.0 | 0.00 | 0.00 | 0.00 | 98 | 1007.9 |
| 20260507062952 | 53 | 289 | 13.0 | 18.0 | 0.00 | 0.00 | 0.00 | 98 | 1007.9 |
| 20260507062830 | 53 | 243 | 11.0 | 18.0 | 0.00 | 0.00 | 0.00 | 98 | 1008.6 |
| 20260507062729 | 53 | 247 | 12.0 | 18.0 | 0.00 | 0.00 | 0.00 | 98 | 1008.6 |
| 20260507062628 | 53 | 320 | 9.0 | 17.0 | 0.00 | 0.00 | 0.00 | 98 | 1008.6 |
| 20260507062526 | 53 | 217 | 10.0 | 17.0 | 0.00 | 0.00 | 0.00 | 98 | 1008.6 |
| 20260507062429 | 53 | 328 | 10.0 | 17.0 | 0.00 | 0.00 | 0.00 | 98 | 1008.6 |
| 20260507062327 | 53 | 264 | 9.0 | 17.0 | 0.00 | 0.00 | 0.00 | 98 | 1008.6 |
| 20260507062226 | 53 | 304 | 11.0 | 17.0 | 0.00 | 0.00 | 0.00 | 98 | 1008.6 |
| 20260507062125 | 53 | 236 | 10.0 | 17.0 | 0.00 | 0.00 | 0.00 | 98 | 1008.6 |
| 20260507062024 | 53 | 206 | 14.0 | 18.0 | 0.00 | 0.00 | 0.00 | 98 | 1008.6 |
| 20260507061943 | 53 | 184 | 14.0 | 18.0 | 0.00 | 0.00 | 0.00 | 98 | 1008.6 |
| 20260507061824 | 53 | 202 | 11.0 | 18.0 | 0.00 | 0.00 | 0.00 | 98 | 1008.6 |
| 20260507061753 | 53 | 288 | 12.0 | 18.0 | 0.00 | 0.00 | 0.00 | 98 | 1008.6 |
| 20260507061645 | 53 | 182 | 13.0 | 18.0 | 0.00 | 0.00 | 0.00 | 98 | 1008.6 |
| 20260507061543 | 53 | 140 | 12.0 | 18.0 | 0.00 | 0.00 | 0.00 | 98 | 1008.6 |
| 20260507061442 | 53 | 182 | 11.0 | 18.0 | 0.00 | 0.00 | 0.00 | 98 | 1008.6 |
| 20260507061339 | 53 | 265 | 9.0 | 18.0 | 0.00 | 0.00 | 0.00 | 98 | 1009.8 |
| 20260507061237 | 53 | 313 | 13.0 | 18.0 | 0.00 | 0.00 | 0.00 | 98 | 1009.8 |
| 20260507061135 | 53 | 328 | 11.0 | 15.0 | 0.00 | 0.00 | 0.00 | 98 | 1009.8 |
| 20260507061039 | 53 | 217 | 9.0 | 15.0 | 0.00 | 0.00 | 0.00 | 98 | 1009.8 |
| 20260507060938 | 53 | 333 | 8.0 | 14.0 | 0.00 | 0.00 | 0.00 | 98 | 1009.8 |
| 20260507060837 | 53 | 309 | 9.0 | 14.0 | 0.00 | 0.00 | 0.00 | 98 | 1009.8 |
| 20260507060755 | 53 | 315 | 8.0 | 14.0 | 0.00 | 0.00 | 0.00 | 98 | 1009.8 |
| 20260507060632 | 53 | 287 | 10.0 | 14.0 | 0.00 | 0.00 | 0.00 | 98 | 1009.8 |
| 20260507060533 | 53 | 315 | 11.0 | 14.0 | 0.00 | 0.00 | 0.00 | 98 | 1009.8 |
| 20260507060431 | 53 | 302 | 8.0 | 14.0 | 0.00 | 0.00 | 0.00 | 98 | 1009.8 |
| 20260507060334 | 53 | 311 | 8.0 | 14.0 | 0.00 | 0.00 | 0.00 | 98 | 1009.8 |
| 20260507060254 | 53 | 295 | 12.0 | 14.0 | 0.00 | 0.00 | 0.00 | 98 | 1009.8 |
| 20260507060204 | 53 | 326 | 10.0 | 14.0 | 0.00 | 0.00 | 0.00 | 98 | 1009.8 |
| 20260507060043 | 53 | 313 | 11.0 | 14.0 | 0.00 | 0.00 | 0.00 | 98 | 1009.8 |
| 20260507055941 | 53 | 308 | 12.0 | 14.0 | 0.00 | 0.00 | 0.00 | 98 | 1009.8 |
| 20260507055838 | 53 | 304 | 10.0 | 16.0 | 0.00 | 0.00 | 0.00 | 98 | 1009.8 |
| 20260507055737 | 53 | 326 | 9.0 | 16.0 | 0.00 | 0.00 | 0.00 | 98 | 1009.8 |
| 20260507055636 | 53 | 329 | 7.0 | 16.0 | 0.00 | 0.00 | 0.00 | 98 | 1009.8 |
| 20260507055538 | 53 | 328 | 8.0 | 16.0 | 0.00 | 0.00 | 0.00 | 98 | 1009.8 |
| 20260507055436 | 53 | 267 | 7.0 | 16.0 | 0.00 | 0.00 | 0.00 | 98 | 1009.8 |
| 20260507055335 | 53 | 220 | 8.0 | 16.0 | 0.00 | 0.00 | 0.00 | 98 | 1009.8 |
| 20260507055253 | 53 | 329 | 11.0 | 16.0 | 0.00 | 0.00 | 0.00 | 98 | 1009.8 |
| 20260507055131 | 53 | 258 | 11.0 | 17.0 | 0.00 | 0.00 | 0.00 | 98 | 1009.8 |
| 20260507055030 | 53 | 301 | 11.0 | 17.0 | 0.00 | 0.00 | 0.00 | 98 | 1009.8 |
| 20260507054929 | 53 | 230 | 10.0 | 17.0 | 0.00 | 0.00 | 0.00 | 98 | 1009.8 |
| 20260507054832 | 53 | 261 | 9.0 | 17.0 | 0.00 | 0.00 | 0.00 | 98 | 1009.8 |
| 20260507054729 | 53 | 271 | 11.0 | 17.0 | 0.00 | 0.00 | 0.00 | 98 | 1009.8 |
| 20260507054657 | 54 | 196 | 11.0 | 17.0 | 0.00 | 0.00 | 0.00 | 98 | 1009.8 |
| 20260507054535 | 53 | 140 | 13.0 | 17.0 | 0.00 | 0.00 | 0.00 | 98 | 1009.8 |
| 20260507054434 | 53 | 244 | 10.0 | 17.0 | 0.00 | 0.00 | 0.00 | 98 | 1009.8 |
| 20260507054332 | 54 | 244 | 13.0 | 17.0 | 0.00 | 0.00 | 0.00 | 98 | 1009.4 |
| 20260507054234 | 54 | 289 | 10.0 | 17.0 | 0.00 | 0.00 | 0.00 | 98 | 1009.4 |
| 20260507054152 | 53 | 311 | 10.0 | 17.0 | 0.00 | 0.00 | 0.00 | 98 | 1009.4 |
| 20260507054034 | 53 | 267 | 10.0 | 17.0 | 0.00 | 0.00 | 0.00 | 98 | 1009.4 |
| 20260507053934 | 53 | 296 | 10.0 | 17.0 | 0.00 | 0.00 | 0.00 | 98 | 1009.4 |
| 20260507053833 | 53 | 284 | 11.0 | 17.0 | 0.00 | 0.00 | 0.00 | 98 | 1009.4 |
| 20260507053731 | 53 | 294 | 12.0 | 17.0 | 0.00 | 0.00 | 0.00 | 98 | 1009.4 |
| 20260507053630 | 53 | 227 | 14.0 | 17.0 | 0.00 | 0.00 | 0.00 | 98 | 1009.4 |
| 20260507053548 | 54 | 240 | 11.0 | 14.0 | 0.00 | 0.00 | 0.00 | 98 | 1009.4 |
| 20260507053427 | 53 | 325 | 11.0 | 14.0 | 0.00 | 0.00 | 0.00 | 98 | 1009.4 |
| 20260507053329 | 53 | 257 | 11.0 | 14.0 | 0.00 | 0.00 | 0.00 | 98 | 1009.4 |
| 20260507053249 | 53 | 306 | 12.0 | 14.0 | 0.00 | 0.00 | 0.00 | 98 | 1009.4 |
| 20260507053158 | 54 | 206 | 10.0 | 15.0 | 0.00 | 0.00 | 0.00 | 98 | 1009.4 |
| 20260507053035 | 54 | 265 | 11.0 | 17.0 | 0.00 | 0.00 | 0.00 | 98 | 1009.4 |
| 20260507052935 | 53 | 291 | 9.0 | 17.0 | 0.00 | 0.00 | 0.00 | 98 | 1009.4 |
| 20260507052833 | 53 | 291 | 11.0 | 17.0 | 0.00 | 0.00 | 0.00 | 98 | 1009.9 |
| 20260507052732 | 54 | 288 | 11.0 | 17.0 | 0.00 | 0.00 | 0.00 | 98 | 1009.9 |
| 20260507052633 | 53 | 305 | 10.0 | 17.0 | 0.00 | 0.00 | 0.00 | 98 | 1009.9 |
| 20260507052532 | 54 | 316 | 9.0 | 17.0 | 0.00 | 0.00 | 0.00 | 98 | 1009.9 |
| 20260507052431 | 54 | 227 | 9.0 | 17.0 | 0.00 | 0.00 | 0.00 | 98 | 1009.9 |
| 20260507052330 | 53 | 318 | 11.0 | 17.0 | 0.00 | 0.00 | 0.00 | 98 | 1009.9 |
| 20260507052228 | 54 | 212 | 12.0 | 17.0 | 0.00 | 0.00 | 0.00 | 98 | 1009.9 |
| 20260507052126 | 53 | 227 | 11.0 | 15.0 | 0.00 | 0.00 | 0.00 | 98 | 1009.9 |
| 20260507052026 | 53 | 186 | 12.0 | 18.0 | 0.00 | 0.00 | 0.00 | 98 | 1009.9 |
| 20260507051928 | 54 | 215 | 11.0 | 18.0 | 0.00 | 0.00 | 0.00 | 98 | 1009.9 |
| 20260507051826 | 54 | 285 | 10.0 | 18.0 | 0.00 | 0.00 | 0.00 | 98 | 1009.9 |
| 20260507051724 | 54 | 141 | 11.0 | 18.0 | 0.00 | 0.00 | 0.00 | 98 | 1009.9 |
| 20260507051655 | 53 | 328 | 11.0 | 18.0 | 0.00 | 0.00 | 0.00 | 98 | 1009.9 |
| 20260507051530 | 53 | 254 | 11.0 | 18.0 | 0.00 | 0.00 | 0.00 | 98 | 1009.9 |
| 20260507051429 | 54 | 147 | 13.0 | 18.0 | 0.00 | 0.00 | 0.00 | 98 | 1009.9 |
| 20260507051326 | 54 | 328 | 11.0 | 18.0 | 0.00 | 0.00 | 0.00 | 98 | 1009.8 |
| 20260507051229 | 54 | 319 | 13.0 | 18.0 | 0.00 | 0.00 | 0.00 | 98 | 1009.8 |
| 20260507051128 | 54 | 217 | 12.0 | 18.0 | 0.00 | 0.00 | 0.00 | 98 | 1009.8 |
| 20260507051026 | 54 | 247 | 11.0 | 18.0 | 0.00 | 0.00 | 0.00 | 98 | 1009.8 |
| 20260507050945 | 54 | 182 | 13.0 | 18.0 | 0.00 | 0.00 | 0.00 | 98 | 1009.8 |
| 20260507050843 | 54 | 205 | 12.0 | 17.0 | 0.00 | 0.00 | 0.00 | 98 | 1009.8 |
| 20260507050800 | 54 | 260 | 12.0 | 16.0 | 0.00 | 0.00 | 0.00 | 98 | 1009.8 |
| 20260507050658 | 54 | 244 | 12.0 | 16.0 | 0.00 | 0.00 | 0.00 | 98 | 1009.8 |
| 20260507050535 | 54 | 233 | 10.0 | 14.0 | 0.00 | 0.00 | 0.00 | 98 | 1009.8 |
| 20260507050434 | 54 | 256 | 9.0 | 14.0 | 0.00 | 0.00 | 0.00 | 98 | 1009.8 |
| 20260507050336 | 54 | 328 | 9.0 | 14.0 | 0.00 | 0.00 | 0.00 | 98 | 1009.8 |
| 20260507050234 | 54 | 316 | 9.0 | 14.0 | 0.00 | 0.00 | 0.00 | 98 | 1009.8 |
| 20260507050205 | 54 | 247 | 11.0 | 14.0 | 0.00 | 0.00 | 0.00 | 98 | 1009.8 |
| 20260507050041 | 54 | 326 | 11.0 | 14.0 | 0.00 | 0.00 | 0.00 | 98 | 1009.8 |
| 20260507045940 | 54 | 291 | 12.0 | 14.0 | 0.00 | 0.00 | 0.00 | 98 | 1009.8 |
| 20260507045902 | 54 | 306 | 10.0 | 14.0 | 0.00 | 0.00 | 0.00 | 98 | 1009.8 |
| 20260507045759 | 54 | 288 | 9.0 | 14.0 | 0.00 | 0.00 | 0.00 | 98 | 1009.8 |
| 20260507045636 | 54 | 319 | 9.0 | 14.0 | 0.00 | 0.00 | 0.00 | 98 | 1009.8 |
| 20260507045559 | 54 | 322 | 11.0 | 14.0 | 0.00 | 0.00 | 0.00 | 98 | 1009.8 |
| 20260507045436 | 54 | 329 | 8.0 | 14.0 | 0.00 | 0.00 | 0.00 | 98 | 1009.8 |
| 20260507045335 | 54 | 329 | 8.0 | 14.0 | 0.00 | 0.00 | 0.00 | 98 | 1009.8 |
| 20260507045233 | 54 | 143 | 10.0 | 14.0 | 0.00 | 0.00 | 0.00 | 98 | 1009.8 |
| 20260507045131 | 54 | 202 | 9.0 | 17.0 | 0.00 | 0.00 | 0.00 | 98 | 1009.8 |
| 20260507045030 | 54 | 312 | 10.0 | 17.0 | 0.00 | 0.00 | 0.00 | 98 | 1009.8 |
| 20260507044929 | 54 | 323 | 10.0 | 17.0 | 0.00 | 0.00 | 0.00 | 98 | 1009.8 |
| 20260507044831 | 54 | 325 | 12.0 | 17.0 | 0.00 | 0.00 | 0.00 | 98 | 1009.8 |
| 20260507044800 | 54 | 289 | 7.0 | 17.0 | 0.00 | 0.00 | 0.00 | 98 | 1009.8 |
| 20260507044647 | 54 | 205 | 8.0 | 17.0 | 0.00 | 0.00 | 0.00 | 98 | 1009.8 |
| 20260507044526 | 54 | 305 | 8.0 | 17.0 | 0.00 | 0.00 | 0.00 | 98 | 1009.8 |
| 20260507044425 | 54 | 127 | 11.0 | 17.0 | 0.00 | 0.00 | 0.00 | 98 | 1009.8 |
| 20260507044343 | 54 | 272 | 10.0 | 17.0 | 0.00 | 0.00 | 0.00 | 98 | 1009.6 |
| 20260507044242 | 54 | 275 | 10.0 | 17.0 | 0.00 | 0.00 | 0.00 | 98 | 1009.6 |
| 20260507044141 | 54 | 174 | 10.0 | 13.0 | 0.00 | 0.00 | 0.00 | 98 | 1009.6 |
| 20260507044103 | 54 | 318 | 9.0 | 14.0 | 0.00 | 0.00 | 0.00 | 98 | 1009.6 |
| 20260507043940 | 54 | 274 | 9.0 | 14.0 | 0.00 | 0.00 | 0.00 | 98 | 1009.6 |
| 20260507043839 | 54 | 296 | 9.0 | 14.0 | 0.00 | 0.00 | 0.00 | 98 | 1009.6 |
| 20260507043738 | 54 | 199 | 11.0 | 14.0 | 0.00 | 0.00 | 0.00 | 98 | 1009.6 |
| 20260507043637 | 54 | 320 | 7.0 | 14.0 | 0.00 | 0.00 | 0.00 | 98 | 1009.6 |
| 20260507043534 | 54 | 325 | 5.0 | 14.0 | 0.00 | 0.00 | 0.00 | 98 | 1009.6 |
| 20260507043432 | 54 | 138 | 9.0 | 14.0 | 0.00 | 0.00 | 0.00 | 98 | 1009.6 |
| 20260507043331 | 54 | 330 | 12.0 | 14.0 | 0.00 | 0.00 | 0.00 | 98 | 1009.6 |
| 20260507043253 | 54 | 309 | 12.0 | 14.0 | 0.00 | 0.00 | 0.00 | 98 | 1009.6 |
| 20260507043224 | 54 | 336 | 10.0 | 14.0 | 0.00 | 0.00 | 0.00 | 98 | 1009.6 |
| 20260507043038 | 54 | 313 | 9.0 | 14.0 | 0.00 | 0.00 | 0.00 | 98 | 1009.6 |
| 20260507042937 | 54 | 264 | 8.0 | 14.0 | 0.00 | 0.00 | 0.00 | 98 | 1009.6 |
| 20260507042859 | 54 | 328 | 8.0 | 14.0 | 0.00 | 0.00 | 0.00 | 98 | 1009.8 |
| 20260507042736 | 54 | 301 | 10.0 | 14.0 | 0.00 | 0.00 | 0.00 | 98 | 1009.8 |
| 20260507042634 | 54 | 311 | 9.0 | 14.0 | 0.00 | 0.00 | 0.00 | 98 | 1009.8 |
| 20260507042532 | 54 | 244 | 11.0 | 14.0 | 0.00 | 0.00 | 0.00 | 98 | 1009.8 |
| 20260507042434 | 54 | 124 | 12.0 | 14.0 | 0.00 | 0.00 | 0.00 | 98 | 1009.8 |
| 20260507042332 | 54 | 328 | 12.0 | 14.0 | 0.00 | 0.00 | 0.00 | 98 | 1009.8 |
| 20260507042230 | 54 | 326 | 10.0 | 14.0 | 0.00 | 0.00 | 0.00 | 98 | 1009.8 |
| 20260507042128 | 54 | 268 | 9.0 | 14.0 | 0.00 | 0.00 | 0.00 | 98 | 1009.8 |
| 20260507042027 | 54 | 288 | 12.0 | 14.0 | 0.00 | 0.00 | 0.00 | 98 | 1009.8 |
| 20260507041945 | 54 | 298 | 11.0 | 14.0 | 0.00 | 0.00 | 0.00 | 98 | 1009.8 |
| 20260507041842 | 54 | 199 | 10.0 | 14.0 | 0.00 | 0.00 | 0.00 | 98 | 1009.8 |
| 20260507041735 | 54 | 254 | 12.0 | 14.0 | 0.00 | 0.00 | 0.00 | 98 | 1009.8 |
| 20260507041645 | 54 | 284 | 8.0 | 12.0 | 0.00 | 0.00 | 0.00 | 98 | 1009.8 |
| 20260507041542 | 54 | 232 | 7.0 | 12.0 | 0.00 | 0.00 | 0.00 | 98 | 1009.8 |
| 20260507041422 | 54 | 328 | 10.0 | 13.0 | 0.00 | 0.00 | 0.00 | 98 | 1009.8 |
| 20260507041344 | 54 | 220 | 9.0 | 14.0 | 0.00 | 0.00 | 0.00 | 98 | 1009.3 |
| 20260507041302 | 54 | 280 | 9.0 | 14.0 | 0.00 | 0.00 | 0.00 | 98 | 1009.3 |
| 20260507041140 | 54 | 299 | 10.0 | 14.0 | 0.00 | 0.00 | 0.00 | 98 | 1009.3 |
| 20260507041039 | 54 | 240 | 7.0 | 14.0 | 0.00 | 0.00 | 0.00 | 98 | 1009.3 |
| 20260507040941 | 54 | 287 | 8.0 | 14.0 | 0.00 | 0.00 | 0.00 | 98 | 1009.3 |
| 20260507040839 | 54 | 320 | 9.0 | 14.0 | 0.00 | 0.00 | 0.00 | 98 | 1009.3 |
| 20260507040738 | 54 | 322 | 8.0 | 14.0 | 0.00 | 0.00 | 0.00 | 98 | 1009.3 |
| 20260507040656 | 54 | 107 | 10.0 | 14.0 | 0.00 | 0.00 | 0.00 | 98 | 1009.3 |
| 20260507040534 | 54 | 298 | 10.0 | 14.0 | 0.00 | 0.00 | 0.00 | 98 | 1009.3 |
| 20260507040434 | 54 | 302 | 11.0 | 14.0 | 0.00 | 0.00 | 0.00 | 98 | 1009.3 |
| 20260507040332 | 54 | 296 | 9.0 | 13.0 | 0.00 | 0.00 | 0.00 | 98 | 1009.3 |
| 20260507040235 | 54 | 328 | 7.0 | 13.0 | 0.00 | 0.00 | 0.00 | 98 | 1009.3 |
| 20260507040205 | 54 | 165 | 8.0 | 14.0 | 0.00 | 0.00 | 0.00 | 98 | 1009.3 |
| 20260507040042 | 54 | 325 | 9.0 | 14.0 | 0.00 | 0.00 | 0.00 | 98 | 1009.3 |
| 20260507040002 | 54 | 257 | 9.0 | 14.0 | 0.00 | 0.00 | 0.00 | 98 | 1009.3 |
| 20260507035900 | 54 | 322 | 9.0 | 14.0 | 0.00 | 0.00 | 0.00 | 98 | 1009.6 |
| 20260507035738 | 54 | 332 | 9.0 | 14.0 | 0.00 | 0.00 | 0.00 | 98 | 1009.6 |
| 20260507035657 | 54 | 328 | 9.0 | 14.0 | 0.00 | 0.00 | 0.00 | 98 | 1009.6 |
| 20260507035534 | 54 | 263 | 9.0 | 14.0 | 0.00 | 0.00 | 0.00 | 98 | 1009.6 |
| 20260507035432 | 54 | 323 | 9.0 | 14.0 | 0.00 | 0.00 | 0.00 | 98 | 1009.6 |
| 20260507035336 | 54 | 104 | 9.0 | 14.0 | 0.00 | 0.00 | 0.00 | 98 | 1009.6 |
| 20260507035235 | 54 | 304 | 9.0 | 13.0 | 0.00 | 0.00 | 0.00 | 98 | 1009.6 |
| 20260507035133 | 54 | 301 | 9.0 | 13.0 | 0.00 | 0.00 | 0.00 | 98 | 1009.6 |
| 20260507035032 | 54 | 313 | 10.0 | 13.0 | 0.00 | 0.00 | 0.00 | 98 | 1009.6 |
| 20260507034951 | 54 | 188 | 9.0 | 13.0 | 0.00 | 0.00 | 0.00 | 98 | 1009.6 |
| 20260507034828 | 54 | 322 | 9.0 | 13.0 | 0.00 | 0.00 | 0.00 | 98 | 1009.6 |
| 20260507034726 | 54 | 232 | 9.0 | 13.0 | 0.00 | 0.00 | 0.00 | 98 | 1009.6 |
| 20260507034700 | 54 | 315 | 9.0 | 13.0 | 0.00 | 0.00 | 0.00 | 98 | 1009.6 |
| 20260507034542 | 54 | 304 | 10.0 | 13.0 | 0.00 | 0.00 | 0.00 | 98 | 1009.6 |
| 20260507034440 | 54 | 234 | 10.0 | 13.0 | 0.00 | 0.00 | 0.00 | 98 | 1009.6 |
| 20260507034339 | 54 | 328 | 9.0 | 13.0 | 0.00 | 0.00 | 0.00 | 98 | 1010.2 |
| 20260507034300 | 54 | 61 | 8.0 | 14.0 | 0.00 | 0.00 | 0.00 | 98 | 1010.2 |
| 20260507034137 | 54 | 220 | 7.0 | 14.0 | 0.00 | 0.00 | 0.00 | 98 | 1010.2 |
| 20260507034035 | 54 | 280 | 8.0 | 14.0 | 0.00 | 0.00 | 0.00 | 98 | 1010.2 |
| 20260507033953 | 54 | 195 | 6.0 | 14.0 | 0.00 | 0.00 | 0.00 | 98 | 1010.2 |
| 20260507033835 | 54 | 103 | 7.0 | 14.0 | 0.00 | 0.00 | 0.00 | 98 | 1010.2 |
| 20260507033736 | 54 | 280 | 8.0 | 14.0 | 0.00 | 0.00 | 0.00 | 98 | 1010.2 |
| 20260507033635 | 54 | 229 | 9.0 | 14.0 | 0.00 | 0.00 | 0.00 | 98 | 1010.2 |
| 20260507033534 | 54 | 257 | 10.0 | 14.0 | 0.00 | 0.00 | 0.00 | 98 | 1010.2 |
| 20260507033432 | 54 | 251 | 12.0 | 14.0 | 0.00 | 0.00 | 0.00 | 98 | 1010.2 |
| 20260507033330 | 54 | 332 | 10.0 | 13.0 | 0.00 | 0.00 | 0.00 | 98 | 1010.2 |
| 20260507033249 | 54 | 319 | 11.0 | 14.0 | 0.00 | 0.00 | 0.00 | 98 | 1010.2 |
| 20260507033204 | 54 | 323 | 11.0 | 14.0 | 0.00 | 0.00 | 0.00 | 98 | 1010.2 |
| 20260507033101 | 54 | 258 | 8.0 | 14.0 | 0.00 | 0.00 | 0.00 | 98 | 1010.2 |
| 20260507032938 | 54 | 353 | 9.0 | 17.0 | 0.00 | 0.00 | 0.00 | 98 | 1010.2 |
| 20260507032837 | 54 | 244 | 9.0 | 17.0 | 0.00 | 0.00 | 0.00 | 98 | 1009.5 |
| 20260507032737 | 54 | 326 | 9.0 | 17.0 | 0.00 | 0.00 | 0.00 | 98 | 1009.5 |
| 20260507032635 | 55 | 308 | 11.0 | 17.0 | 0.00 | 0.00 | 0.00 | 98 | 1009.5 |
| 20260507032532 | 54 | 322 | 11.0 | 17.0 | 0.00 | 0.00 | 0.00 | 98 | 1009.5 |
| 20260507032430 | 54 | 302 | 10.0 | 17.0 | 0.00 | 0.00 | 0.00 | 98 | 1009.5 |
| 20260507032332 | 55 | 257 | 9.0 | 17.0 | 0.00 | 0.00 | 0.00 | 98 | 1009.5 |
| 20260507032230 | 55 | 271 | 11.0 | 17.0 | 0.00 | 0.00 | 0.00 | 98 | 1009.5 |
| 20260507032129 | 55 | 322 | 11.0 | 17.0 | 0.00 | 0.00 | 0.00 | 98 | 1009.5 |
| 20260507032028 | 55 | 203 | 10.0 | 16.0 | 0.00 | 0.00 | 0.00 | 98 | 1009.5 |
| 20260507031926 | 55 | 217 | 13.0 | 16.0 | 0.00 | 0.00 | 0.00 | 98 | 1009.5 |
| 20260507031825 | 55 | 296 | 10.0 | 14.0 | 0.00 | 0.00 | 0.00 | 98 | 1009.5 |
| 20260507031743 | 55 | 158 | 10.0 | 14.0 | 0.00 | 0.00 | 0.00 | 98 | 1009.5 |
| 20260507031717 | 55 | 296 | 11.0 | 14.0 | 0.00 | 0.00 | 0.00 | 98 | 1009.5 |
| 20260507031554 | 55 | 296 | 11.0 | 14.0 | 0.00 | 0.00 | 0.00 | 98 | 1009.5 |
| 20260507031432 | 55 | 219 | 11.0 | 14.0 | 0.00 | 0.00 | 0.00 | 98 | 1009.5 |
| 20260507031330 | 55 | 312 | 8.0 | 14.0 | 0.00 | 0.00 | 0.00 | 98 | 1009.7 |
| 20260507031249 | 55 | 305 | 8.0 | 14.0 | 0.00 | 0.00 | 0.00 | 98 | 1009.7 |
| 20260507031148 | 55 | 287 | 10.0 | 14.0 | 0.00 | 0.00 | 0.00 | 98 | 1009.7 |
| 20260507031045 | 55 | 196 | 9.0 | 13.0 | 0.00 | 0.00 | 0.00 | 98 | 1009.7 |
| 20260507031004 | 55 | 237 | 8.0 | 13.0 | 0.00 | 0.00 | 0.00 | 98 | 1009.7 |
| 20260507030842 | 55 | 264 | 8.0 | 13.0 | 0.00 | 0.00 | 0.00 | 98 | 1009.7 |
| 20260507030724 | 55 | 220 | 10.0 | 13.0 | 0.00 | 0.00 | 0.00 | 98 | 1009.7 |
| 20260507030643 | 55 | 216 | 9.0 | 13.0 | 0.00 | 0.00 | 0.00 | 98 | 1009.7 |
| 20260507030541 | 55 | 319 | 10.0 | 13.0 | 0.00 | 0.00 | 0.00 | 98 | 1009.7 |
| 20260507030440 | 55 | 309 | 11.0 | 14.0 | 0.00 | 0.00 | 0.00 | 98 | 1009.7 |
| 20260507030338 | 55 | 232 | 11.0 | 14.0 | 0.00 | 0.00 | 0.00 | 98 | 1009.7 |
| 20260507030237 | 55 | 280 | 10.0 | 14.0 | 0.00 | 0.00 | 0.00 | 98 | 1009.7 |
| 20260507030205 | 55 | 240 | 10.0 | 14.0 | 0.00 | 0.00 | 0.00 | 98 | 1009.7 |
| 20260507030027 | 55 | 323 | 9.0 | 14.0 | 0.00 | 0.00 | 0.00 | 98 | 1009.7 |
| 20260507025945 | 55 | 309 | 10.0 | 14.0 | 0.00 | 0.00 | 0.00 | 97 | 1009.7 |
| 20260507025841 | 55 | 316 | 9.0 | 14.0 | 0.00 | 0.00 | 0.00 | 97 | 1009.8 |
| 20260507025737 | 55 | 267 | 10.0 | 14.0 | 0.00 | 0.00 | 0.00 | 97 | 1009.8 |
| 20260507025656 | 55 | 261 | 10.0 | 14.0 | 0.00 | 0.00 | 0.00 | 97 | 1009.8 |
| 20260507025535 | 55 | 226 | 11.0 | 14.0 | 0.00 | 0.00 | 0.00 | 97 | 1009.8 |
| 20260507025437 | 55 | 189 | 12.0 | 14.0 | 0.00 | 0.00 | 0.00 | 97 | 1009.8 |
| 20260507025335 | 55 | 291 | 12.0 | 14.0 | 0.00 | 0.00 | 0.00 | 97 | 1009.8 |
| 20260507025237 | 55 | 246 | 11.0 | 13.0 | 0.00 | 0.00 | 0.00 | 98 | 1009.8 |
| 20260507025136 | 55 | 193 | 11.0 | 12.0 | 0.00 | 0.00 | 0.00 | 98 | 1009.8 |
| 20260507025034 | 55 | 285 | 10.0 | 12.0 | 0.00 | 0.00 | 0.00 | 98 | 1009.8 |
| 20260507024932 | 55 | 185 | 9.0 | 12.0 | 0.00 | 0.00 | 0.00 | 98 | 1009.8 |
| 20260507024830 | 55 | 264 | 11.0 | 12.0 | 0.00 | 0.00 | 0.00 | 97 | 1009.8 |
| 20260507024728 | 55 | 304 | 8.0 | 11.0 | 0.00 | 0.00 | 0.00 | 98 | 1009.8 |
| 20260507024657 | 55 | 104 | 8.0 | 12.0 | 0.00 | 0.00 | 0.00 | 98 | 1009.8 |
| 20260507024539 | 55 | 220 | 6.0 | 12.0 | 0.00 | 0.00 | 0.00 | 97 | 1009.8 |
| 20260507024438 | 55 | 219 | 6.0 | 12.0 | 0.00 | 0.00 | 0.00 | 97 | 1009.8 |
| 20260507024337 | 55 | 312 | 7.0 | 12.0 | 0.00 | 0.00 | 0.00 | 97 | 1009.3 |
| 20260507024236 | 55 | 313 | 8.0 | 13.0 | 0.00 | 0.00 | 0.00 | 97 | 1009.3 |
| 20260507024135 | 55 | 69 | 9.0 | 13.0 | 0.00 | 0.00 | 0.00 | 97 | 1009.3 |
| 20260507024033 | 55 | 130 | 7.0 | 13.0 | 0.00 | 0.00 | 0.00 | 97 | 1009.3 |
| 20260507023932 | 56 | 217 | 9.0 | 13.0 | 0.00 | 0.00 | 0.00 | 97 | 1009.3 |
| 20260507023854 | 56 | 229 | 10.0 | 13.0 | 0.00 | 0.00 | 0.00 | 97 | 1009.3 |
| 20260507023732 | 56 | 323 | 10.0 | 13.0 | 0.00 | 0.00 | 0.00 | 97 | 1009.3 |
| 20260507023630 | 56 | 223 | 11.0 | 13.0 | 0.00 | 0.00 | 0.00 | 97 | 1009.3 |
| 20260507023528 | 56 | 281 | 8.0 | 13.0 | 0.00 | 0.00 | 0.00 | 97 | 1009.3 |
| 20260507023427 | 56 | 322 | 10.0 | 13.0 | 0.00 | 0.00 | 0.00 | 98 | 1009.3 |
| 20260507023325 | 56 | 220 | 7.0 | 12.0 | 0.00 | 0.00 | 0.00 | 98 | 1009.3 |
| 20260507023235 | 56 | 248 | 10.0 | 12.0 | 0.00 | 0.00 | 0.00 | 98 | 1009.3 |
| 20260507023149 | 56 | 323 | 10.0 | 12.0 | 0.00 | 0.00 | 0.00 | 98 | 1009.3 |
| 20260507023026 | 56 | 253 | 7.0 | 11.0 | 0.00 | 0.00 | 0.00 | 98 | 1009.3 |
| 20260507022924 | 56 | 109 | 6.0 | 11.0 | 0.00 | 0.00 | 0.00 | 98 | 1009.3 |
| 20260507022843 | 56 | 322 | 6.0 | 11.0 | 0.00 | 0.00 | 0.00 | 98 | 1009.6 |
| 20260507022742 | 56 | 305 | 5.0 | 11.0 | 0.00 | 0.00 | 0.00 | 98 | 1009.6 |
| 20260507022640 | 56 | 271 | 5.0 | 11.0 | 0.00 | 0.00 | 0.00 | 98 | 1009.6 |
| 20260507022538 | 56 | 229 | 6.0 | 11.0 | 0.00 | 0.00 | 0.00 | 97 | 1009.6 |
| 20260507022440 | 56 | 326 | 8.0 | 11.0 | 0.00 | 0.00 | 0.00 | 97 | 1009.6 |
| 20260507022339 | 56 | 319 | 9.0 | 11.0 | 0.00 | 0.00 | 0.00 | 97 | 1009.6 |
| 20260507022237 | 56 | 322 | 9.0 | 11.0 | 0.00 | 0.00 | 0.00 | 97 | 1009.6 |
| 20260507022136 | 56 | 309 | 8.0 | 10.0 | 0.00 | 0.00 | 0.00 | 97 | 1009.6 |
| 20260507022054 | 56 | 250 | 7.0 | 9.0 | 0.00 | 0.00 | 0.00 | 97 | 1009.6 |
| 20260507021930 | 56 | 299 | 5.0 | 9.0 | 0.00 | 0.00 | 0.00 | 97 | 1009.6 |
| 20260507021829 | 56 | 174 | 4.0 | 9.0 | 0.00 | 0.00 | 0.00 | 97 | 1009.6 |
| 20260507021733 | 56 | 86 | 4.0 | 9.0 | 0.00 | 0.00 | 0.00 | 97 | 1009.6 |
| 20260507021703 | 56 | 148 | 5.0 | 9.0 | 0.00 | 0.00 | 0.00 | 97 | 1009.6 |
| 20260507021540 | 56 | 325 | 6.0 | 9.0 | 0.00 | 0.00 | 0.00 | 98 | 1009.6 |
| 20260507021438 | 56 | 326 | 7.0 | 9.0 | 0.00 | 0.00 | 0.00 | 98 | 1009.6 |
| 20260507021337 | 56 | 329 | 7.0 | 9.0 | 0.00 | 0.00 | 0.00 | 98 | 1009.2 |
| 20260507021239 | 56 | 226 | 7.0 | 9.0 | 0.00 | 0.00 | 0.00 | 98 | 1009.2 |
| 20260507021138 | 56 | 328 | 8.0 | 9.0 | 0.00 | 0.00 | 0.00 | 98 | 1009.2 |
| 20260507021041 | 56 | 318 | 7.0 | 9.0 | 0.00 | 0.00 | 0.00 | 97 | 1009.2 |
| 20260507020959 | 56 | 320 | 6.0 | 7.0 | 0.00 | 0.00 | 0.00 | 98 | 1009.2 |
| 20260507020837 | 56 | 145 | 4.0 | 8.0 | 0.00 | 0.00 | 0.00 | 98 | 1009.2 |
| 20260507020736 | 56 | 295 | 4.0 | 8.0 | 0.00 | 0.00 | 0.00 | 98 | 1009.2 |
| 20260507020656 | 56 | 288 | 6.0 | 8.0 | 0.00 | 0.00 | 0.00 | 97 | 1009.2 |
| 20260507020534 | 56 | 329 | 6.0 | 8.0 | 0.00 | 0.00 | 0.00 | 97 | 1009.2 |
| 20260507020431 | 56 | 219 | 6.0 | 8.0 | 0.00 | 0.00 | 0.00 | 97 | 1009.2 |
| 20260507020330 | 56 | 169 | 6.0 | 8.0 | 0.00 | 0.00 | 0.00 | 97 | 1009.2 |
| 20260507020232 | 56 | 157 | 6.0 | 8.0 | 0.00 | 0.00 | 0.00 | 97 | 1009.2 |
| 20260507020202 | 56 | 215 | 6.0 | 8.0 | 0.00 | 0.00 | 0.00 | 97 | 1009.2 |
| 20260507020038 | 56 | 160 | 7.0 | 8.0 | 0.00 | 0.00 | 0.00 | 97 | 1009.2 |
| 20260507015937 | 56 | 318 | 7.0 | 8.0 | 0.00 | 0.00 | 0.00 | 97 | 1009.2 |
| 20260507015835 | 56 | 322 | 7.0 | 8.0 | 0.00 | 0.00 | 0.00 | 97 | 1009.2 |
| 20260507015734 | 56 | 270 | 6.0 | 8.0 | 0.00 | 0.00 | 0.00 | 97 | 1009.2 |
| 20260507015634 | 56 | 270 | 6.0 | 8.0 | 0.00 | 0.00 | 0.00 | 97 | 1009.2 |
| 20260507015537 | 56 | 230 | 5.0 | 8.0 | 0.00 | 0.00 | 0.00 | 97 | 1009.2 |
| 20260507015456 | 56 | 247 | 6.0 | 8.0 | 0.00 | 0.00 | 0.00 | 97 | 1009.2 |
| 20260507015334 | 56 | 329 | 6.0 | 8.0 | 0.00 | 0.00 | 0.00 | 97 | 1009.2 |
| 20260507015232 | 56 | 326 | 6.0 | 8.0 | 0.00 | 0.00 | 0.00 | 97 | 1009.2 |
| 20260507015130 | 56 | 222 | 6.0 | 8.0 | 0.00 | 0.00 | 0.00 | 97 | 1009.2 |
| 20260507015048 | 56 | 130 | 7.0 | 8.0 | 0.00 | 0.00 | 0.00 | 97 | 1009.2 |
| 20260507014925 | 56 | 332 | 5.0 | 8.0 | 0.00 | 0.00 | 0.00 | 97 | 1009.2 |
| 20260507014829 | 56 | 312 | 5.0 | 10.0 | 0.00 | 0.00 | 0.00 | 97 | 1009.2 |
| 20260507014728 | 56 | 258 | 7.0 | 10.0 | 0.00 | 0.00 | 0.00 | 97 | 1009.2 |
| 20260507014657 | 56 | 309 | 7.0 | 11.0 | 0.00 | 0.00 | 0.00 | 97 | 1009.2 |
| 20260507014537 | 56 | 288 | 7.0 | 11.0 | 0.00 | 0.00 | 0.00 | 97 | 1009.2 |
| 20260507014456 | 56 | 326 | 7.0 | 11.0 | 0.00 | 0.00 | 0.00 | 97 | 1009.2 |
| 20260507014334 | 56 | 289 | 7.0 | 11.0 | 0.00 | 0.00 | 0.00 | 97 | 1009.1 |
| 20260507014235 | 56 | 203 | 7.0 | 11.0 | 0.00 | 0.00 | 0.00 | 97 | 1009.1 |
| 20260507014136 | 56 | 99 | 6.0 | 11.0 | 0.00 | 0.00 | 0.00 | 97 | 1009.1 |
| 20260507014038 | 56 | 117 | 7.0 | 11.0 | 0.00 | 0.00 | 0.00 | 97 | 1009.1 |
| 20260507013955 | 56 | 330 | 9.0 | 11.0 | 0.00 | 0.00 | 0.00 | 97 | 1009.1 |
| 20260507013833 | 56 | 75 | 8.0 | 11.0 | 0.00 | 0.00 | 0.00 | 97 | 1009.1 |
| 20260507013731 | 56 | 213 | 9.0 | 11.0 | 0.00 | 0.00 | 0.00 | 97 | 1009.1 |
| 20260507013628 | 56 | 278 | 8.0 | 11.0 | 0.00 | 0.00 | 0.00 | 97 | 1009.1 |
| 20260507013547 | 56 | 312 | 9.0 | 11.0 | 0.00 | 0.00 | 0.00 | 97 | 1009.1 |
| 20260507013445 | 56 | 295 | 9.0 | 11.0 | 0.00 | 0.00 | 0.00 | 97 | 1009.1 |
| 20260507013403 | 56 | 330 | 8.0 | 11.0 | 0.00 | 0.00 | 0.00 | 97 | 1009.1 |
| 20260507013236 | 56 | 182 | 8.0 | 11.0 | 0.00 | 0.00 | 0.00 | 97 | 1009.1 |
| 20260507013145 | 56 | 313 | 7.0 | 11.0 | 0.00 | 0.00 | 0.00 | 97 | 1009.1 |
| 20260507013041 | 56 | 323 | 7.0 | 11.0 | 0.00 | 0.00 | 0.00 | 97 | 1009.1 |
| 20260507012940 | 56 | 316 | 7.0 | 11.0 | 0.00 | 0.00 | 0.00 | 97 | 1009.1 |
| 20260507012838 | 56 | 322 | 8.0 | 11.0 | 0.00 | 0.00 | 0.00 | 97 | 1008.9 |
| 20260507012737 | 56 | 326 | 8.0 | 11.0 | 0.00 | 0.00 | 0.00 | 97 | 1008.9 |
| 20260507012637 | 56 | 326 | 9.0 | 11.0 | 0.00 | 0.00 | 0.00 | 97 | 1008.9 |
| 20260507012535 | 56 | 241 | 8.0 | 11.0 | 0.00 | 0.00 | 0.00 | 97 | 1008.9 |
| 20260507012437 | 56 | 145 | 7.0 | 11.0 | 0.00 | 0.00 | 0.00 | 97 | 1008.9 |
| 20260507012355 | 56 | 330 | 8.0 | 11.0 | 0.00 | 0.00 | 0.00 | 97 | 1008.9 |
| 20260507012232 | 56 | 329 | 7.0 | 12.0 | 0.00 | 0.00 | 0.00 | 97 | 1008.9 |
| 20260507012131 | 56 | 306 | 9.0 | 12.0 | 0.00 | 0.00 | 0.00 | 97 | 1008.9 |
| 20260507012029 | 56 | 319 | 10.0 | 12.0 | 0.00 | 0.00 | 0.00 | 97 | 1008.9 |
| 20260507011927 | 56 | 296 | 9.0 | 12.0 | 0.00 | 0.00 | 0.00 | 97 | 1008.9 |
| 20260507011825 | 56 | 92 | 7.0 | 12.0 | 0.00 | 0.00 | 0.00 | 97 | 1008.9 |
| 20260507011739 | 56 | 224 | 8.0 | 13.0 | 0.00 | 0.00 | 0.00 | 97 | 1008.9 |
| 20260507011651 | 56 | 304 | 9.0 | 13.0 | 0.00 | 0.00 | 0.00 | 97 | 1008.9 |
| 20260507011529 | 56 | 247 | 9.0 | 14.0 | 0.00 | 0.00 | 0.00 | 97 | 1008.9 |
| 20260507011447 | 56 | 329 | 9.0 | 14.0 | 0.00 | 0.00 | 0.00 | 97 | 1008.9 |
| 20260507011326 | 56 | 261 | 8.0 | 15.0 | 0.00 | 0.00 | 0.00 | 97 | 1009.3 |
| 20260507011244 | 56 | 325 | 8.0 | 15.0 | 0.00 | 0.00 | 0.00 | 97 | 1009.3 |
| 20260507011203 | 56 | 136 | 9.0 | 15.0 | 0.00 | 0.00 | 0.00 | 97 | 1009.3 |
| 20260507011042 | 56 | 319 | 10.0 | 15.0 | 0.00 | 0.00 | 0.00 | 97 | 1009.3 |
| 20260507010924 | 56 | 326 | 10.0 | 15.0 | 0.00 | 0.00 | 0.00 | 97 | 1009.3 |
| 20260507010842 | 56 | 313 | 12.0 | 15.0 | 0.00 | 0.00 | 0.00 | 97 | 1009.3 |
| 20260507010800 | 56 | 219 | 10.0 | 15.0 | 0.00 | 0.00 | 0.00 | 97 | 1009.3 |
| 20260507010638 | 57 | 169 | 12.0 | 15.0 | 0.00 | 0.00 | 0.00 | 97 | 1009.3 |
| 20260507010557 | 57 | 205 | 13.0 | 15.0 | 0.00 | 0.00 | 0.00 | 97 | 1009.3 |
| 20260507010435 | 57 | 328 | 10.0 | 13.0 | 0.00 | 0.00 | 0.00 | 97 | 1009.3 |
| 20260507010334 | 57 | 236 | 10.0 | 12.0 | 0.00 | 0.00 | 0.00 | 97 | 1009.3 |
| 20260507010243 | 57 | 95 | 8.0 | 12.0 | 0.00 | 0.00 | 0.00 | 97 | 1009.3 |
| 20260507010157 | 57 | 160 | 9.0 | 12.0 | 0.00 | 0.00 | 0.00 | 97 | 1009.3 |
| 20260507010034 | 57 | 328 | 8.0 | 11.0 | 0.00 | 0.00 | 0.00 | 97 | 1009.3 |
| 20260507005932 | 57 | 323 | 8.0 | 11.0 | 0.00 | 0.00 | 0.00 | 97 | 1009.3 |
| 20260507005850 | 57 | 160 | 8.0 | 11.0 | 0.00 | 0.00 | 0.00 | 97 | 1009.4 |
| 20260507005727 | 57 | 329 | 8.0 | 11.0 | 0.00 | 0.00 | 0.00 | 97 | 1009.4 |
| 20260507005627 | 57 | 302 | 7.0 | 11.0 | 0.00 | 0.00 | 0.00 | 97 | 1009.4 |
| 20260507005525 | 57 | 264 | 8.0 | 11.0 | 0.00 | 0.00 | 0.00 | 97 | 1009.4 |
| 20260507005427 | 57 | 268 | 7.0 | 11.0 | 0.00 | 0.00 | 0.00 | 97 | 1009.4 |
| 20260507005324 | 57 | 329 | 9.0 | 11.0 | 0.00 | 0.00 | 0.00 | 97 | 1009.4 |
| 20260507005243 | 57 | 165 | 9.0 | 11.0 | 0.00 | 0.00 | 0.00 | 97 | 1009.4 |
| 20260507005140 | 57 | 285 | 8.0 | 11.0 | 0.00 | 0.00 | 0.00 | 97 | 1009.4 |
| 20260507005039 | 57 | 326 | 9.0 | 11.0 | 0.00 | 0.00 | 0.00 | 97 | 1009.4 |
| 20260507004937 | 57 | 330 | 9.0 | 12.0 | 0.00 | 0.00 | 0.00 | 97 | 1009.4 |
| 20260507004835 | 57 | 328 | 9.0 | 12.0 | 0.00 | 0.00 | 0.00 | 97 | 1009.4 |
| 20260507004744 | 57 | 328 | 7.0 | 12.0 | 0.00 | 0.00 | 0.00 | 97 | 1009.4 |
| 20260507004657 | 57 | 329 | 8.0 | 12.0 | 0.00 | 0.00 | 0.00 | 97 | 1009.4 |
| 20260507004535 | 57 | 281 | 8.0 | 12.0 | 0.00 | 0.00 | 0.00 | 97 | 1009.4 |
| 20260507004432 | 57 | 320 | 8.0 | 12.0 | 0.00 | 0.00 | 0.00 | 97 | 1009.4 |
| 20260507004331 | 57 | 330 | 9.0 | 12.0 | 0.00 | 0.00 | 0.00 | 97 | 1009.6 |
| 20260507004229 | 57 | 319 | 7.0 | 12.0 | 0.00 | 0.00 | 0.00 | 97 | 1009.6 |
| 20260507004127 | 57 | 244 | 9.0 | 12.0 | 0.00 | 0.00 | 0.00 | 97 | 1009.6 |
| 20260507004027 | 57 | 330 | 8.0 | 11.0 | 0.00 | 0.00 | 0.00 | 97 | 1009.6 |
| 20260507003949 | 57 | 298 | 8.0 | 11.0 | 0.00 | 0.00 | 0.00 | 97 | 1009.6 |
| 20260507003827 | 57 | 325 | 9.0 | 11.0 | 0.00 | 0.00 | 0.00 | 97 | 1009.6 |
| 20260507003726 | 57 | 316 | 9.0 | 11.0 | 0.00 | 0.00 | 0.00 | 97 | 1009.6 |
| 20260507003625 | 57 | 144 | 8.0 | 11.0 | 0.00 | 0.00 | 0.00 | 97 | 1009.6 |
| 20260507003528 | 57 | 330 | 3.0 | 11.0 | 0.00 | 0.00 | 0.00 | 97 | 1009.6 |
| 20260507003426 | 57 | 325 | 4.0 | 11.0 | 0.00 | 0.00 | 0.00 | 97 | 1009.6 |
| 20260507003324 | 57 | 326 | 7.0 | 12.0 | 0.00 | 0.00 | 0.00 | 97 | 1009.6 |
| 20260507003247 | 57 | 330 | 8.0 | 14.0 | 0.00 | 0.00 | 0.00 | 97 | 1009.6 |
| 20260507003157 | 57 | 323 | 7.0 | 14.0 | 0.00 | 0.00 | 0.00 | 97 | 1009.6 |
| 20260507003033 | 58 | 284 | 7.0 | 14.0 | 0.00 | 0.00 | 0.00 | 97 | 1009.6 |
| 20260507002953 | 57 | 323 | 7.0 | 14.0 | 0.00 | 0.00 | 0.00 | 97 | 1009.6 |
| 20260507002830 | 57 | 325 | 8.0 | 16.0 | 0.00 | 0.00 | 0.00 | 97 | 1009.1 |
| 20260507002749 | 57 | 281 | 7.0 | 16.0 | 0.00 | 0.00 | 0.00 | 97 | 1009.1 |
| 20260507002627 | 57 | 326 | 8.0 | 16.0 | 0.00 | 0.00 | 0.00 | 97 | 1009.1 |
| 20260507002526 | 57 | 126 | 8.0 | 16.0 | 0.00 | 0.00 | 0.00 | 97 | 1009.1 |
| 20260507002432 | 57 | 184 | 9.0 | 16.0 | 0.00 | 0.00 | 0.00 | 97 | 1009.1 |
| 20260507002330 | 57 | 323 | 9.0 | 16.0 | 0.00 | 0.00 | 0.00 | 97 | 1009.1 |
| 20260507002229 | 57 | 287 | 7.0 | 16.0 | 0.00 | 0.00 | 0.00 | 97 | 1009.1 |
| 20260507002127 | 57 | 313 | 8.0 | 16.0 | 0.00 | 0.00 | 0.00 | 97 | 1009.1 |
| 20260507002046 | 57 | 256 | 9.0 | 16.0 | 0.00 | 0.00 | 0.00 | 97 | 1009.1 |
| 20260507001924 | 57 | 241 | 10.0 | 16.0 | 0.00 | 0.00 | 0.00 | 97 | 1009.1 |
| 20260507001843 | 57 | 326 | 9.0 | 16.0 | 0.00 | 0.00 | 0.00 | 97 | 1009.1 |
| 20260507001737 | 58 | 265 | 11.0 | 16.0 | 0.00 | 0.00 | 0.00 | 97 | 1009.1 |
| 20260507001646 | 57 | 271 | 13.0 | 16.0 | 0.00 | 0.00 | 0.00 | 97 | 1009.1 |
| 20260507001544 | 58 | 329 | 12.0 | 16.0 | 0.00 | 0.00 | 0.00 | 97 | 1009.1 |
| 20260507001441 | 58 | 200 | 9.0 | 16.0 | 0.00 | 0.00 | 0.00 | 97 | 1009.1 |
| 20260507001340 | 58 | 184 | 12.0 | 16.0 | 0.00 | 0.00 | 0.00 | 97 | 1009.5 |
| 20260507001238 | 58 | 227 | 9.0 | 16.0 | 0.00 | 0.00 | 0.00 | 97 | 1009.5 |
| 20260507001136 | 58 | 263 | 10.0 | 14.0 | 0.00 | 0.00 | 0.00 | 97 | 1009.5 |
| 20260507001033 | 58 | 232 | 11.0 | 14.0 | 0.00 | 0.00 | 0.00 | 97 | 1009.5 |
| 20260507000937 | 58 | 329 | 10.0 | 14.0 | 0.00 | 0.00 | 0.00 | 97 | 1009.5 |
| 20260507000835 | 58 | 325 | 10.0 | 14.0 | 0.00 | 0.00 | 0.00 | 97 | 1009.5 |
| 20260507000754 | 58 | 92 | 10.0 | 14.0 | 0.00 | 0.00 | 0.00 | 97 | 1009.5 |
| 20260507000631 | 58 | 189 | 9.0 | 14.0 | 0.00 | 0.00 | 0.00 | 97 | 1009.5 |
| 20260507000532 | 58 | 308 | 9.0 | 14.0 | 0.00 | 0.00 | 0.00 | 97 | 1009.5 |
| 20260507000429 | 58 | 251 | 9.0 | 14.0 | 0.00 | 0.00 | 0.00 | 97 | 1009.5 |
| 20260507000329 | 58 | 354 | 9.0 | 13.0 | 0.00 | 0.00 | 0.00 | 97 | 1009.5 |
| 20260507000248 | 58 | 227 | 7.0 | 13.0 | 0.00 | 0.00 | 0.00 | 97 | 1009.5 |
| 20260507000222 | 58 | 356 | 8.0 | 13.0 | 0.00 | 0.00 | 0.00 | 97 | 1009.5 |
| 20260507000038 | 58 | 328 | 9.0 | 13.0 | 0.00 | 0.00 | 0.00 | 97 | 1009.5 |
| 20260506235937 | 58 | 281 | 7.0 | 13.0 | 0.00 | 0.00 | 0.00 | 97 | 1009.5 |
| 20260506235836 | 58 | 137 | 6.0 | 13.0 | 0.00 | 0.00 | 0.00 | 97 | 1009.0 |
| 20260506235734 | 58 | 360 | 7.0 | 13.0 | 0.00 | 0.00 | 0.00 | 97 | 1009.0 |
| 20260506235631 | 58 | 174 | 6.0 | 13.0 | 0.00 | 0.00 | 0.00 | 97 | 1009.0 |
| 20260506235529 | 58 | 333 | 5.0 | 13.0 | 0.00 | 0.00 | 0.00 | 97 | 1009.0 |
| 20260506235433 | 58 | 329 | 4.0 | 13.0 | 0.00 | 0.00 | 0.00 | 97 | 1009.0 |
| 20260506235332 | 58 | 326 | 7.0 | 16.0 | 0.00 | 0.00 | 0.00 | 97 | 1009.0 |
| 20260506235232 | 58 | 328 | 6.0 | 16.0 | 0.00 | 0.00 | 0.00 | 97 | 1009.0 |
| 20260506235150 | 59 | 119 | 11.0 | 16.0 | 0.00 | 0.00 | 0.00 | 97 | 1009.0 |
| 20260506235046 | 59 | 109 | 7.0 | 16.0 | 0.00 | 0.00 | 0.00 | 97 | 1009.0 |
| 20260506234925 | 59 | 294 | 8.0 | 16.0 | 0.00 | 0.00 | 0.00 | 97 | 1009.0 |
| 20260506234824 | 58 | 220 | 6.0 | 16.0 | 0.00 | 0.00 | 0.00 | 97 | 1009.0 |
| 20260506234755 | 59 | 167 | 8.0 | 16.0 | 0.00 | 0.00 | 0.00 | 97 | 1009.0 |
| 20260506234645 | 59 | 328 | 8.0 | 16.0 | 0.00 | 0.00 | 0.00 | 97 | 1009.0 |
| 20260506234544 | 59 | 199 | 9.0 | 16.0 | 0.00 | 0.00 | 0.00 | 97 | 1009.0 |
| 20260506234442 | 59 | 172 | 9.0 | 12.0 | 0.00 | 0.00 | 0.00 | 97 | 1009.0 |
| 20260506234322 | 59 | 318 | 8.0 | 11.0 | 0.00 | 0.00 | 0.00 | 97 | 1009.0 |
| 20260506234243 | 59 | 277 | 7.0 | 11.0 | 0.00 | 0.00 | 0.00 | 97 | 1009.0 |
| 20260506234142 | 59 | 220 | 5.0 | 8.0 | 0.00 | 0.00 | 0.00 | 97 | 1009.0 |
| 20260506234041 | 59 | 247 | 6.0 | 9.0 | 0.00 | 0.00 | 0.00 | 97 | 1009.0 |
| 20260506233958 | 59 | 145 | 6.0 | 11.0 | 0.00 | 0.00 | 0.00 | 97 | 1009.0 |
| 20260506233840 | 59 | 212 | 6.0 | 11.0 | 0.00 | 0.00 | 0.00 | 97 | 1009.0 |
| 20260506233738 | 59 | 359 | 5.0 | 11.0 | 0.00 | 0.00 | 0.00 | 97 | 1009.0 |
| 20260506233637 | 59 | 329 | 6.0 | 11.0 | 0.00 | 0.00 | 0.00 | 96 | 1009.0 |
| 20260506233536 | 59 | 330 | 6.0 | 11.0 | 0.00 | 0.00 | 0.00 | 97 | 1009.0 |
| 20260506233454 | 59 | 296 | 6.0 | 11.0 | 0.00 | 0.00 | 0.00 | 96 | 1009.0 |
| 20260506233332 | 59 | 329 | 7.0 | 11.0 | 0.00 | 0.00 | 0.00 | 96 | 1009.0 |
| 20260506233301 | 59 | 308 | 8.0 | 11.0 | 0.00 | 0.00 | 0.00 | 96 | 1009.0 |
| 20260506233151 | 59 | 316 | 8.0 | 11.0 | 0.00 | 0.00 | 0.00 | 96 | 1009.0 |
| 20260506233032 | 59 | 274 | 6.0 | 11.0 | 0.00 | 0.00 | 0.00 | 96 | 1009.0 |
| 20260506232950 | 59 | 306 | 6.0 | 12.0 | 0.00 | 0.00 | 0.00 | 96 | 1009.0 |
| 20260506232828 | 59 | 206 | 8.0 | 12.0 | 0.00 | 0.00 | 0.00 | 96 | 1009.3 |
| 20260506232725 | 59 | 333 | 6.0 | 12.0 | 0.00 | 0.00 | 0.00 | 96 | 1009.3 |
| 20260506232643 | 59 | 72 | 8.0 | 12.0 | 0.00 | 0.00 | 0.00 | 96 | 1009.3 |
| 20260506232540 | 59 | 282 | 8.0 | 12.0 | 0.00 | 0.00 | 0.00 | 96 | 1009.3 |
| 20260506232459 | 59 | 308 | 7.0 | 14.0 | 0.00 | 0.00 | 0.00 | 96 | 1009.3 |
| 20260506232336 | 59 | 304 | 7.0 | 14.0 | 0.00 | 0.00 | 0.00 | 96 | 1009.3 |
| 20260506232239 | 59 | 113 | 7.0 | 14.0 | 0.00 | 0.00 | 0.00 | 96 | 1009.3 |
| 20260506232137 | 60 | 346 | 8.0 | 14.0 | 0.00 | 0.00 | 0.00 | 96 | 1009.3 |
| 20260506232035 | 60 | 356 | 7.0 | 14.0 | 0.00 | 0.00 | 0.00 | 96 | 1009.3 |
| 20260506231934 | 60 | 243 | 7.0 | 15.0 | 0.00 | 0.00 | 0.00 | 96 | 1009.3 |
| 20260506231833 | 60 | 330 | 9.0 | 15.0 | 0.00 | 0.00 | 0.00 | 96 | 1009.3 |
| 20260506231743 | 60 | 141 | 7.0 | 15.0 | 0.00 | 0.00 | 0.00 | 96 | 1009.3 |
| 20260506231652 | 60 | 176 | 10.0 | 15.0 | 0.00 | 0.00 | 0.00 | 96 | 1009.3 |
| 20260506231535 | 60 | 14 | 7.0 | 15.0 | 0.00 | 0.00 | 0.00 | 96 | 1009.3 |
| 20260506231436 | 60 | 239 | 9.0 | 15.0 | 0.00 | 0.00 | 0.00 | 96 | 1009.3 |
| 20260506231333 | 61 | 295 | 10.0 | 15.0 | 0.00 | 0.00 | 0.00 | 96 | 1009.2 |
| 20260506231233 | 61 | 328 | 10.0 | 15.0 | 0.00 | 0.00 | 0.00 | 96 | 1009.2 |
| 20260506231131 | 61 | 340 | 11.0 | 15.0 | 0.00 | 0.00 | 0.00 | 96 | 1009.2 |
| 20260506231029 | 61 | 328 | 10.0 | 13.0 | 0.00 | 0.00 | 0.00 | 96 | 1009.2 |
| 20260506230927 | 61 | 356 | 9.0 | 13.0 | 0.00 | 0.00 | 0.00 | 96 | 1009.2 |
| 20260506230850 | 61 | 313 | 8.0 | 13.0 | 0.00 | 0.00 | 0.00 | 96 | 1009.2 |
| 20260506230726 | 62 | 328 | 9.0 | 13.0 | 0.00 | 0.00 | 0.00 | 96 | 1009.2 |
| 20260506230644 | 62 | 352 | 8.0 | 13.0 | 0.00 | 0.00 | 0.00 | 96 | 1009.2 |
| 20260506230542 | 62 | 326 | 7.0 | 13.0 | 0.00 | 0.00 | 0.00 | 96 | 1009.2 |
| 20260506230441 | 62 | 323 | 7.0 | 13.0 | 0.00 | 0.00 | 0.00 | 97 | 1009.2 |
| 20260506230400 | 62 | 229 | 8.0 | 13.0 | 0.00 | 0.00 | 0.00 | 97 | 1009.2 |
| 20260506230237 | 62 | 329 | 8.0 | 12.0 | 0.00 | 0.00 | 0.00 | 97 | 1009.2 |
| 20260506230207 | 62 | 319 | 8.0 | 12.0 | 0.00 | 0.00 | 0.00 | 97 | 1009.2 |
| 20260506230104 | 62 | 349 | 6.0 | 12.0 | 0.00 | 0.00 | 0.00 | 97 | 1009.2 |
| 20260506225941 | 62 | 136 | 7.0 | 12.0 | 0.00 | 0.00 | 0.00 | 97 | 1009.2 |
| 20260506225903 | 62 | 337 | 7.0 | 12.0 | 0.00 | 0.00 | 0.00 | 97 | 1009.0 |
| 20260506225741 | 62 | 344 | 8.0 | 12.0 | 0.00 | 0.00 | 0.00 | 97 | 1009.0 |
| 20260506225639 | 62 | 329 | 8.0 | 12.0 | 0.00 | 0.00 | 0.00 | 97 | 1009.0 |
| 20260506225538 | 62 | 332 | 8.0 | 12.0 | 0.00 | 0.00 | 0.00 | 97 | 1009.0 |
| 20260506225436 | 62 | 328 | 8.0 | 12.0 | 0.00 | 0.00 | 0.00 | 97 | 1009.0 |
| 20260506225355 | 63 | 333 | 5.0 | 12.0 | 0.00 | 0.00 | 0.00 | 97 | 1009.0 |
| 20260506225233 | 62 | 316 | 5.0 | 12.0 | 0.00 | 0.00 | 0.00 | 97 | 1009.0 |
| 20260506225152 | 62 | 350 | 9.0 | 12.0 | 0.00 | 0.00 | 0.00 | 97 | 1009.0 |
| 20260506225034 | 62 | 185 | 6.0 | 12.0 | 0.00 | 0.00 | 0.00 | 97 | 1009.0 |
| 20260506224954 | 63 | 326 | 5.0 | 12.0 | 0.00 | 0.00 | 0.00 | 97 | 1009.0 |
| 20260506224831 | 62 | 326 | 10.0 | 12.0 | 0.00 | 0.00 | 0.00 | 97 | 1009.0 |
| 20260506224741 | 62 | 333 | 7.0 | 12.0 | 0.00 | 0.00 | 0.00 | 97 | 1009.0 |
| 20260506224649 | 62 | 333 | 5.0 | 12.0 | 0.00 | 0.00 | 0.00 | 97 | 1009.0 |
| 20260506224526 | 62 | 333 | 2.0 | 12.0 | 0.00 | 0.00 | 0.00 | 97 | 1009.0 |
| 20260506224424 | 62 | 319 | 6.0 | 12.0 | 0.00 | 0.00 | 0.00 | 97 | 1009.0 |
| 20260506224328 | 62 | 347 | 6.0 | 12.0 | 0.00 | 0.00 | 0.00 | 97 | 1008.6 |
| 20260506224226 | 62 | 326 | 8.0 | 12.0 | 0.00 | 0.00 | 0.00 | 97 | 1008.6 |
| 20260506224124 | 62 | 325 | 6.0 | 12.0 | 0.00 | 0.00 | 0.00 | 97 | 1008.6 |
| 20260506224043 | 62 | 325 | 6.0 | 12.0 | 0.00 | 0.00 | 0.00 | 97 | 1008.6 |
| 20260506223942 | 62 | 326 | 5.0 | 12.0 | 0.00 | 0.00 | 0.00 | 97 | 1008.6 |
| 20260506223839 | 62 | 329 | 7.0 | 12.0 | 0.00 | 0.00 | 0.00 | 97 | 1008.6 |
| 20260506223759 | 62 | 315 | 8.0 | 12.0 | 0.00 | 0.00 | 0.00 | 97 | 1008.6 |
| 20260506223636 | 62 | 328 | 7.0 | 13.0 | 0.00 | 0.00 | 0.00 | 97 | 1008.6 |
| 20260506223538 | 62 | 330 | 4.0 | 13.0 | 0.00 | 0.00 | 0.00 | 97 | 1008.6 |
| 20260506223436 | 62 | 323 | 5.0 | 13.0 | 0.00 | 0.00 | 0.00 | 97 | 1008.6 |
| 20260506223334 | 62 | 329 | 7.0 | 13.0 | 0.00 | 0.00 | 0.00 | 97 | 1008.6 |
| 20260506223243 | 62 | 328 | 3.0 | 13.0 | 0.00 | 0.00 | 0.00 | 97 | 1008.6 |
| 20260506223154 | 62 | 335 | 5.0 | 13.0 | 0.00 | 0.00 | 0.00 | 97 | 1008.6 |
| 20260506223030 | 62 | 333 | 6.0 | 13.0 | 0.00 | 0.00 | 0.00 | 97 | 1008.6 |
| 20260506222928 | 63 | 54 | 6.0 | 13.0 | 0.00 | 0.00 | 0.00 | 97 | 1008.6 |
| 20260506222831 | 62 | 319 | 8.0 | 13.0 | 0.00 | 0.00 | 0.00 | 97 | 1008.2 |
| 20260506222730 | 62 | 326 | 8.0 | 13.0 | 0.00 | 0.00 | 0.00 | 97 | 1008.2 |
| 20260506222628 | 62 | 306 | 7.0 | 13.0 | 0.00 | 0.00 | 0.00 | 97 | 1008.2 |
| 20260506222525 | 62 | 333 | 8.0 | 13.0 | 0.00 | 0.00 | 0.00 | 97 | 1008.2 |
| 20260506222424 | 62 | 346 | 7.0 | 13.0 | 0.00 | 0.00 | 0.00 | 97 | 1008.2 |
| 20260506222342 | 63 | 333 | 8.0 | 13.0 | 0.00 | 0.00 | 0.00 | 97 | 1008.2 |
| 20260506222241 | 63 | 326 | 7.0 | 12.0 | 0.00 | 0.00 | 0.00 | 97 | 1008.2 |
| 20260506222200 | 63 | 315 | 7.0 | 12.0 | 0.00 | 0.00 | 0.00 | 97 | 1008.2 |
| 20260506222041 | 63 | 326 | 8.0 | 12.0 | 0.00 | 0.00 | 0.00 | 97 | 1008.2 |
| 20260506221938 | 63 | 329 | 8.0 | 12.0 | 0.00 | 0.00 | 0.00 | 97 | 1008.2 |
| 20260506221835 | 62 | 333 | 6.0 | 12.0 | 0.00 | 0.00 | 0.00 | 97 | 1008.2 |
| 20260506221734 | 63 | 328 | 6.0 | 12.0 | 0.00 | 0.00 | 0.00 | 97 | 1008.2 |
| 20260506221703 | 62 | 315 | 5.0 | 12.0 | 0.00 | 0.00 | 0.00 | 97 | 1008.2 |
| 20260506221601 | 63 | 357 | 6.0 | 12.0 | 0.00 | 0.00 | 0.00 | 97 | 1008.2 |
| 20260506221439 | 62 | 333 | 8.0 | 12.0 | 0.00 | 0.00 | 0.00 | 97 | 1008.2 |
| 20260506221336 | 63 | 349 | 7.0 | 12.0 | 0.00 | 0.00 | 0.00 | 97 | 1008.8 |
| 20260506221238 | 62 | 340 | 5.0 | 12.0 | 0.00 | 0.00 | 0.00 | 97 | 1008.8 |
| 20260506221137 | 63 | 325 | 6.0 | 12.0 | 0.00 | 0.00 | 0.00 | 97 | 1008.8 |
| 20260506221037 | 63 | 342 | 9.0 | 12.0 | 0.00 | 0.00 | 0.00 | 97 | 1008.8 |
| 20260506220935 | 63 | 330 | 9.0 | 11.0 | 0.00 | 0.00 | 0.00 | 97 | 1008.8 |
| 20260506220853 | 62 | 322 | 6.0 | 9.0 | 0.00 | 0.00 | 0.00 | 97 | 1008.8 |
| 20260506220731 | 63 | 350 | 5.0 | 7.0 | 0.00 | 0.00 | 0.00 | 97 | 1008.8 |
| 20260506220650 | 62 | 316 | 6.0 | 7.0 | 0.00 | 0.00 | 0.00 | 97 | 1008.8 |
| 20260506220527 | 62 | 325 | 2.0 | 7.0 | 0.00 | 0.00 | 0.00 | 97 | 1008.8 |
| 20260506220428 | 62 | 325 | 4.0 | 7.0 | 0.00 | 0.00 | 0.00 | 97 | 1008.8 |
| 20260506220328 | 62 | 323 | 1.0 | 7.0 | 0.00 | 0.00 | 0.00 | 97 | 1008.8 |
| 20260506220237 | 62 | 315 | 1.0 | 8.0 | 0.00 | 0.00 | 0.00 | 97 | 1008.8 |
| 20260506220147 | 62 | 319 | 3.0 | 8.0 | 0.00 | 0.00 | 0.00 | 97 | 1008.8 |
| 20260506220044 | 62 | 319 | 4.0 | 8.0 | 0.00 | 0.00 | 0.00 | 97 | 1008.8 |
| 20260506215941 | 62 | 325 | 4.0 | 8.0 | 0.00 | 0.00 | 0.00 | 97 | 1008.8 |
| 20260506215841 | 62 | 313 | 4.0 | 8.0 | 0.00 | 0.00 | 0.00 | 97 | 1008.0 |
| 20260506215739 | 62 | 319 | 1.0 | 8.0 | 0.00 | 0.00 | 0.00 | 97 | 1008.0 |
| 20260506215642 | 62 | 316 | 4.0 | 8.0 | 0.00 | 0.00 | 0.00 | 97 | 1008.0 |
| 20260506215602 | 62 | 319 | 6.0 | 8.0 | 0.00 | 0.00 | 0.00 | 97 | 1008.0 |
| 20260506215439 | 62 | 333 | 5.0 | 8.0 | 0.00 | 0.00 | 0.00 | 97 | 1008.0 |
| 20260506215336 | 62 | 326 | 4.0 | 8.0 | 0.00 | 0.00 | 0.00 | 97 | 1008.0 |
| 20260506215232 | 62 | 322 | 3.0 | 8.0 | 0.00 | 0.00 | 0.00 | 97 | 1008.0 |
| 20260506215131 | 62 | 329 | 4.0 | 8.0 | 0.00 | 0.00 | 0.00 | 97 | 1008.0 |
| 20260506215029 | 62 | 326 | 3.0 | 8.0 | 0.00 | 0.00 | 0.00 | 97 | 1008.0 |
| 20260506214928 | 62 | 333 | 4.0 | 8.0 | 0.00 | 0.00 | 0.00 | 97 | 1008.0 |
| 20260506214829 | 62 | 323 | 6.0 | 8.0 | 0.00 | 0.00 | 0.00 | 96 | 1008.0 |
| 20260506214740 | 62 | 320 | 4.0 | 7.0 | 0.00 | 0.00 | 0.00 | 96 | 1008.0 |
| 20260506214649 | 62 | 336 | 4.0 | 7.0 | 0.00 | 0.00 | 0.00 | 96 | 1008.0 |
| 20260506214527 | 62 | 340 | 6.0 | 7.0 | 0.00 | 0.00 | 0.00 | 97 | 1008.0 |
| 20260506214446 | 62 | 319 | 4.0 | 7.0 | 0.00 | 0.00 | 0.00 | 97 | 1008.0 |
| 20260506214344 | 62 | 340 | 4.0 | 7.0 | 0.00 | 0.00 | 0.00 | 96 | 1008.0 |
| 20260506214241 | 62 | 340 | 3.0 | 7.0 | 0.00 | 0.00 | 0.00 | 97 | 1008.0 |
| 20260506214159 | 62 | 342 | 3.0 | 7.0 | 0.00 | 0.00 | 0.00 | 97 | 1008.0 |
| 20260506214041 | 62 | 333 | 2.0 | 7.0 | 0.00 | 0.00 | 0.00 | 97 | 1008.0 |
| 20260506214000 | 62 | 326 | 4.0 | 7.0 | 0.00 | 0.00 | 0.00 | 96 | 1008.0 |
| 20260506213837 | 62 | 333 | 5.0 | 7.0 | 0.00 | 0.00 | 0.00 | 96 | 1008.0 |
| 20260506213736 | 62 | 332 | 5.0 | 7.0 | 0.00 | 0.00 | 0.00 | 96 | 1008.0 |
| 20260506213654 | 62 | 330 | 3.0 | 7.0 | 0.00 | 0.00 | 0.00 | 96 | 1008.0 |
| 20260506213531 | 62 | 309 | 2.0 | 7.0 | 0.00 | 0.00 | 0.00 | 96 | 1008.0 |
| 20260506213449 | 63 | 323 | 2.0 | 8.0 | 0.00 | 0.00 | 0.00 | 96 | 1008.0 |
| 20260506213347 | 62 | 328 | 4.0 | 9.0 | 0.00 | 0.00 | 0.00 | 96 | 1008.0 |
| 20260506213246 | 62 | 328 | 6.0 | 9.0 | 0.00 | 0.00 | 0.00 | 96 | 1008.0 |
| 20260506213201 | 62 | 320 | 6.0 | 9.0 | 0.00 | 0.00 | 0.00 | 96 | 1008.0 |
| 20260506213040 | 62 | 326 | 5.0 | 9.0 | 0.00 | 0.00 | 0.00 | 96 | 1008.0 |
| 20260506212937 | 62 | 326 | 4.0 | 9.0 | 0.00 | 0.00 | 0.00 | 96 | 1008.0 |
| 20260506212837 | 62 | 333 | 4.0 | 9.0 | 0.00 | 0.00 | 0.00 | 96 | 1008.0 |
| 20260506212735 | 62 | 323 | 3.0 | 9.0 | 0.00 | 0.00 | 0.00 | 96 | 1008.0 |
| 20260506212634 | 62 | 332 | 6.0 | 9.0 | 0.00 | 0.00 | 0.00 | 96 | 1008.0 |
| 20260506212532 | 62 | 329 | 6.0 | 9.0 | 0.00 | 0.00 | 0.00 | 96 | 1008.0 |
| 20260506212434 | 62 | 326 | 4.0 | 9.0 | 0.00 | 0.00 | 0.00 | 96 | 1008.0 |
| 20260506212353 | 62 | 315 | 5.0 | 9.0 | 0.00 | 0.00 | 0.00 | 96 | 1008.0 |
| 20260506212229 | 62 | 326 | 4.0 | 9.0 | 0.00 | 0.00 | 0.00 | 96 | 1008.0 |
| 20260506212151 | 63 | 329 | 6.0 | 9.0 | 0.00 | 0.00 | 0.00 | 96 | 1008.0 |
| 20260506212029 | 62 | 326 | 7.0 | 9.0 | 0.00 | 0.00 | 0.00 | 96 | 1008.0 |
| 20260506211928 | 62 | 332 | 4.0 | 9.0 | 0.00 | 0.00 | 0.00 | 96 | 1008.0 |
| 20260506211827 | 62 | 337 | 6.0 | 9.0 | 0.00 | 0.00 | 0.00 | 96 | 1008.0 |
| 20260506211731 | 63 | 336 | 7.0 | 9.0 | 0.00 | 0.00 | 0.00 | 96 | 1008.0 |
| 20260506211659 | 62 | 335 | 6.0 | 9.0 | 0.00 | 0.00 | 0.00 | 96 | 1008.0 |
| 20260506211539 | 62 | 323 | 5.0 | 8.0 | 0.00 | 0.00 | 0.00 | 96 | 1008.0 |
| 20260506211458 | 62 | 315 | 4.0 | 11.0 | 0.00 | 0.00 | 0.00 | 96 | 1008.0 |
| 20260506211355 | 62 | 322 | 5.0 | 12.0 | 0.00 | 0.00 | 0.00 | 96 | 1007.9 |
| 20260506211233 | 62 | 322 | 6.0 | 12.0 | 0.00 | 0.00 | 0.00 | 96 | 1007.9 |
| 20260506211132 | 62 | 322 | 7.0 | 12.0 | 0.00 | 0.00 | 0.00 | 96 | 1007.9 |
| 20260506211030 | 62 | 309 | 6.0 | 12.0 | 0.00 | 0.00 | 0.00 | 96 | 1007.9 |
| 20260506210934 | 62 | 318 | 7.0 | 12.0 | 0.00 | 0.00 | 0.00 | 96 | 1007.9 |
| 20260506210832 | 62 | 326 | 6.0 | 12.0 | 0.00 | 0.00 | 0.00 | 96 | 1007.9 |
| 20260506210731 | 62 | 323 | 5.0 | 12.0 | 0.00 | 0.00 | 0.00 | 96 | 1007.9 |
| 20260506210650 | 62 | 320 | 5.0 | 12.0 | 0.00 | 0.00 | 0.00 | 96 | 1007.9 |
| 20260506210527 | 62 | 318 | 8.0 | 12.0 | 0.00 | 0.00 | 0.00 | 96 | 1007.9 |
| 20260506210429 | 62 | 322 | 9.0 | 11.0 | 0.00 | 0.00 | 0.00 | 96 | 1007.9 |
| 20260506210327 | 62 | 308 | 6.0 | 11.0 | 0.00 | 0.00 | 0.00 | 96 | 1007.9 |
| 20260506210228 | 62 | 322 | 5.0 | 11.0 | 0.00 | 0.00 | 0.00 | 96 | 1007.9 |
| 20260506210200 | 62 | 337 | 5.0 | 11.0 | 0.00 | 0.00 | 0.00 | 96 | 1007.9 |
| 20260506210037 | 62 | 323 | 5.0 | 11.0 | 0.00 | 0.00 | 0.00 | 96 | 1007.9 |
| 20260506205939 | 62 | 320 | 5.0 | 11.0 | 0.00 | 0.00 | 0.00 | 96 | 1007.9 |
| 20260506205838 | 62 | 326 | 6.0 | 11.0 | 0.00 | 0.00 | 0.00 | 96 | 1007.6 |
| 20260506205735 | 62 | 318 | 5.0 | 10.0 | 0.00 | 0.00 | 0.00 | 96 | 1007.6 |
| 20260506205635 | 62 | 320 | 4.0 | 10.0 | 0.00 | 0.00 | 0.00 | 96 | 1007.6 |
| 20260506205538 | 62 | 308 | 3.0 | 10.0 | 0.00 | 0.00 | 0.00 | 96 | 1007.6 |
| 20260506205437 | 62 | 308 | 5.0 | 10.0 | 0.00 | 0.00 | 0.00 | 96 | 1007.6 |
| 20260506205354 | 62 | 325 | 6.0 | 10.0 | 0.00 | 0.00 | 0.00 | 96 | 1007.6 |
| 20260506205254 | 62 | 330 | 6.0 | 10.0 | 0.00 | 0.00 | 0.00 | 96 | 1007.6 |
| 20260506205132 | 62 | 328 | 4.0 | 10.0 | 0.00 | 0.00 | 0.00 | 96 | 1007.6 |
| 20260506205030 | 62 | 322 | 5.0 | 10.0 | 0.00 | 0.00 | 0.00 | 96 | 1007.6 |
| 20260506204929 | 62 | 322 | 5.0 | 10.0 | 0.00 | 0.00 | 0.00 | 96 | 1007.6 |
| 20260506204828 | 62 | 306 | 4.0 | 10.0 | 0.00 | 0.00 | 0.00 | 96 | 1007.6 |
| 20260506204802 | 62 | 330 | 4.0 | 12.0 | 0.00 | 0.00 | 0.00 | 96 | 1007.6 |
| 20260506204651 | 62 | 323 | 5.0 | 12.0 | 0.00 | 0.00 | 0.00 | 96 | 1007.6 |
| 20260506204529 | 62 | 320 | 4.0 | 12.0 | 0.00 | 0.00 | 0.00 | 96 | 1007.6 |
| 20260506204447 | 62 | 322 | 3.0 | 12.0 | 0.00 | 0.00 | 0.00 | 96 | 1007.6 |
| 20260506204324 | 62 | 322 | 5.0 | 12.0 | 0.00 | 0.00 | 0.00 | 96 | 1008.1 |
| 20260506204242 | 62 | 316 | 5.0 | 12.0 | 0.00 | 0.00 | 0.00 | 96 | 1008.1 |
| 20260506204140 | 62 | 323 | 6.0 | 12.0 | 0.00 | 0.00 | 0.00 | 96 | 1008.1 |
| 20260506204039 | 62 | 326 | 4.0 | 12.0 | 0.00 | 0.00 | 0.00 | 96 | 1008.1 |
| 20260506203958 | 62 | 320 | 7.0 | 12.0 | 0.00 | 0.00 | 0.00 | 96 | 1008.1 |
| 20260506203900 | 62 | 329 | 8.0 | 12.0 | 0.00 | 0.00 | 0.00 | 96 | 1008.1 |
| 20260506203757 | 62 | 318 | 9.0 | 12.0 | 0.00 | 0.00 | 0.00 | 96 | 1008.1 |
| 20260506203635 | 62 | 322 | 9.0 | 12.0 | 0.00 | 0.00 | 0.00 | 96 | 1008.1 |
| 20260506203532 | 62 | 326 | 7.0 | 11.0 | 0.00 | 0.00 | 0.00 | 96 | 1008.1 |
| 20260506203430 | 62 | 326 | 5.0 | 11.0 | 0.00 | 0.00 | 0.00 | 96 | 1008.1 |
| 20260506203328 | 62 | 316 | 5.0 | 11.0 | 0.00 | 0.00 | 0.00 | 96 | 1008.1 |
| 20260506203226 | 62 | 328 | 7.0 | 12.0 | 0.00 | 0.00 | 0.00 | 96 | 1008.1 |
| 20260506203157 | 62 | 323 | 5.0 | 12.0 | 0.00 | 0.00 | 0.00 | 96 | 1008.1 |
| 20260506203040 | 62 | 340 | 4.0 | 12.0 | 0.00 | 0.00 | 0.00 | 96 | 1008.1 |
| 20260506202939 | 62 | 323 | 7.0 | 12.0 | 0.00 | 0.00 | 0.00 | 96 | 1008.1 |
| 20260506202837 | 62 | 330 | 8.0 | 12.0 | 0.00 | 0.00 | 0.00 | 96 | 1008.1 |
| 20260506202735 | 62 | 326 | 9.0 | 12.0 | 0.00 | 0.00 | 0.00 | 96 | 1008.1 |
| 20260506202634 | 62 | 329 | 7.0 | 12.0 | 0.00 | 0.00 | 0.00 | 96 | 1008.1 |
| 20260506202552 | 62 | 318 | 5.0 | 12.0 | 0.00 | 0.00 | 0.00 | 96 | 1008.1 |
| 20260506202430 | 62 | 319 | 7.0 | 12.0 | 0.00 | 0.00 | 0.00 | 96 | 1008.1 |
| 20260506202332 | 62 | 325 | 4.0 | 11.0 | 0.00 | 0.00 | 0.00 | 96 | 1008.1 |
| 20260506202230 | 62 | 335 | 7.0 | 11.0 | 0.00 | 0.00 | 0.00 | 96 | 1008.1 |
| 20260506202128 | 62 | 329 | 5.0 | 11.0 | 0.00 | 0.00 | 0.00 | 96 | 1008.1 |
| 20260506202028 | 62 | 323 | 3.0 | 11.0 | 0.00 | 0.00 | 0.00 | 96 | 1008.1 |
| 20260506201926 | 62 | 322 | 4.0 | 11.0 | 0.00 | 0.00 | 0.00 | 96 | 1008.1 |
| 20260506201824 | 62 | 315 | 1.0 | 11.0 | 0.00 | 0.00 | 0.00 | 96 | 1008.1 |
| 20260506201735 | 62 | 328 | 4.0 | 11.0 | 0.00 | 0.00 | 0.00 | 96 | 1008.1 |
| 20260506201648 | 62 | 326 | 7.0 | 11.0 | 0.00 | 0.00 | 0.00 | 96 | 1008.1 |
| 20260506201527 | 62 | 318 | 6.0 | 11.0 | 0.00 | 0.00 | 0.00 | 96 | 1008.1 |
| 20260506201424 | 62 | 333 | 7.0 | 12.0 | 0.00 | 0.00 | 0.00 | 96 | 1008.1 |
| 20260506201343 | 62 | 323 | 5.0 | 12.0 | 0.00 | 0.00 | 0.00 | 96 | 1008.6 |
| 20260506201241 | 62 | 325 | 4.0 | 12.0 | 0.00 | 0.00 | 0.00 | 96 | 1008.6 |
| 20260506201141 | 62 | 320 | 3.0 | 12.0 | 0.00 | 0.00 | 0.00 | 96 | 1008.6 |
| 20260506201040 | 62 | 322 | 3.0 | 12.0 | 0.00 | 0.00 | 0.00 | 96 | 1008.6 |
| 20260506200923 | 62 | 319 | 4.0 | 12.0 | 0.00 | 0.00 | 0.00 | 96 | 1008.6 |
| 20260506200843 | 62 | 306 | 5.0 | 12.0 | 0.00 | 0.00 | 0.00 | 96 | 1008.6 |
| 20260506200741 | 62 | 315 | 4.0 | 12.0 | 0.00 | 0.00 | 0.00 | 96 | 1008.6 |
| 20260506200659 | 62 | 312 | 7.0 | 12.0 | 0.00 | 0.00 | 0.00 | 96 | 1008.6 |
| 20260506200537 | 62 | 320 | 7.0 | 12.0 | 0.00 | 0.00 | 0.00 | 96 | 1008.6 |
| 20260506200435 | 62 | 312 | 6.0 | 12.0 | 0.00 | 0.00 | 0.00 | 96 | 1008.6 |
| 20260506200333 | 62 | 328 | 5.0 | 8.0 | 0.00 | 0.00 | 0.00 | 96 | 1008.6 |
| 20260506200302 | 62 | 316 | 7.0 | 8.0 | 0.00 | 0.00 | 0.00 | 96 | 1008.6 |
| 20260506200152 | 62 | 320 | 7.0 | 8.0 | 0.00 | 0.00 | 0.00 | 96 | 1008.6 |
| 20260506200035 | 62 | 322 | 5.0 | 8.0 | 0.00 | 0.00 | 0.00 | 96 | 1008.6 |
| 20260506195933 | 62 | 316 | 2.0 | 8.0 | 0.00 | 0.00 | 0.00 | 96 | 1008.6 |
| 20260506195851 | 62 | 319 | 3.0 | 8.0 | 0.00 | 0.00 | 0.00 | 96 | 1008.9 |
| 20260506195729 | 62 | 319 | 2.0 | 8.0 | 0.00 | 0.00 | 0.00 | 95 | 1008.9 |